<?xml version="1.0" encoding="UTF-8" standalone="no" ?>
<gpx xmlns="http://www.topografix.com/GPX/1/1" xmlns:xsi="http://www.w3.org/2001/XMLSchema-instance" xsi:schemaLocation="http://www.topografix.com/GPX/1/1 http://www.topografix.com/GPX/1/1/gpx.xsd" version="1.1" creator="VisuGPX - https://www.visugpx.com">
  <metadata>
    <name>Thones - Plan Bois - Croix Fry - Aravis - Annes</name>
    <desc><![CDATA[Thones - Col Plan Bois - Col de la Croix Fry - Col du Merdassier - Col des Aravis - Col des Annes - Thônes
85 kms
2500mD ]]></desc>
  </metadata>
  <trk>
    <name><![CDATA[2013-09-28 Thones]]></name>
    <desc><![CDATA[5h:04m:25s | 85.0 km

Longueur - 85.0 km
Points - 2333
Créé - 2013-09-28 09:04:34
Vitesse Max - 58.5 km/h
Altitude Min - 667 m
Altitude Max - 1764 m
]]></desc>
    <trkseg>
      <trkpt lat="45.88428" lon="6.31798">
        <ele>665.31</ele>
        <time>2013-09-28T07:04:34Z</time>
      </trkpt>
      <trkpt lat="45.88421" lon="6.31764">
        <ele>666.64</ele>
        <time>2013-09-28T07:07:04Z</time>
      </trkpt>
      <trkpt lat="45.88396" lon="6.31751">
        <ele>668.13</ele>
        <time>2013-09-28T07:07:12Z</time>
      </trkpt>
      <trkpt lat="45.88368" lon="6.31748">
        <ele>669.1</ele>
        <time>2013-09-28T07:07:17Z</time>
      </trkpt>
      <trkpt lat="45.88341" lon="6.31744">
        <ele>670.82</ele>
        <time>2013-09-28T07:07:22Z</time>
      </trkpt>
      <trkpt lat="45.88317" lon="6.3174">
        <ele>672.22</ele>
        <time>2013-09-28T07:07:27Z</time>
      </trkpt>
      <trkpt lat="45.88292" lon="6.31742">
        <ele>673.05</ele>
        <time>2013-09-28T07:07:32Z</time>
      </trkpt>
      <trkpt lat="45.88268" lon="6.31737">
        <ele>673.04</ele>
        <time>2013-09-28T07:07:37Z</time>
      </trkpt>
      <trkpt lat="45.88244" lon="6.31742">
        <ele>672.18</ele>
        <time>2013-09-28T07:07:43Z</time>
      </trkpt>
      <trkpt lat="45.88244" lon="6.31777">
        <ele>670.97</ele>
        <time>2013-09-28T07:07:48Z</time>
      </trkpt>
      <trkpt lat="45.88239" lon="6.31813">
        <ele>671.23</ele>
        <time>2013-09-28T07:07:53Z</time>
      </trkpt>
      <trkpt lat="45.88235" lon="6.3185">
        <ele>671.23</ele>
        <time>2013-09-28T07:07:58Z</time>
      </trkpt>
      <trkpt lat="45.8823" lon="6.31886">
        <ele>671.15</ele>
        <time>2013-09-28T07:08:03Z</time>
      </trkpt>
      <trkpt lat="45.88226" lon="6.31923">
        <ele>672.08</ele>
        <time>2013-09-28T07:08:08Z</time>
      </trkpt>
      <trkpt lat="45.88222" lon="6.31961">
        <ele>671.29</ele>
        <time>2013-09-28T07:08:13Z</time>
      </trkpt>
      <trkpt lat="45.88216" lon="6.31997">
        <ele>671.58</ele>
        <time>2013-09-28T07:08:18Z</time>
      </trkpt>
      <trkpt lat="45.88211" lon="6.32032">
        <ele>671.92</ele>
        <time>2013-09-28T07:08:23Z</time>
      </trkpt>
      <trkpt lat="45.88208" lon="6.32065">
        <ele>673.29</ele>
        <time>2013-09-28T07:08:30Z</time>
      </trkpt>
      <trkpt lat="45.88201" lon="6.32097">
        <ele>674.65</ele>
        <time>2013-09-28T07:08:40Z</time>
      </trkpt>
      <trkpt lat="45.88203" lon="6.3213">
        <ele>676.92</ele>
        <time>2013-09-28T07:09:05Z</time>
      </trkpt>
      <trkpt lat="45.88199" lon="6.32163">
        <ele>676.86</ele>
        <time>2013-09-28T07:09:12Z</time>
      </trkpt>
      <trkpt lat="45.88196" lon="6.32197">
        <ele>676.58</ele>
        <time>2013-09-28T07:09:19Z</time>
      </trkpt>
      <trkpt lat="45.88195" lon="6.3223">
        <ele>677.82</ele>
        <time>2013-09-28T07:09:30Z</time>
      </trkpt>
      <trkpt lat="45.88195" lon="6.32263">
        <ele>678.1</ele>
        <time>2013-09-28T07:09:39Z</time>
      </trkpt>
      <trkpt lat="45.88191" lon="6.32298">
        <ele>676.46</ele>
        <time>2013-09-28T07:09:46Z</time>
      </trkpt>
      <trkpt lat="45.88189" lon="6.32332">
        <ele>675.46</ele>
        <time>2013-09-28T07:09:53Z</time>
      </trkpt>
      <trkpt lat="45.88185" lon="6.32364">
        <ele>675.64</ele>
        <time>2013-09-28T07:10:02Z</time>
      </trkpt>
      <trkpt lat="45.88187" lon="6.32398">
        <ele>675.62</ele>
        <time>2013-09-28T07:10:14Z</time>
      </trkpt>
      <trkpt lat="45.88174" lon="6.32425">
        <ele>677.92</ele>
        <time>2013-09-28T07:10:37Z</time>
      </trkpt>
      <trkpt lat="45.88156" lon="6.32447">
        <ele>677.93</ele>
        <time>2013-09-28T07:10:48Z</time>
      </trkpt>
      <trkpt lat="45.88139" lon="6.32474">
        <ele>677.7</ele>
        <time>2013-09-28T07:10:57Z</time>
      </trkpt>
      <trkpt lat="45.8812" lon="6.32493">
        <ele>677.83</ele>
        <time>2013-09-28T07:11:06Z</time>
      </trkpt>
      <trkpt lat="45.88098" lon="6.32492">
        <ele>678.39</ele>
        <time>2013-09-28T07:11:18Z</time>
      </trkpt>
      <trkpt lat="45.88075" lon="6.32485">
        <ele>683.31</ele>
        <time>2013-09-28T07:11:47Z</time>
      </trkpt>
      <trkpt lat="45.88052" lon="6.32486">
        <ele>691.27</ele>
        <time>2013-09-28T07:12:06Z</time>
      </trkpt>
      <trkpt lat="45.88031" lon="6.32499">
        <ele>683.98</ele>
        <time>2013-09-28T07:12:17Z</time>
      </trkpt>
      <trkpt lat="45.88028" lon="6.32534">
        <ele>682.04</ele>
        <time>2013-09-28T07:12:25Z</time>
      </trkpt>
      <trkpt lat="45.88025" lon="6.32566">
        <ele>682.75</ele>
        <time>2013-09-28T07:12:31Z</time>
      </trkpt>
      <trkpt lat="45.88003" lon="6.32579">
        <ele>682.42</ele>
        <time>2013-09-28T07:12:40Z</time>
      </trkpt>
      <trkpt lat="45.87978" lon="6.32565">
        <ele>683.15</ele>
        <time>2013-09-28T07:12:46Z</time>
      </trkpt>
      <trkpt lat="45.87957" lon="6.3254">
        <ele>683.37</ele>
        <time>2013-09-28T07:12:51Z</time>
      </trkpt>
      <trkpt lat="45.87938" lon="6.32512">
        <ele>683.2</ele>
        <time>2013-09-28T07:12:56Z</time>
      </trkpt>
      <trkpt lat="45.87918" lon="6.32481">
        <ele>683.01</ele>
        <time>2013-09-28T07:13:01Z</time>
      </trkpt>
      <trkpt lat="45.8789" lon="6.32468">
        <ele>683.7</ele>
        <time>2013-09-28T07:13:06Z</time>
      </trkpt>
      <trkpt lat="45.87863" lon="6.3246">
        <ele>684.05</ele>
        <time>2013-09-28T07:13:11Z</time>
      </trkpt>
      <trkpt lat="45.87837" lon="6.32451">
        <ele>683.47</ele>
        <time>2013-09-28T07:13:16Z</time>
      </trkpt>
      <trkpt lat="45.87811" lon="6.32444">
        <ele>684.1</ele>
        <time>2013-09-28T07:13:21Z</time>
      </trkpt>
      <trkpt lat="45.87784" lon="6.32436">
        <ele>685.68</ele>
        <time>2013-09-28T07:13:26Z</time>
      </trkpt>
      <trkpt lat="45.87757" lon="6.32429">
        <ele>687.24</ele>
        <time>2013-09-28T07:13:31Z</time>
      </trkpt>
      <trkpt lat="45.87731" lon="6.32422">
        <ele>687.76</ele>
        <time>2013-09-28T07:13:36Z</time>
      </trkpt>
      <trkpt lat="45.87704" lon="6.32414">
        <ele>688.71</ele>
        <time>2013-09-28T07:13:41Z</time>
      </trkpt>
      <trkpt lat="45.87677" lon="6.32406">
        <ele>689.93</ele>
        <time>2013-09-28T07:13:46Z</time>
      </trkpt>
      <trkpt lat="45.87651" lon="6.32399">
        <ele>690.5</ele>
        <time>2013-09-28T07:13:51Z</time>
      </trkpt>
      <trkpt lat="45.87624" lon="6.3239">
        <ele>689.26</ele>
        <time>2013-09-28T07:13:56Z</time>
      </trkpt>
      <trkpt lat="45.87596" lon="6.3238">
        <ele>689.71</ele>
        <time>2013-09-28T07:14:01Z</time>
      </trkpt>
      <trkpt lat="45.87567" lon="6.3237">
        <ele>690.15</ele>
        <time>2013-09-28T07:14:06Z</time>
      </trkpt>
      <trkpt lat="45.87535" lon="6.32361">
        <ele>690.01</ele>
        <time>2013-09-28T07:14:11Z</time>
      </trkpt>
      <trkpt lat="45.87505" lon="6.32351">
        <ele>689.75</ele>
        <time>2013-09-28T07:14:16Z</time>
      </trkpt>
      <trkpt lat="45.87474" lon="6.32341">
        <ele>689.76</ele>
        <time>2013-09-28T07:14:21Z</time>
      </trkpt>
      <trkpt lat="45.87444" lon="6.32331">
        <ele>690.24</ele>
        <time>2013-09-28T07:14:26Z</time>
      </trkpt>
      <trkpt lat="45.87415" lon="6.32321">
        <ele>690.89</ele>
        <time>2013-09-28T07:14:31Z</time>
      </trkpt>
      <trkpt lat="45.87386" lon="6.32311">
        <ele>691.1</ele>
        <time>2013-09-28T07:14:36Z</time>
      </trkpt>
      <trkpt lat="45.87358" lon="6.32302">
        <ele>692.13</ele>
        <time>2013-09-28T07:14:41Z</time>
      </trkpt>
      <trkpt lat="45.87329" lon="6.32295">
        <ele>692.63</ele>
        <time>2013-09-28T07:14:46Z</time>
      </trkpt>
      <trkpt lat="45.87301" lon="6.32295">
        <ele>694</ele>
        <time>2013-09-28T07:14:51Z</time>
      </trkpt>
      <trkpt lat="45.87272" lon="6.32299">
        <ele>694.05</ele>
        <time>2013-09-28T07:14:56Z</time>
      </trkpt>
      <trkpt lat="45.87244" lon="6.32304">
        <ele>693.96</ele>
        <time>2013-09-28T07:15:01Z</time>
      </trkpt>
      <trkpt lat="45.87215" lon="6.32309">
        <ele>693.99</ele>
        <time>2013-09-28T07:15:06Z</time>
      </trkpt>
      <trkpt lat="45.87187" lon="6.32315">
        <ele>695.14</ele>
        <time>2013-09-28T07:15:11Z</time>
      </trkpt>
      <trkpt lat="45.8716" lon="6.32321">
        <ele>696.23</ele>
        <time>2013-09-28T07:15:16Z</time>
      </trkpt>
      <trkpt lat="45.87133" lon="6.32328">
        <ele>696.52</ele>
        <time>2013-09-28T07:15:21Z</time>
      </trkpt>
      <trkpt lat="45.87106" lon="6.32338">
        <ele>697.54</ele>
        <time>2013-09-28T07:15:26Z</time>
      </trkpt>
      <trkpt lat="45.87079" lon="6.32349">
        <ele>698.46</ele>
        <time>2013-09-28T07:15:31Z</time>
      </trkpt>
      <trkpt lat="45.87052" lon="6.32362">
        <ele>698.86</ele>
        <time>2013-09-28T07:15:36Z</time>
      </trkpt>
      <trkpt lat="45.87024" lon="6.32375">
        <ele>699.25</ele>
        <time>2013-09-28T07:15:41Z</time>
      </trkpt>
      <trkpt lat="45.86996" lon="6.32387">
        <ele>700</ele>
        <time>2013-09-28T07:15:46Z</time>
      </trkpt>
      <trkpt lat="45.86968" lon="6.32399">
        <ele>700.05</ele>
        <time>2013-09-28T07:15:51Z</time>
      </trkpt>
      <trkpt lat="45.8694" lon="6.32407">
        <ele>699.99</ele>
        <time>2013-09-28T07:15:56Z</time>
      </trkpt>
      <trkpt lat="45.86911" lon="6.32412">
        <ele>700.73</ele>
        <time>2013-09-28T07:16:01Z</time>
      </trkpt>
      <trkpt lat="45.86883" lon="6.32415">
        <ele>701.43</ele>
        <time>2013-09-28T07:16:06Z</time>
      </trkpt>
      <trkpt lat="45.86855" lon="6.32419">
        <ele>701.5</ele>
        <time>2013-09-28T07:16:11Z</time>
      </trkpt>
      <trkpt lat="45.86828" lon="6.32424">
        <ele>702.58</ele>
        <time>2013-09-28T07:16:16Z</time>
      </trkpt>
      <trkpt lat="45.868" lon="6.32427">
        <ele>703.01</ele>
        <time>2013-09-28T07:16:21Z</time>
      </trkpt>
      <trkpt lat="45.86771" lon="6.3243">
        <ele>704.64</ele>
        <time>2013-09-28T07:16:26Z</time>
      </trkpt>
      <trkpt lat="45.86743" lon="6.32436">
        <ele>706.05</ele>
        <time>2013-09-28T07:16:31Z</time>
      </trkpt>
      <trkpt lat="45.86714" lon="6.3244">
        <ele>706.28</ele>
        <time>2013-09-28T07:16:36Z</time>
      </trkpt>
      <trkpt lat="45.86685" lon="6.32451">
        <ele>706.11</ele>
        <time>2013-09-28T07:16:41Z</time>
      </trkpt>
      <trkpt lat="45.86661" lon="6.32475">
        <ele>707.01</ele>
        <time>2013-09-28T07:16:46Z</time>
      </trkpt>
      <trkpt lat="45.86637" lon="6.32496">
        <ele>706.94</ele>
        <time>2013-09-28T07:16:51Z</time>
      </trkpt>
      <trkpt lat="45.86611" lon="6.32513">
        <ele>707.61</ele>
        <time>2013-09-28T07:16:56Z</time>
      </trkpt>
      <trkpt lat="45.86583" lon="6.32514">
        <ele>709.06</ele>
        <time>2013-09-28T07:17:01Z</time>
      </trkpt>
      <trkpt lat="45.86558" lon="6.32511">
        <ele>710.22</ele>
        <time>2013-09-28T07:17:06Z</time>
      </trkpt>
      <trkpt lat="45.86532" lon="6.32514">
        <ele>711.37</ele>
        <time>2013-09-28T07:17:11Z</time>
      </trkpt>
      <trkpt lat="45.86516" lon="6.32541">
        <ele>712.94</ele>
        <time>2013-09-28T07:17:16Z</time>
      </trkpt>
      <trkpt lat="45.86508" lon="6.32576">
        <ele>714.3</ele>
        <time>2013-09-28T07:17:21Z</time>
      </trkpt>
      <trkpt lat="45.86493" lon="6.3261">
        <ele>715</ele>
        <time>2013-09-28T07:17:26Z</time>
      </trkpt>
      <trkpt lat="45.86469" lon="6.32631">
        <ele>715</ele>
        <time>2013-09-28T07:17:31Z</time>
      </trkpt>
      <trkpt lat="45.86443" lon="6.32641">
        <ele>715.02</ele>
        <time>2013-09-28T07:17:36Z</time>
      </trkpt>
      <trkpt lat="45.86419" lon="6.32654">
        <ele>715.14</ele>
        <time>2013-09-28T07:17:41Z</time>
      </trkpt>
      <trkpt lat="45.86394" lon="6.32661">
        <ele>715.84</ele>
        <time>2013-09-28T07:17:46Z</time>
      </trkpt>
      <trkpt lat="45.8637" lon="6.32672">
        <ele>716.28</ele>
        <time>2013-09-28T07:17:51Z</time>
      </trkpt>
      <trkpt lat="45.86345" lon="6.32682">
        <ele>717.39</ele>
        <time>2013-09-28T07:17:56Z</time>
      </trkpt>
      <trkpt lat="45.86316" lon="6.32689">
        <ele>716.64</ele>
        <time>2013-09-28T07:18:01Z</time>
      </trkpt>
      <trkpt lat="45.86288" lon="6.32683">
        <ele>716.85</ele>
        <time>2013-09-28T07:18:06Z</time>
      </trkpt>
      <trkpt lat="45.86259" lon="6.32681">
        <ele>715.92</ele>
        <time>2013-09-28T07:18:11Z</time>
      </trkpt>
      <trkpt lat="45.86233" lon="6.32687">
        <ele>716.81</ele>
        <time>2013-09-28T07:18:16Z</time>
      </trkpt>
      <trkpt lat="45.86207" lon="6.32703">
        <ele>717.13</ele>
        <time>2013-09-28T07:18:21Z</time>
      </trkpt>
      <trkpt lat="45.8618" lon="6.32719">
        <ele>719.57</ele>
        <time>2013-09-28T07:18:26Z</time>
      </trkpt>
      <trkpt lat="45.86154" lon="6.32734">
        <ele>718.96</ele>
        <time>2013-09-28T07:18:31Z</time>
      </trkpt>
      <trkpt lat="45.86126" lon="6.32748">
        <ele>721.49</ele>
        <time>2013-09-28T07:18:36Z</time>
      </trkpt>
      <trkpt lat="45.86099" lon="6.32747">
        <ele>724.15</ele>
        <time>2013-09-28T07:18:41Z</time>
      </trkpt>
      <trkpt lat="45.86073" lon="6.32739">
        <ele>724.95</ele>
        <time>2013-09-28T07:18:46Z</time>
      </trkpt>
      <trkpt lat="45.86048" lon="6.3274">
        <ele>724.15</ele>
        <time>2013-09-28T07:18:51Z</time>
      </trkpt>
      <trkpt lat="45.86025" lon="6.32758">
        <ele>723.66</ele>
        <time>2013-09-28T07:18:57Z</time>
      </trkpt>
      <trkpt lat="45.86015" lon="6.32789">
        <ele>725.65</ele>
        <time>2013-09-28T07:19:02Z</time>
      </trkpt>
      <trkpt lat="45.86009" lon="6.32822">
        <ele>727.12</ele>
        <time>2013-09-28T07:19:07Z</time>
      </trkpt>
      <trkpt lat="45.85998" lon="6.32853">
        <ele>727.2</ele>
        <time>2013-09-28T07:19:12Z</time>
      </trkpt>
      <trkpt lat="45.85971" lon="6.3286">
        <ele>728.55</ele>
        <time>2013-09-28T07:19:17Z</time>
      </trkpt>
      <trkpt lat="45.85944" lon="6.32858">
        <ele>728.15</ele>
        <time>2013-09-28T07:19:22Z</time>
      </trkpt>
      <trkpt lat="45.85918" lon="6.32861">
        <ele>727.41</ele>
        <time>2013-09-28T07:19:27Z</time>
      </trkpt>
      <trkpt lat="45.85899" lon="6.32886">
        <ele>728.18</ele>
        <time>2013-09-28T07:19:33Z</time>
      </trkpt>
      <trkpt lat="45.85876" lon="6.32902">
        <ele>728.23</ele>
        <time>2013-09-28T07:19:38Z</time>
      </trkpt>
      <trkpt lat="45.8585" lon="6.32903">
        <ele>727.41</ele>
        <time>2013-09-28T07:19:43Z</time>
      </trkpt>
      <trkpt lat="45.85825" lon="6.32902">
        <ele>726.26</ele>
        <time>2013-09-28T07:19:49Z</time>
      </trkpt>
      <trkpt lat="45.85803" lon="6.32908">
        <ele>725.78</ele>
        <time>2013-09-28T07:19:54Z</time>
      </trkpt>
      <trkpt lat="45.85779" lon="6.32915">
        <ele>724.56</ele>
        <time>2013-09-28T07:20:00Z</time>
      </trkpt>
      <trkpt lat="45.85756" lon="6.32932">
        <ele>722.75</ele>
        <time>2013-09-28T07:20:05Z</time>
      </trkpt>
      <trkpt lat="45.85781" lon="6.32937">
        <ele>725.18</ele>
        <time>2013-09-28T07:20:11Z</time>
      </trkpt>
      <trkpt lat="45.85803" lon="6.32927">
        <ele>729.1</ele>
        <time>2013-09-28T07:20:16Z</time>
      </trkpt>
      <trkpt lat="45.85828" lon="6.32929">
        <ele>735.07</ele>
        <time>2013-09-28T07:20:22Z</time>
      </trkpt>
      <trkpt lat="45.85852" lon="6.32934">
        <ele>740.5</ele>
        <time>2013-09-28T07:20:28Z</time>
      </trkpt>
      <trkpt lat="45.85875" lon="6.32935">
        <ele>746.56</ele>
        <time>2013-09-28T07:20:34Z</time>
      </trkpt>
      <trkpt lat="45.85896" lon="6.32919">
        <ele>750.02</ele>
        <time>2013-09-28T07:20:40Z</time>
      </trkpt>
      <trkpt lat="45.85916" lon="6.32899">
        <ele>749.33</ele>
        <time>2013-09-28T07:20:46Z</time>
      </trkpt>
      <trkpt lat="45.8594" lon="6.32898">
        <ele>750.88</ele>
        <time>2013-09-28T07:20:52Z</time>
      </trkpt>
      <trkpt lat="45.85964" lon="6.32909">
        <ele>754.32</ele>
        <time>2013-09-28T07:20:58Z</time>
      </trkpt>
      <trkpt lat="45.85988" lon="6.32908">
        <ele>756.38</ele>
        <time>2013-09-28T07:21:04Z</time>
      </trkpt>
      <trkpt lat="45.8597" lon="6.3293">
        <ele>759.72</ele>
        <time>2013-09-28T07:21:18Z</time>
      </trkpt>
      <trkpt lat="45.8595" lon="6.32949">
        <ele>763.21</ele>
        <time>2013-09-28T07:21:27Z</time>
      </trkpt>
      <trkpt lat="45.85938" lon="6.32978">
        <ele>767.77</ele>
        <time>2013-09-28T07:21:36Z</time>
      </trkpt>
      <trkpt lat="45.85934" lon="6.3301">
        <ele>770.09</ele>
        <time>2013-09-28T07:21:44Z</time>
      </trkpt>
      <trkpt lat="45.85931" lon="6.33045">
        <ele>773.04</ele>
        <time>2013-09-28T07:21:53Z</time>
      </trkpt>
      <trkpt lat="45.85929" lon="6.3308">
        <ele>776.32</ele>
        <time>2013-09-28T07:22:02Z</time>
      </trkpt>
      <trkpt lat="45.85923" lon="6.33114">
        <ele>779.06</ele>
        <time>2013-09-28T07:22:11Z</time>
      </trkpt>
      <trkpt lat="45.85913" lon="6.33146">
        <ele>782.88</ele>
        <time>2013-09-28T07:22:21Z</time>
      </trkpt>
      <trkpt lat="45.85902" lon="6.33177">
        <ele>789.96</ele>
        <time>2013-09-28T07:22:32Z</time>
      </trkpt>
      <trkpt lat="45.85896" lon="6.3321">
        <ele>795.94</ele>
        <time>2013-09-28T07:22:42Z</time>
      </trkpt>
      <trkpt lat="45.85884" lon="6.33182">
        <ele>794.26</ele>
        <time>2013-09-28T07:23:01Z</time>
      </trkpt>
      <trkpt lat="45.85894" lon="6.33149">
        <ele>795.66</ele>
        <time>2013-09-28T07:23:10Z</time>
      </trkpt>
      <trkpt lat="45.85881" lon="6.33122">
        <ele>799.67</ele>
        <time>2013-09-28T07:23:19Z</time>
      </trkpt>
      <trkpt lat="45.85858" lon="6.33115">
        <ele>800.96</ele>
        <time>2013-09-28T07:23:27Z</time>
      </trkpt>
      <trkpt lat="45.85835" lon="6.3311">
        <ele>803.79</ele>
        <time>2013-09-28T07:23:36Z</time>
      </trkpt>
      <trkpt lat="45.85811" lon="6.33104">
        <ele>805.16</ele>
        <time>2013-09-28T07:23:46Z</time>
      </trkpt>
      <trkpt lat="45.85788" lon="6.33097">
        <ele>807.61</ele>
        <time>2013-09-28T07:23:56Z</time>
      </trkpt>
      <trkpt lat="45.85767" lon="6.33082">
        <ele>813.29</ele>
        <time>2013-09-28T07:24:10Z</time>
      </trkpt>
      <trkpt lat="45.85742" lon="6.33083">
        <ele>812.69</ele>
        <time>2013-09-28T07:24:18Z</time>
      </trkpt>
      <trkpt lat="45.85719" lon="6.33087">
        <ele>820.36</ele>
        <time>2013-09-28T07:24:27Z</time>
      </trkpt>
      <trkpt lat="45.85697" lon="6.33097">
        <ele>827.2</ele>
        <time>2013-09-28T07:24:38Z</time>
      </trkpt>
      <trkpt lat="45.85674" lon="6.33099">
        <ele>827.05</ele>
        <time>2013-09-28T07:24:47Z</time>
      </trkpt>
      <trkpt lat="45.85651" lon="6.33104">
        <ele>830.93</ele>
        <time>2013-09-28T07:24:56Z</time>
      </trkpt>
      <trkpt lat="45.85627" lon="6.33103">
        <ele>839.84</ele>
        <time>2013-09-28T07:25:06Z</time>
      </trkpt>
      <trkpt lat="45.85604" lon="6.33108">
        <ele>848.1</ele>
        <time>2013-09-28T07:25:20Z</time>
      </trkpt>
      <trkpt lat="45.85581" lon="6.33117">
        <ele>853.29</ele>
        <time>2013-09-28T07:25:35Z</time>
      </trkpt>
      <trkpt lat="45.85556" lon="6.33121">
        <ele>851.77</ele>
        <time>2013-09-28T07:25:43Z</time>
      </trkpt>
      <trkpt lat="45.85535" lon="6.33132">
        <ele>854.98</ele>
        <time>2013-09-28T07:25:50Z</time>
      </trkpt>
      <trkpt lat="45.85512" lon="6.3314">
        <ele>859.35</ele>
        <time>2013-09-28T07:25:59Z</time>
      </trkpt>
      <trkpt lat="45.85488" lon="6.3315">
        <ele>861.31</ele>
        <time>2013-09-28T07:26:09Z</time>
      </trkpt>
      <trkpt lat="45.85466" lon="6.33166">
        <ele>863.55</ele>
        <time>2013-09-28T07:26:19Z</time>
      </trkpt>
      <trkpt lat="45.85444" lon="6.33175">
        <ele>865.46</ele>
        <time>2013-09-28T07:26:28Z</time>
      </trkpt>
      <trkpt lat="45.85423" lon="6.33189">
        <ele>867.27</ele>
        <time>2013-09-28T07:26:37Z</time>
      </trkpt>
      <trkpt lat="45.85402" lon="6.33201">
        <ele>871.56</ele>
        <time>2013-09-28T07:26:47Z</time>
      </trkpt>
      <trkpt lat="45.85383" lon="6.33219">
        <ele>875.19</ele>
        <time>2013-09-28T07:26:57Z</time>
      </trkpt>
      <trkpt lat="45.85361" lon="6.33231">
        <ele>879.78</ele>
        <time>2013-09-28T07:27:07Z</time>
      </trkpt>
      <trkpt lat="45.8534" lon="6.33246">
        <ele>880.2</ele>
        <time>2013-09-28T07:27:16Z</time>
      </trkpt>
      <trkpt lat="45.85319" lon="6.33262">
        <ele>880.1</ele>
        <time>2013-09-28T07:27:25Z</time>
      </trkpt>
      <trkpt lat="45.85298" lon="6.33276">
        <ele>884.27</ele>
        <time>2013-09-28T07:27:35Z</time>
      </trkpt>
      <trkpt lat="45.85277" lon="6.33289">
        <ele>888.27</ele>
        <time>2013-09-28T07:27:45Z</time>
      </trkpt>
      <trkpt lat="45.85252" lon="6.33293">
        <ele>889.09</ele>
        <time>2013-09-28T07:27:55Z</time>
      </trkpt>
      <trkpt lat="45.8523" lon="6.33303">
        <ele>888.84</ele>
        <time>2013-09-28T07:28:04Z</time>
      </trkpt>
      <trkpt lat="45.85207" lon="6.33315">
        <ele>892.36</ele>
        <time>2013-09-28T07:28:13Z</time>
      </trkpt>
      <trkpt lat="45.85186" lon="6.33327">
        <ele>897.49</ele>
        <time>2013-09-28T07:28:22Z</time>
      </trkpt>
      <trkpt lat="45.85181" lon="6.33361">
        <ele>900.5</ele>
        <time>2013-09-28T07:28:32Z</time>
      </trkpt>
      <trkpt lat="45.85185" lon="6.33394">
        <ele>902.81</ele>
        <time>2013-09-28T07:28:41Z</time>
      </trkpt>
      <trkpt lat="45.85187" lon="6.33426">
        <ele>905.29</ele>
        <time>2013-09-28T07:28:50Z</time>
      </trkpt>
      <trkpt lat="45.85184" lon="6.33459">
        <ele>907.7</ele>
        <time>2013-09-28T07:28:59Z</time>
      </trkpt>
      <trkpt lat="45.8517" lon="6.33486">
        <ele>910.06</ele>
        <time>2013-09-28T07:29:08Z</time>
      </trkpt>
      <trkpt lat="45.85154" lon="6.33511">
        <ele>911.29</ele>
        <time>2013-09-28T07:29:17Z</time>
      </trkpt>
      <trkpt lat="45.85133" lon="6.33527">
        <ele>916.19</ele>
        <time>2013-09-28T07:29:27Z</time>
      </trkpt>
      <trkpt lat="45.85109" lon="6.33534">
        <ele>916.54</ele>
        <time>2013-09-28T07:29:37Z</time>
      </trkpt>
      <trkpt lat="45.85085" lon="6.33539">
        <ele>921.03</ele>
        <time>2013-09-28T07:29:47Z</time>
      </trkpt>
      <trkpt lat="45.85064" lon="6.33553">
        <ele>926.82</ele>
        <time>2013-09-28T07:29:57Z</time>
      </trkpt>
      <trkpt lat="45.85048" lon="6.33579">
        <ele>928.09</ele>
        <time>2013-09-28T07:30:08Z</time>
      </trkpt>
      <trkpt lat="45.85026" lon="6.33593">
        <ele>929.28</ele>
        <time>2013-09-28T07:30:19Z</time>
      </trkpt>
      <trkpt lat="45.85002" lon="6.33599">
        <ele>933.67</ele>
        <time>2013-09-28T07:30:30Z</time>
      </trkpt>
      <trkpt lat="45.84986" lon="6.33574">
        <ele>936.98</ele>
        <time>2013-09-28T07:30:40Z</time>
      </trkpt>
      <trkpt lat="45.84965" lon="6.33562">
        <ele>938.26</ele>
        <time>2013-09-28T07:30:50Z</time>
      </trkpt>
      <trkpt lat="45.84942" lon="6.3356">
        <ele>940.15</ele>
        <time>2013-09-28T07:30:59Z</time>
      </trkpt>
      <trkpt lat="45.84917" lon="6.33562">
        <ele>942.57</ele>
        <time>2013-09-28T07:31:09Z</time>
      </trkpt>
      <trkpt lat="45.84894" lon="6.33566">
        <ele>949.81</ele>
        <time>2013-09-28T07:31:19Z</time>
      </trkpt>
      <trkpt lat="45.84872" lon="6.33579">
        <ele>950.49</ele>
        <time>2013-09-28T07:31:28Z</time>
      </trkpt>
      <trkpt lat="45.84853" lon="6.33596">
        <ele>953.87</ele>
        <time>2013-09-28T07:31:37Z</time>
      </trkpt>
      <trkpt lat="45.84839" lon="6.33622">
        <ele>953.9</ele>
        <time>2013-09-28T07:31:46Z</time>
      </trkpt>
      <trkpt lat="45.84824" lon="6.33647">
        <ele>954.54</ele>
        <time>2013-09-28T07:31:55Z</time>
      </trkpt>
      <trkpt lat="45.84806" lon="6.33672">
        <ele>960.81</ele>
        <time>2013-09-28T07:32:06Z</time>
      </trkpt>
      <trkpt lat="45.84791" lon="6.33698">
        <ele>966.43</ele>
        <time>2013-09-28T07:32:17Z</time>
      </trkpt>
      <trkpt lat="45.84773" lon="6.33719">
        <ele>966.74</ele>
        <time>2013-09-28T07:32:26Z</time>
      </trkpt>
      <trkpt lat="45.84757" lon="6.33745">
        <ele>968.72</ele>
        <time>2013-09-28T07:32:36Z</time>
      </trkpt>
      <trkpt lat="45.84739" lon="6.33766">
        <ele>973.24</ele>
        <time>2013-09-28T07:32:46Z</time>
      </trkpt>
      <trkpt lat="45.84733" lon="6.33797">
        <ele>975.96</ele>
        <time>2013-09-28T07:32:56Z</time>
      </trkpt>
      <trkpt lat="45.84733" lon="6.3383">
        <ele>994.46</ele>
        <time>2013-09-28T07:33:10Z</time>
      </trkpt>
      <trkpt lat="45.84727" lon="6.33862">
        <ele>992.6</ele>
        <time>2013-09-28T07:33:22Z</time>
      </trkpt>
      <trkpt lat="45.84728" lon="6.33894">
        <ele>992.08</ele>
        <time>2013-09-28T07:33:30Z</time>
      </trkpt>
      <trkpt lat="45.84743" lon="6.33923">
        <ele>992.71</ele>
        <time>2013-09-28T07:33:39Z</time>
      </trkpt>
      <trkpt lat="45.84761" lon="6.33948">
        <ele>994.74</ele>
        <time>2013-09-28T07:33:48Z</time>
      </trkpt>
      <trkpt lat="45.84773" lon="6.33975">
        <ele>1000.51</ele>
        <time>2013-09-28T07:33:56Z</time>
      </trkpt>
      <trkpt lat="45.84778" lon="6.34009">
        <ele>1000.8</ele>
        <time>2013-09-28T07:34:04Z</time>
      </trkpt>
      <trkpt lat="45.84781" lon="6.34045">
        <ele>1001.6</ele>
        <time>2013-09-28T07:34:12Z</time>
      </trkpt>
      <trkpt lat="45.84784" lon="6.34078">
        <ele>1003.51</ele>
        <time>2013-09-28T07:34:20Z</time>
      </trkpt>
      <trkpt lat="45.84786" lon="6.34112">
        <ele>1005.42</ele>
        <time>2013-09-28T07:34:28Z</time>
      </trkpt>
      <trkpt lat="45.84788" lon="6.34145">
        <ele>1006.56</ele>
        <time>2013-09-28T07:34:36Z</time>
      </trkpt>
      <trkpt lat="45.84775" lon="6.34172">
        <ele>1007.21</ele>
        <time>2013-09-28T07:34:44Z</time>
      </trkpt>
      <trkpt lat="45.84755" lon="6.34192">
        <ele>1008.27</ele>
        <time>2013-09-28T07:34:52Z</time>
      </trkpt>
      <trkpt lat="45.84748" lon="6.34224">
        <ele>1011.15</ele>
        <time>2013-09-28T07:35:00Z</time>
      </trkpt>
      <trkpt lat="45.84748" lon="6.34258">
        <ele>1013.59</ele>
        <time>2013-09-28T07:35:08Z</time>
      </trkpt>
      <trkpt lat="45.84745" lon="6.34291">
        <ele>1016.2</ele>
        <time>2013-09-28T07:35:16Z</time>
      </trkpt>
      <trkpt lat="45.84737" lon="6.34323">
        <ele>1017.95</ele>
        <time>2013-09-28T07:35:24Z</time>
      </trkpt>
      <trkpt lat="45.84723" lon="6.34348">
        <ele>1020.02</ele>
        <time>2013-09-28T07:35:32Z</time>
      </trkpt>
      <trkpt lat="45.84702" lon="6.34364">
        <ele>1021</ele>
        <time>2013-09-28T07:35:40Z</time>
      </trkpt>
      <trkpt lat="45.84679" lon="6.34374">
        <ele>1022.19</ele>
        <time>2013-09-28T07:35:47Z</time>
      </trkpt>
      <trkpt lat="45.84658" lon="6.34393">
        <ele>1023.41</ele>
        <time>2013-09-28T07:35:54Z</time>
      </trkpt>
      <trkpt lat="45.84638" lon="6.34414">
        <ele>1024.2</ele>
        <time>2013-09-28T07:36:01Z</time>
      </trkpt>
      <trkpt lat="45.84617" lon="6.34429">
        <ele>1025.97</ele>
        <time>2013-09-28T07:36:08Z</time>
      </trkpt>
      <trkpt lat="45.84592" lon="6.34439">
        <ele>1028.67</ele>
        <time>2013-09-28T07:36:16Z</time>
      </trkpt>
      <trkpt lat="45.84571" lon="6.34428">
        <ele>1030.66</ele>
        <time>2013-09-28T07:36:23Z</time>
      </trkpt>
      <trkpt lat="45.84552" lon="6.3441">
        <ele>1033.29</ele>
        <time>2013-09-28T07:36:30Z</time>
      </trkpt>
      <trkpt lat="45.84531" lon="6.34391">
        <ele>1036.46</ele>
        <time>2013-09-28T07:36:38Z</time>
      </trkpt>
      <trkpt lat="45.84511" lon="6.34373">
        <ele>1039.06</ele>
        <time>2013-09-28T07:36:46Z</time>
      </trkpt>
      <trkpt lat="45.84493" lon="6.34353">
        <ele>1041.79</ele>
        <time>2013-09-28T07:36:54Z</time>
      </trkpt>
      <trkpt lat="45.84484" lon="6.34323">
        <ele>1043.51</ele>
        <time>2013-09-28T07:37:02Z</time>
      </trkpt>
      <trkpt lat="45.84474" lon="6.34293">
        <ele>1046.13</ele>
        <time>2013-09-28T07:37:10Z</time>
      </trkpt>
      <trkpt lat="45.84466" lon="6.3426">
        <ele>1046.15</ele>
        <time>2013-09-28T07:37:19Z</time>
      </trkpt>
      <trkpt lat="45.84453" lon="6.34233">
        <ele>1048.08</ele>
        <time>2013-09-28T07:37:27Z</time>
      </trkpt>
      <trkpt lat="45.84431" lon="6.34219">
        <ele>1056.89</ele>
        <time>2013-09-28T07:37:35Z</time>
      </trkpt>
      <trkpt lat="45.84408" lon="6.34223">
        <ele>1057.84</ele>
        <time>2013-09-28T07:37:43Z</time>
      </trkpt>
      <trkpt lat="45.84394" lon="6.34253">
        <ele>1057.26</ele>
        <time>2013-09-28T07:37:52Z</time>
      </trkpt>
      <trkpt lat="45.84389" lon="6.34286">
        <ele>1059.5</ele>
        <time>2013-09-28T07:38:00Z</time>
      </trkpt>
      <trkpt lat="45.84387" lon="6.34319">
        <ele>1061.42</ele>
        <time>2013-09-28T07:38:08Z</time>
      </trkpt>
      <trkpt lat="45.84383" lon="6.34351">
        <ele>1063.33</ele>
        <time>2013-09-28T07:38:16Z</time>
      </trkpt>
      <trkpt lat="45.84375" lon="6.34382">
        <ele>1068.13</ele>
        <time>2013-09-28T07:38:25Z</time>
      </trkpt>
      <trkpt lat="45.84365" lon="6.34412">
        <ele>1068.85</ele>
        <time>2013-09-28T07:38:33Z</time>
      </trkpt>
      <trkpt lat="45.84359" lon="6.34447">
        <ele>1072.66</ele>
        <time>2013-09-28T07:38:42Z</time>
      </trkpt>
      <trkpt lat="45.84347" lon="6.34477">
        <ele>1074.74</ele>
        <time>2013-09-28T07:38:50Z</time>
      </trkpt>
      <trkpt lat="45.84332" lon="6.34504">
        <ele>1078.87</ele>
        <time>2013-09-28T07:38:59Z</time>
      </trkpt>
      <trkpt lat="45.84308" lon="6.34505">
        <ele>1077.69</ele>
        <time>2013-09-28T07:39:06Z</time>
      </trkpt>
      <trkpt lat="45.84285" lon="6.34506">
        <ele>1078.2</ele>
        <time>2013-09-28T07:39:13Z</time>
      </trkpt>
      <trkpt lat="45.84262" lon="6.34493">
        <ele>1079.2</ele>
        <time>2013-09-28T07:39:21Z</time>
      </trkpt>
      <trkpt lat="45.84242" lon="6.34477">
        <ele>1084.6</ele>
        <time>2013-09-28T07:39:28Z</time>
      </trkpt>
      <trkpt lat="45.84223" lon="6.34458">
        <ele>1081.7</ele>
        <time>2013-09-28T07:39:35Z</time>
      </trkpt>
      <trkpt lat="45.84202" lon="6.34439">
        <ele>1077.63</ele>
        <time>2013-09-28T07:39:43Z</time>
      </trkpt>
      <trkpt lat="45.84178" lon="6.34431">
        <ele>1077.53</ele>
        <time>2013-09-28T07:39:51Z</time>
      </trkpt>
      <trkpt lat="45.84154" lon="6.34437">
        <ele>1081.78</ele>
        <time>2013-09-28T07:39:58Z</time>
      </trkpt>
      <trkpt lat="45.84129" lon="6.34431">
        <ele>1082.02</ele>
        <time>2013-09-28T07:40:06Z</time>
      </trkpt>
      <trkpt lat="45.84109" lon="6.34409">
        <ele>1081.01</ele>
        <time>2013-09-28T07:40:13Z</time>
      </trkpt>
      <trkpt lat="45.84094" lon="6.34382">
        <ele>1079.49</ele>
        <time>2013-09-28T07:40:20Z</time>
      </trkpt>
      <trkpt lat="45.84078" lon="6.34358">
        <ele>1078.32</ele>
        <time>2013-09-28T07:40:27Z</time>
      </trkpt>
      <trkpt lat="45.84063" lon="6.34331">
        <ele>1077.34</ele>
        <time>2013-09-28T07:40:34Z</time>
      </trkpt>
      <trkpt lat="45.84044" lon="6.34313">
        <ele>1089.83</ele>
        <time>2013-09-28T07:40:41Z</time>
      </trkpt>
      <trkpt lat="45.84022" lon="6.343">
        <ele>1094.2</ele>
        <time>2013-09-28T07:40:48Z</time>
      </trkpt>
      <trkpt lat="45.83999" lon="6.34288">
        <ele>1098.07</ele>
        <time>2013-09-28T07:40:56Z</time>
      </trkpt>
      <trkpt lat="45.83979" lon="6.34308">
        <ele>1100.93</ele>
        <time>2013-09-28T07:41:04Z</time>
      </trkpt>
      <trkpt lat="45.83976" lon="6.34344">
        <ele>1104.1</ele>
        <time>2013-09-28T07:41:11Z</time>
      </trkpt>
      <trkpt lat="45.83972" lon="6.34376">
        <ele>1108.87</ele>
        <time>2013-09-28T07:41:18Z</time>
      </trkpt>
      <trkpt lat="45.83967" lon="6.34411">
        <ele>1111.2</ele>
        <time>2013-09-28T07:41:26Z</time>
      </trkpt>
      <trkpt lat="45.83965" lon="6.34447">
        <ele>1113.06</ele>
        <time>2013-09-28T07:41:34Z</time>
      </trkpt>
      <trkpt lat="45.83974" lon="6.34479">
        <ele>1114.16</ele>
        <time>2013-09-28T07:41:41Z</time>
      </trkpt>
      <trkpt lat="45.83986" lon="6.34511">
        <ele>1115.89</ele>
        <time>2013-09-28T07:41:48Z</time>
      </trkpt>
      <trkpt lat="45.83995" lon="6.34544">
        <ele>1117.36</ele>
        <time>2013-09-28T07:41:55Z</time>
      </trkpt>
      <trkpt lat="45.84005" lon="6.34575">
        <ele>1118.73</ele>
        <time>2013-09-28T07:42:02Z</time>
      </trkpt>
      <trkpt lat="45.84016" lon="6.34606">
        <ele>1120.48</ele>
        <time>2013-09-28T07:42:09Z</time>
      </trkpt>
      <trkpt lat="45.84023" lon="6.34638">
        <ele>1122.21</ele>
        <time>2013-09-28T07:42:16Z</time>
      </trkpt>
      <trkpt lat="45.8403" lon="6.3467">
        <ele>1123.91</ele>
        <time>2013-09-28T07:42:23Z</time>
      </trkpt>
      <trkpt lat="45.84035" lon="6.34704">
        <ele>1125.11</ele>
        <time>2013-09-28T07:42:30Z</time>
      </trkpt>
      <trkpt lat="45.84041" lon="6.34737">
        <ele>1126.39</ele>
        <time>2013-09-28T07:42:37Z</time>
      </trkpt>
      <trkpt lat="45.84046" lon="6.3477">
        <ele>1128.76</ele>
        <time>2013-09-28T07:42:44Z</time>
      </trkpt>
      <trkpt lat="45.84045" lon="6.34804">
        <ele>1129.87</ele>
        <time>2013-09-28T07:42:51Z</time>
      </trkpt>
      <trkpt lat="45.84038" lon="6.34835">
        <ele>1131.63</ele>
        <time>2013-09-28T07:42:58Z</time>
      </trkpt>
      <trkpt lat="45.84024" lon="6.34864">
        <ele>1135.57</ele>
        <time>2013-09-28T07:43:06Z</time>
      </trkpt>
      <trkpt lat="45.84004" lon="6.34882">
        <ele>1137.15</ele>
        <time>2013-09-28T07:43:14Z</time>
      </trkpt>
      <trkpt lat="45.83982" lon="6.34894">
        <ele>1139.38</ele>
        <time>2013-09-28T07:43:22Z</time>
      </trkpt>
      <trkpt lat="45.8396" lon="6.34906">
        <ele>1141.38</ele>
        <time>2013-09-28T07:43:30Z</time>
      </trkpt>
      <trkpt lat="45.83937" lon="6.34918">
        <ele>1146.3</ele>
        <time>2013-09-28T07:43:39Z</time>
      </trkpt>
      <trkpt lat="45.83916" lon="6.34932">
        <ele>1147.53</ele>
        <time>2013-09-28T07:43:48Z</time>
      </trkpt>
      <trkpt lat="45.83895" lon="6.34949">
        <ele>1150.16</ele>
        <time>2013-09-28T07:43:57Z</time>
      </trkpt>
      <trkpt lat="45.83875" lon="6.34965">
        <ele>1154.12</ele>
        <time>2013-09-28T07:44:06Z</time>
      </trkpt>
      <trkpt lat="45.83852" lon="6.34964">
        <ele>1155.14</ele>
        <time>2013-09-28T07:44:15Z</time>
      </trkpt>
      <trkpt lat="45.83828" lon="6.3496">
        <ele>1157.28</ele>
        <time>2013-09-28T07:44:25Z</time>
      </trkpt>
      <trkpt lat="45.83805" lon="6.34964">
        <ele>1162.04</ele>
        <time>2013-09-28T07:44:36Z</time>
      </trkpt>
      <trkpt lat="45.83792" lon="6.34992">
        <ele>1165.17</ele>
        <time>2013-09-28T07:44:46Z</time>
      </trkpt>
      <trkpt lat="45.83768" lon="6.34985">
        <ele>1169.55</ele>
        <time>2013-09-28T07:44:57Z</time>
      </trkpt>
      <trkpt lat="45.83747" lon="6.34976">
        <ele>1168.63</ele>
        <time>2013-09-28T07:45:06Z</time>
      </trkpt>
      <trkpt lat="45.83723" lon="6.34975">
        <ele>1169.26</ele>
        <time>2013-09-28T07:45:15Z</time>
      </trkpt>
      <trkpt lat="45.83702" lon="6.34958">
        <ele>1175.54</ele>
        <time>2013-09-28T07:45:24Z</time>
      </trkpt>
      <trkpt lat="45.83683" lon="6.34938">
        <ele>1177.5</ele>
        <time>2013-09-28T07:45:33Z</time>
      </trkpt>
      <trkpt lat="45.8366" lon="6.34926">
        <ele>1181.33</ele>
        <time>2013-09-28T07:45:43Z</time>
      </trkpt>
      <trkpt lat="45.83644" lon="6.34902">
        <ele>1184.99</ele>
        <time>2013-09-28T07:45:53Z</time>
      </trkpt>
      <trkpt lat="45.83622" lon="6.34889">
        <ele>1187.4</ele>
        <time>2013-09-28T07:46:03Z</time>
      </trkpt>
      <trkpt lat="45.83599" lon="6.34898">
        <ele>1193.38</ele>
        <time>2013-09-28T07:46:14Z</time>
      </trkpt>
      <trkpt lat="45.83581" lon="6.34917">
        <ele>1198.91</ele>
        <time>2013-09-28T07:46:24Z</time>
      </trkpt>
      <trkpt lat="45.83558" lon="6.34912">
        <ele>1198.29</ele>
        <time>2013-09-28T07:46:34Z</time>
      </trkpt>
      <trkpt lat="45.83536" lon="6.34898">
        <ele>1196.58</ele>
        <time>2013-09-28T07:46:45Z</time>
      </trkpt>
      <trkpt lat="45.83525" lon="6.34868">
        <ele>1197.43</ele>
        <time>2013-09-28T07:46:55Z</time>
      </trkpt>
      <trkpt lat="45.83521" lon="6.34836">
        <ele>1201.84</ele>
        <time>2013-09-28T07:47:05Z</time>
      </trkpt>
      <trkpt lat="45.83511" lon="6.34806">
        <ele>1204.18</ele>
        <time>2013-09-28T07:47:15Z</time>
      </trkpt>
      <trkpt lat="45.83495" lon="6.34782">
        <ele>1209.98</ele>
        <time>2013-09-28T07:47:25Z</time>
      </trkpt>
      <trkpt lat="45.83488" lon="6.34751">
        <ele>1211.24</ele>
        <time>2013-09-28T07:47:35Z</time>
      </trkpt>
      <trkpt lat="45.83466" lon="6.3474">
        <ele>1214.21</ele>
        <time>2013-09-28T07:47:46Z</time>
      </trkpt>
      <trkpt lat="45.83444" lon="6.34749">
        <ele>1218.42</ele>
        <time>2013-09-28T07:47:57Z</time>
      </trkpt>
      <trkpt lat="45.8342" lon="6.34755">
        <ele>1227.16</ele>
        <time>2013-09-28T07:48:09Z</time>
      </trkpt>
      <trkpt lat="45.83398" lon="6.34762">
        <ele>1232.28</ele>
        <time>2013-09-28T07:48:21Z</time>
      </trkpt>
      <trkpt lat="45.83377" lon="6.34774">
        <ele>1237.86</ele>
        <time>2013-09-28T07:48:32Z</time>
      </trkpt>
      <trkpt lat="45.83358" lon="6.34794">
        <ele>1241.09</ele>
        <time>2013-09-28T07:48:43Z</time>
      </trkpt>
      <trkpt lat="45.83343" lon="6.34821">
        <ele>1242.19</ele>
        <time>2013-09-28T07:48:54Z</time>
      </trkpt>
      <trkpt lat="45.83339" lon="6.34854">
        <ele>1246.71</ele>
        <time>2013-09-28T07:49:06Z</time>
      </trkpt>
      <trkpt lat="45.83345" lon="6.34886">
        <ele>1248.7</ele>
        <time>2013-09-28T07:49:17Z</time>
      </trkpt>
      <trkpt lat="45.83355" lon="6.34915">
        <ele>1250.99</ele>
        <time>2013-09-28T07:49:27Z</time>
      </trkpt>
      <trkpt lat="45.83365" lon="6.34945">
        <ele>1252.2</ele>
        <time>2013-09-28T07:49:35Z</time>
      </trkpt>
      <trkpt lat="45.83379" lon="6.34974">
        <ele>1254.11</ele>
        <time>2013-09-28T07:49:44Z</time>
      </trkpt>
      <trkpt lat="45.83395" lon="6.35">
        <ele>1257.12</ele>
        <time>2013-09-28T07:49:53Z</time>
      </trkpt>
      <trkpt lat="45.83408" lon="6.35027">
        <ele>1260.42</ele>
        <time>2013-09-28T07:50:02Z</time>
      </trkpt>
      <trkpt lat="45.83416" lon="6.3506">
        <ele>1262.39</ele>
        <time>2013-09-28T07:50:12Z</time>
      </trkpt>
      <trkpt lat="45.83411" lon="6.35092">
        <ele>1264.09</ele>
        <time>2013-09-28T07:50:21Z</time>
      </trkpt>
      <trkpt lat="45.83409" lon="6.35127">
        <ele>1266.63</ele>
        <time>2013-09-28T07:50:31Z</time>
      </trkpt>
      <trkpt lat="45.83416" lon="6.3516">
        <ele>1270.15</ele>
        <time>2013-09-28T07:50:41Z</time>
      </trkpt>
      <trkpt lat="45.83433" lon="6.35187">
        <ele>1272.49</ele>
        <time>2013-09-28T07:50:51Z</time>
      </trkpt>
      <trkpt lat="45.83444" lon="6.35219">
        <ele>1275.4</ele>
        <time>2013-09-28T07:51:01Z</time>
      </trkpt>
      <trkpt lat="45.8345" lon="6.3525">
        <ele>1278.49</ele>
        <time>2013-09-28T07:51:10Z</time>
      </trkpt>
      <trkpt lat="45.83462" lon="6.35281">
        <ele>1281.51</ele>
        <time>2013-09-28T07:51:20Z</time>
      </trkpt>
      <trkpt lat="45.83481" lon="6.35306">
        <ele>1282.79</ele>
        <time>2013-09-28T07:51:29Z</time>
      </trkpt>
      <trkpt lat="45.835" lon="6.35325">
        <ele>1284.78</ele>
        <time>2013-09-28T07:51:37Z</time>
      </trkpt>
      <trkpt lat="45.83519" lon="6.35346">
        <ele>1287.46</ele>
        <time>2013-09-28T07:51:45Z</time>
      </trkpt>
      <trkpt lat="45.83535" lon="6.35371">
        <ele>1288.82</ele>
        <time>2013-09-28T07:51:53Z</time>
      </trkpt>
      <trkpt lat="45.83552" lon="6.35396">
        <ele>1290.93</ele>
        <time>2013-09-28T07:52:01Z</time>
      </trkpt>
      <trkpt lat="45.83569" lon="6.35421">
        <ele>1291.71</ele>
        <time>2013-09-28T07:52:09Z</time>
      </trkpt>
      <trkpt lat="45.83584" lon="6.3545">
        <ele>1294.95</ele>
        <time>2013-09-28T07:52:18Z</time>
      </trkpt>
      <trkpt lat="45.83591" lon="6.35482">
        <ele>1297.63</ele>
        <time>2013-09-28T07:52:27Z</time>
      </trkpt>
      <trkpt lat="45.83595" lon="6.35517">
        <ele>1299.94</ele>
        <time>2013-09-28T07:52:37Z</time>
      </trkpt>
      <trkpt lat="45.83603" lon="6.35548">
        <ele>1302.58</ele>
        <time>2013-09-28T07:52:46Z</time>
      </trkpt>
      <trkpt lat="45.83613" lon="6.3558">
        <ele>1305.79</ele>
        <time>2013-09-28T07:52:56Z</time>
      </trkpt>
      <trkpt lat="45.8362" lon="6.35613">
        <ele>1307.82</ele>
        <time>2013-09-28T07:53:05Z</time>
      </trkpt>
      <trkpt lat="45.8363" lon="6.35646">
        <ele>1308.58</ele>
        <time>2013-09-28T07:53:13Z</time>
      </trkpt>
      <trkpt lat="45.83651" lon="6.35666">
        <ele>1308.52</ele>
        <time>2013-09-28T07:53:20Z</time>
      </trkpt>
      <trkpt lat="45.8367" lon="6.35684">
        <ele>1309.53</ele>
        <time>2013-09-28T07:53:27Z</time>
      </trkpt>
      <trkpt lat="45.83689" lon="6.35706">
        <ele>1310.38</ele>
        <time>2013-09-28T07:53:35Z</time>
      </trkpt>
      <trkpt lat="45.83708" lon="6.35729">
        <ele>1314.03</ele>
        <time>2013-09-28T07:53:44Z</time>
      </trkpt>
      <trkpt lat="45.83732" lon="6.35736">
        <ele>1318.02</ele>
        <time>2013-09-28T07:53:53Z</time>
      </trkpt>
      <trkpt lat="45.83755" lon="6.35722">
        <ele>1321.19</ele>
        <time>2013-09-28T07:54:01Z</time>
      </trkpt>
      <trkpt lat="45.83778" lon="6.35721">
        <ele>1324.25</ele>
        <time>2013-09-28T07:54:09Z</time>
      </trkpt>
      <trkpt lat="45.83799" lon="6.35736">
        <ele>1327.21</ele>
        <time>2013-09-28T07:54:18Z</time>
      </trkpt>
      <trkpt lat="45.83817" lon="6.35759">
        <ele>1330.91</ele>
        <time>2013-09-28T07:54:27Z</time>
      </trkpt>
      <trkpt lat="45.83835" lon="6.35781">
        <ele>1334.76</ele>
        <time>2013-09-28T07:54:37Z</time>
      </trkpt>
      <trkpt lat="45.83853" lon="6.35803">
        <ele>1336.48</ele>
        <time>2013-09-28T07:54:47Z</time>
      </trkpt>
      <trkpt lat="45.83873" lon="6.35821">
        <ele>1337.98</ele>
        <time>2013-09-28T07:54:57Z</time>
      </trkpt>
      <trkpt lat="45.83896" lon="6.3582">
        <ele>1340.44</ele>
        <time>2013-09-28T07:55:06Z</time>
      </trkpt>
      <trkpt lat="45.83918" lon="6.35811">
        <ele>1345.54</ele>
        <time>2013-09-28T07:55:15Z</time>
      </trkpt>
      <trkpt lat="45.83942" lon="6.35813">
        <ele>1349</ele>
        <time>2013-09-28T07:55:25Z</time>
      </trkpt>
      <trkpt lat="45.83965" lon="6.35814">
        <ele>1350.71</ele>
        <time>2013-09-28T07:55:36Z</time>
      </trkpt>
      <trkpt lat="45.83986" lon="6.3583">
        <ele>1352.64</ele>
        <time>2013-09-28T07:57:39Z</time>
      </trkpt>
      <trkpt lat="45.84006" lon="6.35847">
        <ele>1352.57</ele>
        <time>2013-09-28T07:57:46Z</time>
      </trkpt>
      <trkpt lat="45.84006" lon="6.35883">
        <ele>1348.39</ele>
        <time>2013-09-28T07:57:52Z</time>
      </trkpt>
      <trkpt lat="45.83989" lon="6.35928">
        <ele>1344.6</ele>
        <time>2013-09-28T07:57:57Z</time>
      </trkpt>
      <trkpt lat="45.83985" lon="6.35985">
        <ele>1339.84</ele>
        <time>2013-09-28T07:58:02Z</time>
      </trkpt>
      <trkpt lat="45.83994" lon="6.36048">
        <ele>1335.09</ele>
        <time>2013-09-28T07:58:07Z</time>
      </trkpt>
      <trkpt lat="45.84002" lon="6.36108">
        <ele>1329.27</ele>
        <time>2013-09-28T07:58:12Z</time>
      </trkpt>
      <trkpt lat="45.84029" lon="6.36167">
        <ele>1322.37</ele>
        <time>2013-09-28T07:58:17Z</time>
      </trkpt>
      <trkpt lat="45.84046" lon="6.36223">
        <ele>1315.64</ele>
        <time>2013-09-28T07:58:22Z</time>
      </trkpt>
      <trkpt lat="45.84041" lon="6.36288">
        <ele>1311.14</ele>
        <time>2013-09-28T07:58:27Z</time>
      </trkpt>
      <trkpt lat="45.84043" lon="6.36365">
        <ele>1305.8</ele>
        <time>2013-09-28T07:58:32Z</time>
      </trkpt>
      <trkpt lat="45.84057" lon="6.36432">
        <ele>1300.06</ele>
        <time>2013-09-28T07:58:37Z</time>
      </trkpt>
      <trkpt lat="45.84066" lon="6.36492">
        <ele>1295.4</ele>
        <time>2013-09-28T07:58:42Z</time>
      </trkpt>
      <trkpt lat="45.84056" lon="6.36544">
        <ele>1291.38</ele>
        <time>2013-09-28T07:58:47Z</time>
      </trkpt>
      <trkpt lat="45.84038" lon="6.36581">
        <ele>1290.48</ele>
        <time>2013-09-28T07:58:52Z</time>
      </trkpt>
      <trkpt lat="45.8403" lon="6.36618">
        <ele>1288.73</ele>
        <time>2013-09-28T07:58:57Z</time>
      </trkpt>
      <trkpt lat="45.84029" lon="6.36665">
        <ele>1286.91</ele>
        <time>2013-09-28T07:59:02Z</time>
      </trkpt>
      <trkpt lat="45.84049" lon="6.36708">
        <ele>1282.94</ele>
        <time>2013-09-28T07:59:07Z</time>
      </trkpt>
      <trkpt lat="45.84074" lon="6.36758">
        <ele>1279.09</ele>
        <time>2013-09-28T07:59:12Z</time>
      </trkpt>
      <trkpt lat="45.84102" lon="6.36797">
        <ele>1273.53</ele>
        <time>2013-09-28T07:59:17Z</time>
      </trkpt>
      <trkpt lat="45.84129" lon="6.36813">
        <ele>1269.8</ele>
        <time>2013-09-28T07:59:22Z</time>
      </trkpt>
      <trkpt lat="45.84164" lon="6.36804">
        <ele>1268.26</ele>
        <time>2013-09-28T07:59:27Z</time>
      </trkpt>
      <trkpt lat="45.84198" lon="6.36814">
        <ele>1266.82</ele>
        <time>2013-09-28T07:59:32Z</time>
      </trkpt>
      <trkpt lat="45.84232" lon="6.36847">
        <ele>1263.49</ele>
        <time>2013-09-28T07:59:37Z</time>
      </trkpt>
      <trkpt lat="45.8425" lon="6.36891">
        <ele>1260.01</ele>
        <time>2013-09-28T07:59:42Z</time>
      </trkpt>
      <trkpt lat="45.84274" lon="6.36919">
        <ele>1257.35</ele>
        <time>2013-09-28T07:59:47Z</time>
      </trkpt>
      <trkpt lat="45.84291" lon="6.36966">
        <ele>1254.16</ele>
        <time>2013-09-28T07:59:52Z</time>
      </trkpt>
      <trkpt lat="45.843" lon="6.37017">
        <ele>1252.66</ele>
        <time>2013-09-28T07:59:57Z</time>
      </trkpt>
      <trkpt lat="45.84299" lon="6.37058">
        <ele>1251.86</ele>
        <time>2013-09-28T08:00:02Z</time>
      </trkpt>
      <trkpt lat="45.84317" lon="6.37085">
        <ele>1249.43</ele>
        <time>2013-09-28T08:00:09Z</time>
      </trkpt>
      <trkpt lat="45.84337" lon="6.37113">
        <ele>1245.9</ele>
        <time>2013-09-28T08:00:14Z</time>
      </trkpt>
      <trkpt lat="45.84356" lon="6.37087">
        <ele>1239.94</ele>
        <time>2013-09-28T08:00:23Z</time>
      </trkpt>
      <trkpt lat="45.84352" lon="6.37043">
        <ele>1236.52</ele>
        <time>2013-09-28T08:00:28Z</time>
      </trkpt>
      <trkpt lat="45.84368" lon="6.36998">
        <ele>1232.52</ele>
        <time>2013-09-28T08:00:33Z</time>
      </trkpt>
      <trkpt lat="45.84375" lon="6.36954">
        <ele>1228.19</ele>
        <time>2013-09-28T08:00:38Z</time>
      </trkpt>
      <trkpt lat="45.8437" lon="6.36895">
        <ele>1224.22</ele>
        <time>2013-09-28T08:00:43Z</time>
      </trkpt>
      <trkpt lat="45.84354" lon="6.36835">
        <ele>1220.2</ele>
        <time>2013-09-28T08:00:48Z</time>
      </trkpt>
      <trkpt lat="45.84341" lon="6.36786">
        <ele>1217.67</ele>
        <time>2013-09-28T08:00:53Z</time>
      </trkpt>
      <trkpt lat="45.84321" lon="6.36734">
        <ele>1211.94</ele>
        <time>2013-09-28T08:00:58Z</time>
      </trkpt>
      <trkpt lat="45.84308" lon="6.36682">
        <ele>1206.69</ele>
        <time>2013-09-28T08:01:03Z</time>
      </trkpt>
      <trkpt lat="45.84308" lon="6.3665">
        <ele>1203.96</ele>
        <time>2013-09-28T08:01:08Z</time>
      </trkpt>
      <trkpt lat="45.84345" lon="6.3663">
        <ele>1203.65</ele>
        <time>2013-09-28T08:01:13Z</time>
      </trkpt>
      <trkpt lat="45.84386" lon="6.36595">
        <ele>1199.39</ele>
        <time>2013-09-28T08:01:18Z</time>
      </trkpt>
      <trkpt lat="45.84432" lon="6.36565">
        <ele>1192.77</ele>
        <time>2013-09-28T08:01:23Z</time>
      </trkpt>
      <trkpt lat="45.84476" lon="6.36517">
        <ele>1188.62</ele>
        <time>2013-09-28T08:01:28Z</time>
      </trkpt>
      <trkpt lat="45.84519" lon="6.36455">
        <ele>1182.93</ele>
        <time>2013-09-28T08:01:33Z</time>
      </trkpt>
      <trkpt lat="45.84556" lon="6.36405">
        <ele>1178.82</ele>
        <time>2013-09-28T08:01:38Z</time>
      </trkpt>
      <trkpt lat="45.84587" lon="6.36355">
        <ele>1173.4</ele>
        <time>2013-09-28T08:01:43Z</time>
      </trkpt>
      <trkpt lat="45.84609" lon="6.36315">
        <ele>1170.88</ele>
        <time>2013-09-28T08:01:48Z</time>
      </trkpt>
      <trkpt lat="45.84617" lon="6.36279">
        <ele>1169.05</ele>
        <time>2013-09-28T08:01:53Z</time>
      </trkpt>
      <trkpt lat="45.84627" lon="6.36247">
        <ele>1167.19</ele>
        <time>2013-09-28T08:01:58Z</time>
      </trkpt>
      <trkpt lat="45.84654" lon="6.36222">
        <ele>1161.92</ele>
        <time>2013-09-28T08:02:03Z</time>
      </trkpt>
      <trkpt lat="45.84689" lon="6.36222">
        <ele>1158.44</ele>
        <time>2013-09-28T08:02:08Z</time>
      </trkpt>
      <trkpt lat="45.84715" lon="6.3625">
        <ele>1155.88</ele>
        <time>2013-09-28T08:02:13Z</time>
      </trkpt>
      <trkpt lat="45.84714" lon="6.36301">
        <ele>1152.57</ele>
        <time>2013-09-28T08:02:18Z</time>
      </trkpt>
      <trkpt lat="45.84704" lon="6.36356">
        <ele>1150.08</ele>
        <time>2013-09-28T08:02:23Z</time>
      </trkpt>
      <trkpt lat="45.84679" lon="6.36407">
        <ele>1144</ele>
        <time>2013-09-28T08:02:28Z</time>
      </trkpt>
      <trkpt lat="45.84648" lon="6.36461">
        <ele>1138.31</ele>
        <time>2013-09-28T08:02:33Z</time>
      </trkpt>
      <trkpt lat="45.8462" lon="6.36503">
        <ele>1133.89</ele>
        <time>2013-09-28T08:02:38Z</time>
      </trkpt>
      <trkpt lat="45.84597" lon="6.36551">
        <ele>1130.02</ele>
        <time>2013-09-28T08:02:43Z</time>
      </trkpt>
      <trkpt lat="45.84584" lon="6.36601">
        <ele>1126.62</ele>
        <time>2013-09-28T08:02:48Z</time>
      </trkpt>
      <trkpt lat="45.84567" lon="6.36658">
        <ele>1124.93</ele>
        <time>2013-09-28T08:02:53Z</time>
      </trkpt>
      <trkpt lat="45.84566" lon="6.36709">
        <ele>1121</ele>
        <time>2013-09-28T08:02:58Z</time>
      </trkpt>
      <trkpt lat="45.84599" lon="6.36729">
        <ele>1116.74</ele>
        <time>2013-09-28T08:03:03Z</time>
      </trkpt>
      <trkpt lat="45.84648" lon="6.36748">
        <ele>1113.81</ele>
        <time>2013-09-28T08:03:08Z</time>
      </trkpt>
      <trkpt lat="45.84693" lon="6.36764">
        <ele>1110.45</ele>
        <time>2013-09-28T08:03:13Z</time>
      </trkpt>
      <trkpt lat="45.84722" lon="6.36815">
        <ele>1105.49</ele>
        <time>2013-09-28T08:03:18Z</time>
      </trkpt>
      <trkpt lat="45.84733" lon="6.36881">
        <ele>1103.57</ele>
        <time>2013-09-28T08:03:23Z</time>
      </trkpt>
      <trkpt lat="45.84748" lon="6.36904">
        <ele>1102.59</ele>
        <time>2013-09-28T08:03:29Z</time>
      </trkpt>
      <trkpt lat="45.84751" lon="6.36858">
        <ele>1099.1</ele>
        <time>2013-09-28T08:03:34Z</time>
      </trkpt>
      <trkpt lat="45.84773" lon="6.36882">
        <ele>1090.01</ele>
        <time>2013-09-28T08:03:40Z</time>
      </trkpt>
      <trkpt lat="45.84797" lon="6.36928">
        <ele>1082.86</ele>
        <time>2013-09-28T08:03:45Z</time>
      </trkpt>
      <trkpt lat="45.84833" lon="6.3697">
        <ele>1078.98</ele>
        <time>2013-09-28T08:03:50Z</time>
      </trkpt>
      <trkpt lat="45.84885" lon="6.36982">
        <ele>1074.38</ele>
        <time>2013-09-28T08:03:55Z</time>
      </trkpt>
      <trkpt lat="45.84943" lon="6.36985">
        <ele>1067.46</ele>
        <time>2013-09-28T08:04:00Z</time>
      </trkpt>
      <trkpt lat="45.84994" lon="6.36996">
        <ele>1058.64</ele>
        <time>2013-09-28T08:04:05Z</time>
      </trkpt>
      <trkpt lat="45.85039" lon="6.37037">
        <ele>1050.13</ele>
        <time>2013-09-28T08:04:10Z</time>
      </trkpt>
      <trkpt lat="45.85078" lon="6.37067">
        <ele>1044.73</ele>
        <time>2013-09-28T08:04:15Z</time>
      </trkpt>
      <trkpt lat="45.85103" lon="6.3706">
        <ele>1042.01</ele>
        <time>2013-09-28T08:04:20Z</time>
      </trkpt>
      <trkpt lat="45.85096" lon="6.37011">
        <ele>1036.23</ele>
        <time>2013-09-28T08:04:25Z</time>
      </trkpt>
      <trkpt lat="45.85115" lon="6.36972">
        <ele>1031.06</ele>
        <time>2013-09-28T08:04:30Z</time>
      </trkpt>
      <trkpt lat="45.85139" lon="6.36985">
        <ele>1027.34</ele>
        <time>2013-09-28T08:04:35Z</time>
      </trkpt>
      <trkpt lat="45.85152" lon="6.37017">
        <ele>1023.83</ele>
        <time>2013-09-28T08:04:40Z</time>
      </trkpt>
      <trkpt lat="45.85181" lon="6.37045">
        <ele>1019.89</ele>
        <time>2013-09-28T08:04:45Z</time>
      </trkpt>
      <trkpt lat="45.85225" lon="6.37038">
        <ele>1015.15</ele>
        <time>2013-09-28T08:04:50Z</time>
      </trkpt>
      <trkpt lat="45.85259" lon="6.37062">
        <ele>1012.22</ele>
        <time>2013-09-28T08:04:55Z</time>
      </trkpt>
      <trkpt lat="45.85293" lon="6.37113">
        <ele>1006.47</ele>
        <time>2013-09-28T08:05:00Z</time>
      </trkpt>
      <trkpt lat="45.85318" lon="6.37173">
        <ele>1001.37</ele>
        <time>2013-09-28T08:05:05Z</time>
      </trkpt>
      <trkpt lat="45.85331" lon="6.37253">
        <ele>996.96</ele>
        <time>2013-09-28T08:05:10Z</time>
      </trkpt>
      <trkpt lat="45.85339" lon="6.37317">
        <ele>993.19</ele>
        <time>2013-09-28T08:05:15Z</time>
      </trkpt>
      <trkpt lat="45.85374" lon="6.37328">
        <ele>990.11</ele>
        <time>2013-09-28T08:05:20Z</time>
      </trkpt>
      <trkpt lat="45.85416" lon="6.37322">
        <ele>986.41</ele>
        <time>2013-09-28T08:05:25Z</time>
      </trkpt>
      <trkpt lat="45.8544" lon="6.3737">
        <ele>981.27</ele>
        <time>2013-09-28T08:05:30Z</time>
      </trkpt>
      <trkpt lat="45.85442" lon="6.37449">
        <ele>973.24</ele>
        <time>2013-09-28T08:05:35Z</time>
      </trkpt>
      <trkpt lat="45.8544" lon="6.37524">
        <ele>966.1</ele>
        <time>2013-09-28T08:05:40Z</time>
      </trkpt>
      <trkpt lat="45.85443" lon="6.37582">
        <ele>961.12</ele>
        <time>2013-09-28T08:05:45Z</time>
      </trkpt>
      <trkpt lat="45.85466" lon="6.37565">
        <ele>956.29</ele>
        <time>2013-09-28T08:05:51Z</time>
      </trkpt>
      <trkpt lat="45.85486" lon="6.37516">
        <ele>952.33</ele>
        <time>2013-09-28T08:05:56Z</time>
      </trkpt>
      <trkpt lat="45.85496" lon="6.37479">
        <ele>948.67</ele>
        <time>2013-09-28T08:06:01Z</time>
      </trkpt>
      <trkpt lat="45.85519" lon="6.37515">
        <ele>944.38</ele>
        <time>2013-09-28T08:06:06Z</time>
      </trkpt>
      <trkpt lat="45.8553" lon="6.37584">
        <ele>937.94</ele>
        <time>2013-09-28T08:06:11Z</time>
      </trkpt>
      <trkpt lat="45.85537" lon="6.37655">
        <ele>931.51</ele>
        <time>2013-09-28T08:06:16Z</time>
      </trkpt>
      <trkpt lat="45.8552" lon="6.377">
        <ele>928.08</ele>
        <time>2013-09-28T08:06:21Z</time>
      </trkpt>
      <trkpt lat="45.8552" lon="6.37744">
        <ele>927.05</ele>
        <time>2013-09-28T08:06:26Z</time>
      </trkpt>
      <trkpt lat="45.85516" lon="6.37802">
        <ele>924.99</ele>
        <time>2013-09-28T08:06:31Z</time>
      </trkpt>
      <trkpt lat="45.85513" lon="6.37875">
        <ele>919.25</ele>
        <time>2013-09-28T08:06:36Z</time>
      </trkpt>
      <trkpt lat="45.85508" lon="6.37951">
        <ele>911.95</ele>
        <time>2013-09-28T08:06:41Z</time>
      </trkpt>
      <trkpt lat="45.85493" lon="6.38005">
        <ele>909.56</ele>
        <time>2013-09-28T08:06:46Z</time>
      </trkpt>
      <trkpt lat="45.8548" lon="6.3804">
        <ele>903.88</ele>
        <time>2013-09-28T08:06:51Z</time>
      </trkpt>
      <trkpt lat="45.85494" lon="6.38069">
        <ele>901.45</ele>
        <time>2013-09-28T08:06:57Z</time>
      </trkpt>
      <trkpt lat="45.85514" lon="6.38053">
        <ele>901.88</ele>
        <time>2013-09-28T08:07:03Z</time>
      </trkpt>
      <trkpt lat="45.85518" lon="6.38085">
        <ele>905.71</ele>
        <time>2013-09-28T08:07:20Z</time>
      </trkpt>
      <trkpt lat="45.85523" lon="6.38117">
        <ele>905.46</ele>
        <time>2013-09-28T08:07:29Z</time>
      </trkpt>
      <trkpt lat="45.85544" lon="6.38104">
        <ele>907.27</ele>
        <time>2013-09-28T08:07:36Z</time>
      </trkpt>
      <trkpt lat="45.85565" lon="6.38085">
        <ele>908.73</ele>
        <time>2013-09-28T08:07:44Z</time>
      </trkpt>
      <trkpt lat="45.85584" lon="6.38066">
        <ele>912.73</ele>
        <time>2013-09-28T08:07:52Z</time>
      </trkpt>
      <trkpt lat="45.85602" lon="6.38045">
        <ele>911.98</ele>
        <time>2013-09-28T08:08:02Z</time>
      </trkpt>
      <trkpt lat="45.85615" lon="6.38016">
        <ele>917.15</ele>
        <time>2013-09-28T08:08:13Z</time>
      </trkpt>
      <trkpt lat="45.85621" lon="6.37983">
        <ele>917.72</ele>
        <time>2013-09-28T08:08:24Z</time>
      </trkpt>
      <trkpt lat="45.85631" lon="6.37955">
        <ele>919.93</ele>
        <time>2013-09-28T08:08:33Z</time>
      </trkpt>
      <trkpt lat="45.85643" lon="6.37926">
        <ele>924.15</ele>
        <time>2013-09-28T08:08:43Z</time>
      </trkpt>
      <trkpt lat="45.85647" lon="6.37894">
        <ele>930.02</ele>
        <time>2013-09-28T08:08:54Z</time>
      </trkpt>
      <trkpt lat="45.85658" lon="6.37865">
        <ele>931.67</ele>
        <time>2013-09-28T08:09:08Z</time>
      </trkpt>
      <trkpt lat="45.8568" lon="6.37855">
        <ele>933.2</ele>
        <time>2013-09-28T08:09:17Z</time>
      </trkpt>
      <trkpt lat="45.85692" lon="6.37885">
        <ele>937.78</ele>
        <time>2013-09-28T08:09:26Z</time>
      </trkpt>
      <trkpt lat="45.857" lon="6.37917">
        <ele>940.22</ele>
        <time>2013-09-28T08:09:35Z</time>
      </trkpt>
      <trkpt lat="45.85707" lon="6.37949">
        <ele>943.08</ele>
        <time>2013-09-28T08:09:45Z</time>
      </trkpt>
      <trkpt lat="45.85724" lon="6.37973">
        <ele>946.44</ele>
        <time>2013-09-28T08:09:55Z</time>
      </trkpt>
      <trkpt lat="45.85738" lon="6.38002">
        <ele>950.8</ele>
        <time>2013-09-28T08:10:06Z</time>
      </trkpt>
      <trkpt lat="45.8574" lon="6.38035">
        <ele>955.18</ele>
        <time>2013-09-28T08:10:16Z</time>
      </trkpt>
      <trkpt lat="45.85745" lon="6.38067">
        <ele>958.63</ele>
        <time>2013-09-28T08:10:26Z</time>
      </trkpt>
      <trkpt lat="45.85756" lon="6.38099">
        <ele>962.92</ele>
        <time>2013-09-28T08:10:38Z</time>
      </trkpt>
      <trkpt lat="45.8577" lon="6.3813">
        <ele>965.54</ele>
        <time>2013-09-28T08:11:05Z</time>
      </trkpt>
      <trkpt lat="45.8579" lon="6.38144">
        <ele>964.02</ele>
        <time>2013-09-28T08:12:24Z</time>
      </trkpt>
      <trkpt lat="45.85812" lon="6.38154">
        <ele>964.77</ele>
        <time>2013-09-28T08:12:30Z</time>
      </trkpt>
      <trkpt lat="45.85835" lon="6.38161">
        <ele>963.5</ele>
        <time>2013-09-28T08:13:08Z</time>
      </trkpt>
      <trkpt lat="45.8586" lon="6.38166">
        <ele>963.97</ele>
        <time>2013-09-28T08:13:14Z</time>
      </trkpt>
      <trkpt lat="45.85881" lon="6.38148">
        <ele>963.74</ele>
        <time>2013-09-28T08:13:20Z</time>
      </trkpt>
      <trkpt lat="45.85889" lon="6.38115">
        <ele>962.72</ele>
        <time>2013-09-28T08:13:25Z</time>
      </trkpt>
      <trkpt lat="45.85871" lon="6.38089">
        <ele>962.55</ele>
        <time>2013-09-28T08:13:30Z</time>
      </trkpt>
      <trkpt lat="45.85857" lon="6.38054">
        <ele>962.9</ele>
        <time>2013-09-28T08:13:35Z</time>
      </trkpt>
      <trkpt lat="45.85853" lon="6.38018">
        <ele>964.61</ele>
        <time>2013-09-28T08:13:40Z</time>
      </trkpt>
      <trkpt lat="45.85847" lon="6.37983">
        <ele>964.85</ele>
        <time>2013-09-28T08:13:45Z</time>
      </trkpt>
      <trkpt lat="45.85841" lon="6.3795">
        <ele>965.58</ele>
        <time>2013-09-28T08:13:50Z</time>
      </trkpt>
      <trkpt lat="45.85844" lon="6.3791">
        <ele>966.32</ele>
        <time>2013-09-28T08:13:55Z</time>
      </trkpt>
      <trkpt lat="45.85846" lon="6.37863">
        <ele>966.61</ele>
        <time>2013-09-28T08:14:00Z</time>
      </trkpt>
      <trkpt lat="45.85843" lon="6.37816">
        <ele>967.44</ele>
        <time>2013-09-28T08:14:05Z</time>
      </trkpt>
      <trkpt lat="45.85838" lon="6.37774">
        <ele>967.9</ele>
        <time>2013-09-28T08:14:10Z</time>
      </trkpt>
      <trkpt lat="45.85843" lon="6.37732">
        <ele>968</ele>
        <time>2013-09-28T08:14:15Z</time>
      </trkpt>
      <trkpt lat="45.8585" lon="6.3769">
        <ele>967.92</ele>
        <time>2013-09-28T08:14:20Z</time>
      </trkpt>
      <trkpt lat="45.85852" lon="6.37649">
        <ele>968.49</ele>
        <time>2013-09-28T08:14:25Z</time>
      </trkpt>
      <trkpt lat="45.85854" lon="6.37602">
        <ele>967.47</ele>
        <time>2013-09-28T08:14:30Z</time>
      </trkpt>
      <trkpt lat="45.85853" lon="6.3755">
        <ele>966.44</ele>
        <time>2013-09-28T08:14:35Z</time>
      </trkpt>
      <trkpt lat="45.85854" lon="6.37491">
        <ele>964.18</ele>
        <time>2013-09-28T08:14:40Z</time>
      </trkpt>
      <trkpt lat="45.85866" lon="6.37434">
        <ele>964.03</ele>
        <time>2013-09-28T08:14:45Z</time>
      </trkpt>
      <trkpt lat="45.85891" lon="6.37316">
        <ele>964.99</ele>
        <time>2013-09-28T08:14:55Z</time>
      </trkpt>
      <trkpt lat="45.85901" lon="6.3727">
        <ele>967.28</ele>
        <time>2013-09-28T08:15:01Z</time>
      </trkpt>
      <trkpt lat="45.85914" lon="6.37221">
        <ele>967.65</ele>
        <time>2013-09-28T08:15:06Z</time>
      </trkpt>
      <trkpt lat="45.85924" lon="6.37175">
        <ele>968.97</ele>
        <time>2013-09-28T08:15:11Z</time>
      </trkpt>
      <trkpt lat="45.85923" lon="6.37138">
        <ele>970.14</ele>
        <time>2013-09-28T08:15:16Z</time>
      </trkpt>
      <trkpt lat="45.85925" lon="6.37105">
        <ele>971.41</ele>
        <time>2013-09-28T08:15:21Z</time>
      </trkpt>
      <trkpt lat="45.85944" lon="6.37079">
        <ele>971.82</ele>
        <time>2013-09-28T08:15:26Z</time>
      </trkpt>
      <trkpt lat="45.85965" lon="6.37053">
        <ele>972.47</ele>
        <time>2013-09-28T08:15:31Z</time>
      </trkpt>
      <trkpt lat="45.85985" lon="6.3703">
        <ele>973.7</ele>
        <time>2013-09-28T08:15:36Z</time>
      </trkpt>
      <trkpt lat="45.86006" lon="6.37016">
        <ele>976.63</ele>
        <time>2013-09-28T08:15:41Z</time>
      </trkpt>
      <trkpt lat="45.86031" lon="6.37005">
        <ele>979.01</ele>
        <time>2013-09-28T08:15:46Z</time>
      </trkpt>
      <trkpt lat="45.86053" lon="6.36998">
        <ele>980.58</ele>
        <time>2013-09-28T08:15:51Z</time>
      </trkpt>
      <trkpt lat="45.86076" lon="6.36982">
        <ele>982.85</ele>
        <time>2013-09-28T08:15:57Z</time>
      </trkpt>
      <trkpt lat="45.86094" lon="6.36956">
        <ele>983.36</ele>
        <time>2013-09-28T08:16:04Z</time>
      </trkpt>
      <trkpt lat="45.86115" lon="6.3694">
        <ele>982.67</ele>
        <time>2013-09-28T08:16:11Z</time>
      </trkpt>
      <trkpt lat="45.8613" lon="6.36965">
        <ele>985.01</ele>
        <time>2013-09-28T08:16:21Z</time>
      </trkpt>
      <trkpt lat="45.86113" lon="6.36987">
        <ele>987.95</ele>
        <time>2013-09-28T08:16:27Z</time>
      </trkpt>
      <trkpt lat="45.86095" lon="6.37009">
        <ele>988.68</ele>
        <time>2013-09-28T08:16:34Z</time>
      </trkpt>
      <trkpt lat="45.86071" lon="6.37021">
        <ele>986.26</ele>
        <time>2013-09-28T08:16:39Z</time>
      </trkpt>
      <trkpt lat="45.86049" lon="6.37035">
        <ele>989.88</ele>
        <time>2013-09-28T08:16:44Z</time>
      </trkpt>
      <trkpt lat="45.86036" lon="6.37063">
        <ele>994.08</ele>
        <time>2013-09-28T08:16:51Z</time>
      </trkpt>
      <trkpt lat="45.86029" lon="6.37095">
        <ele>996.92</ele>
        <time>2013-09-28T08:16:58Z</time>
      </trkpt>
      <trkpt lat="45.86019" lon="6.37124">
        <ele>999.05</ele>
        <time>2013-09-28T08:17:04Z</time>
      </trkpt>
      <trkpt lat="45.86006" lon="6.37153">
        <ele>999.28</ele>
        <time>2013-09-28T08:17:09Z</time>
      </trkpt>
      <trkpt lat="45.85994" lon="6.37183">
        <ele>1000.22</ele>
        <time>2013-09-28T08:17:14Z</time>
      </trkpt>
      <trkpt lat="45.85982" lon="6.37215">
        <ele>1000.14</ele>
        <time>2013-09-28T08:17:19Z</time>
      </trkpt>
      <trkpt lat="45.85974" lon="6.37249">
        <ele>1001</ele>
        <time>2013-09-28T08:17:24Z</time>
      </trkpt>
      <trkpt lat="45.85966" lon="6.3728">
        <ele>1001.92</ele>
        <time>2013-09-28T08:17:29Z</time>
      </trkpt>
      <trkpt lat="45.85957" lon="6.37313">
        <ele>1002.92</ele>
        <time>2013-09-28T08:17:34Z</time>
      </trkpt>
      <trkpt lat="45.85951" lon="6.37348">
        <ele>1003.05</ele>
        <time>2013-09-28T08:17:39Z</time>
      </trkpt>
      <trkpt lat="45.85949" lon="6.37386">
        <ele>1003.01</ele>
        <time>2013-09-28T08:17:44Z</time>
      </trkpt>
      <trkpt lat="45.85958" lon="6.37423">
        <ele>1004.35</ele>
        <time>2013-09-28T08:17:49Z</time>
      </trkpt>
      <trkpt lat="45.85973" lon="6.37455">
        <ele>1005.29</ele>
        <time>2013-09-28T08:17:54Z</time>
      </trkpt>
      <trkpt lat="45.85983" lon="6.37488">
        <ele>1006.3</ele>
        <time>2013-09-28T08:17:59Z</time>
      </trkpt>
      <trkpt lat="45.8598" lon="6.37526">
        <ele>1007.63</ele>
        <time>2013-09-28T08:18:05Z</time>
      </trkpt>
      <trkpt lat="45.85993" lon="6.37555">
        <ele>1010.83</ele>
        <time>2013-09-28T08:18:12Z</time>
      </trkpt>
      <trkpt lat="45.86011" lon="6.37535">
        <ele>1011.45</ele>
        <time>2013-09-28T08:18:18Z</time>
      </trkpt>
      <trkpt lat="45.86014" lon="6.37501">
        <ele>1012.39</ele>
        <time>2013-09-28T08:18:24Z</time>
      </trkpt>
      <trkpt lat="45.8602" lon="6.37467">
        <ele>1014.61</ele>
        <time>2013-09-28T08:18:31Z</time>
      </trkpt>
      <trkpt lat="45.86028" lon="6.37435">
        <ele>1015.06</ele>
        <time>2013-09-28T08:18:38Z</time>
      </trkpt>
      <trkpt lat="45.86038" lon="6.37405">
        <ele>1016.49</ele>
        <time>2013-09-28T08:18:45Z</time>
      </trkpt>
      <trkpt lat="45.86051" lon="6.37377">
        <ele>1018.33</ele>
        <time>2013-09-28T08:18:52Z</time>
      </trkpt>
      <trkpt lat="45.86064" lon="6.37346">
        <ele>1021.15</ele>
        <time>2013-09-28T08:19:00Z</time>
      </trkpt>
      <trkpt lat="45.86077" lon="6.37316">
        <ele>1023.85</ele>
        <time>2013-09-28T08:19:09Z</time>
      </trkpt>
      <trkpt lat="45.86093" lon="6.37289">
        <ele>1028.57</ele>
        <time>2013-09-28T08:19:18Z</time>
      </trkpt>
      <trkpt lat="45.86111" lon="6.37267">
        <ele>1031.71</ele>
        <time>2013-09-28T08:19:27Z</time>
      </trkpt>
      <trkpt lat="45.86129" lon="6.37245">
        <ele>1034.39</ele>
        <time>2013-09-28T08:19:36Z</time>
      </trkpt>
      <trkpt lat="45.86147" lon="6.37225">
        <ele>1037.76</ele>
        <time>2013-09-28T08:19:45Z</time>
      </trkpt>
      <trkpt lat="45.86168" lon="6.37209">
        <ele>1040.6</ele>
        <time>2013-09-28T08:19:54Z</time>
      </trkpt>
      <trkpt lat="45.86189" lon="6.37193">
        <ele>1044.24</ele>
        <time>2013-09-28T08:20:03Z</time>
      </trkpt>
      <trkpt lat="45.8621" lon="6.37179">
        <ele>1047.32</ele>
        <time>2013-09-28T08:20:12Z</time>
      </trkpt>
      <trkpt lat="45.86229" lon="6.37161">
        <ele>1050.62</ele>
        <time>2013-09-28T08:20:21Z</time>
      </trkpt>
      <trkpt lat="45.86247" lon="6.37139">
        <ele>1053.1</ele>
        <time>2013-09-28T08:20:30Z</time>
      </trkpt>
      <trkpt lat="45.86267" lon="6.37123">
        <ele>1055.52</ele>
        <time>2013-09-28T08:20:39Z</time>
      </trkpt>
      <trkpt lat="45.86263" lon="6.37155">
        <ele>1058.83</ele>
        <time>2013-09-28T08:20:48Z</time>
      </trkpt>
      <trkpt lat="45.86255" lon="6.37185">
        <ele>1062.06</ele>
        <time>2013-09-28T08:20:56Z</time>
      </trkpt>
      <trkpt lat="45.86253" lon="6.37221">
        <ele>1065.13</ele>
        <time>2013-09-28T08:21:05Z</time>
      </trkpt>
      <trkpt lat="45.86245" lon="6.37254">
        <ele>1068.03</ele>
        <time>2013-09-28T08:21:14Z</time>
      </trkpt>
      <trkpt lat="45.86228" lon="6.37279">
        <ele>1071.6</ele>
        <time>2013-09-28T08:21:23Z</time>
      </trkpt>
      <trkpt lat="45.86213" lon="6.37304">
        <ele>1073.85</ele>
        <time>2013-09-28T08:21:31Z</time>
      </trkpt>
      <trkpt lat="45.86207" lon="6.37337">
        <ele>1076.09</ele>
        <time>2013-09-28T08:21:40Z</time>
      </trkpt>
      <trkpt lat="45.86207" lon="6.37371">
        <ele>1078.31</ele>
        <time>2013-09-28T08:21:49Z</time>
      </trkpt>
      <trkpt lat="45.86207" lon="6.37403">
        <ele>1081.5</ele>
        <time>2013-09-28T08:21:58Z</time>
      </trkpt>
      <trkpt lat="45.86204" lon="6.37436">
        <ele>1081.92</ele>
        <time>2013-09-28T08:22:07Z</time>
      </trkpt>
      <trkpt lat="45.86202" lon="6.37468">
        <ele>1083.76</ele>
        <time>2013-09-28T08:22:16Z</time>
      </trkpt>
      <trkpt lat="45.86206" lon="6.37504">
        <ele>1086.99</ele>
        <time>2013-09-28T08:22:26Z</time>
      </trkpt>
      <trkpt lat="45.86216" lon="6.37534">
        <ele>1088.91</ele>
        <time>2013-09-28T08:22:35Z</time>
      </trkpt>
      <trkpt lat="45.86223" lon="6.37567">
        <ele>1090.03</ele>
        <time>2013-09-28T08:22:44Z</time>
      </trkpt>
      <trkpt lat="45.86224" lon="6.37601">
        <ele>1093.24</ele>
        <time>2013-09-28T08:22:53Z</time>
      </trkpt>
      <trkpt lat="45.86224" lon="6.37636">
        <ele>1096.03</ele>
        <time>2013-09-28T08:23:02Z</time>
      </trkpt>
      <trkpt lat="45.86223" lon="6.3767">
        <ele>1098.5</ele>
        <time>2013-09-28T08:23:11Z</time>
      </trkpt>
      <trkpt lat="45.86228" lon="6.37705">
        <ele>1101.97</ele>
        <time>2013-09-28T08:23:20Z</time>
      </trkpt>
      <trkpt lat="45.86237" lon="6.37735">
        <ele>1102.17</ele>
        <time>2013-09-28T08:23:28Z</time>
      </trkpt>
      <trkpt lat="45.86248" lon="6.37765">
        <ele>1103.77</ele>
        <time>2013-09-28T08:23:36Z</time>
      </trkpt>
      <trkpt lat="45.8626" lon="6.37795">
        <ele>1105.09</ele>
        <time>2013-09-28T08:23:44Z</time>
      </trkpt>
      <trkpt lat="45.86274" lon="6.37823">
        <ele>1107.36</ele>
        <time>2013-09-28T08:23:52Z</time>
      </trkpt>
      <trkpt lat="45.86288" lon="6.37851">
        <ele>1108.79</ele>
        <time>2013-09-28T08:24:00Z</time>
      </trkpt>
      <trkpt lat="45.86299" lon="6.37883">
        <ele>1108.74</ele>
        <time>2013-09-28T08:24:08Z</time>
      </trkpt>
      <trkpt lat="45.86302" lon="6.37915">
        <ele>1115.21</ele>
        <time>2013-09-28T08:24:16Z</time>
      </trkpt>
      <trkpt lat="45.86302" lon="6.37948">
        <ele>1118.52</ele>
        <time>2013-09-28T08:24:24Z</time>
      </trkpt>
      <trkpt lat="45.86307" lon="6.3798">
        <ele>1120.65</ele>
        <time>2013-09-28T08:24:32Z</time>
      </trkpt>
      <trkpt lat="45.86319" lon="6.38008">
        <ele>1121.61</ele>
        <time>2013-09-28T08:24:40Z</time>
      </trkpt>
      <trkpt lat="45.86332" lon="6.38036">
        <ele>1122.85</ele>
        <time>2013-09-28T08:24:47Z</time>
      </trkpt>
      <trkpt lat="45.8635" lon="6.38057">
        <ele>1123.54</ele>
        <time>2013-09-28T08:24:54Z</time>
      </trkpt>
      <trkpt lat="45.86366" lon="6.3803">
        <ele>1127.55</ele>
        <time>2013-09-28T08:25:03Z</time>
      </trkpt>
      <trkpt lat="45.86361" lon="6.37997">
        <ele>1129.07</ele>
        <time>2013-09-28T08:25:11Z</time>
      </trkpt>
      <trkpt lat="45.86364" lon="6.37964">
        <ele>1131.74</ele>
        <time>2013-09-28T08:25:19Z</time>
      </trkpt>
      <trkpt lat="45.8637" lon="6.37933">
        <ele>1134.29</ele>
        <time>2013-09-28T08:25:28Z</time>
      </trkpt>
      <trkpt lat="45.86377" lon="6.37899">
        <ele>1137.67</ele>
        <time>2013-09-28T08:25:38Z</time>
      </trkpt>
      <trkpt lat="45.86382" lon="6.37865">
        <ele>1140.06</ele>
        <time>2013-09-28T08:25:48Z</time>
      </trkpt>
      <trkpt lat="45.86385" lon="6.37829">
        <ele>1142.69</ele>
        <time>2013-09-28T08:25:58Z</time>
      </trkpt>
      <trkpt lat="45.86394" lon="6.37797">
        <ele>1145.38</ele>
        <time>2013-09-28T08:26:07Z</time>
      </trkpt>
      <trkpt lat="45.86405" lon="6.37766">
        <ele>1148.82</ele>
        <time>2013-09-28T08:26:16Z</time>
      </trkpt>
      <trkpt lat="45.86416" lon="6.37736">
        <ele>1151.32</ele>
        <time>2013-09-28T08:26:25Z</time>
      </trkpt>
      <trkpt lat="45.86424" lon="6.37706">
        <ele>1153.58</ele>
        <time>2013-09-28T08:26:34Z</time>
      </trkpt>
      <trkpt lat="45.86429" lon="6.37671">
        <ele>1156.53</ele>
        <time>2013-09-28T08:26:44Z</time>
      </trkpt>
      <trkpt lat="45.86433" lon="6.37636">
        <ele>1159.1</ele>
        <time>2013-09-28T08:26:54Z</time>
      </trkpt>
      <trkpt lat="45.86439" lon="6.37605">
        <ele>1160.81</ele>
        <time>2013-09-28T08:27:03Z</time>
      </trkpt>
      <trkpt lat="45.8645" lon="6.37577">
        <ele>1163.87</ele>
        <time>2013-09-28T08:27:12Z</time>
      </trkpt>
      <trkpt lat="45.86472" lon="6.37566">
        <ele>1167.93</ele>
        <time>2013-09-28T08:27:21Z</time>
      </trkpt>
      <trkpt lat="45.86491" lon="6.37545">
        <ele>1172.03</ele>
        <time>2013-09-28T08:27:31Z</time>
      </trkpt>
      <trkpt lat="45.86499" lon="6.37512">
        <ele>1174.63</ele>
        <time>2013-09-28T08:27:41Z</time>
      </trkpt>
      <trkpt lat="45.86507" lon="6.37482">
        <ele>1176.47</ele>
        <time>2013-09-28T08:27:51Z</time>
      </trkpt>
      <trkpt lat="45.8652" lon="6.37452">
        <ele>1178.81</ele>
        <time>2013-09-28T08:28:02Z</time>
      </trkpt>
      <trkpt lat="45.86536" lon="6.37428">
        <ele>1181.39</ele>
        <time>2013-09-28T08:28:12Z</time>
      </trkpt>
      <trkpt lat="45.86557" lon="6.37412">
        <ele>1183.63</ele>
        <time>2013-09-28T08:28:22Z</time>
      </trkpt>
      <trkpt lat="45.86577" lon="6.37396">
        <ele>1186.53</ele>
        <time>2013-09-28T08:28:32Z</time>
      </trkpt>
      <trkpt lat="45.86596" lon="6.37377">
        <ele>1190.14</ele>
        <time>2013-09-28T08:28:43Z</time>
      </trkpt>
      <trkpt lat="45.86601" lon="6.37409">
        <ele>1197.87</ele>
        <time>2013-09-28T08:29:04Z</time>
      </trkpt>
      <trkpt lat="45.8659" lon="6.3744">
        <ele>1200.16</ele>
        <time>2013-09-28T08:29:14Z</time>
      </trkpt>
      <trkpt lat="45.86589" lon="6.37474">
        <ele>1202.83</ele>
        <time>2013-09-28T08:29:24Z</time>
      </trkpt>
      <trkpt lat="45.86591" lon="6.37508">
        <ele>1204.83</ele>
        <time>2013-09-28T08:29:34Z</time>
      </trkpt>
      <trkpt lat="45.86595" lon="6.37542">
        <ele>1207.25</ele>
        <time>2013-09-28T08:29:44Z</time>
      </trkpt>
      <trkpt lat="45.86602" lon="6.37573">
        <ele>1208.98</ele>
        <time>2013-09-28T08:29:53Z</time>
      </trkpt>
      <trkpt lat="45.86609" lon="6.37607">
        <ele>1212.03</ele>
        <time>2013-09-28T08:30:03Z</time>
      </trkpt>
      <trkpt lat="45.86612" lon="6.3764">
        <ele>1214.81</ele>
        <time>2013-09-28T08:30:13Z</time>
      </trkpt>
      <trkpt lat="45.86618" lon="6.37673">
        <ele>1218.56</ele>
        <time>2013-09-28T08:30:23Z</time>
      </trkpt>
      <trkpt lat="45.86626" lon="6.37706">
        <ele>1220.05</ele>
        <time>2013-09-28T08:30:33Z</time>
      </trkpt>
      <trkpt lat="45.86634" lon="6.3774">
        <ele>1222.21</ele>
        <time>2013-09-28T08:30:43Z</time>
      </trkpt>
      <trkpt lat="45.86641" lon="6.37771">
        <ele>1225.04</ele>
        <time>2013-09-28T08:30:52Z</time>
      </trkpt>
      <trkpt lat="45.86649" lon="6.37803">
        <ele>1227.42</ele>
        <time>2013-09-28T08:31:01Z</time>
      </trkpt>
      <trkpt lat="45.8666" lon="6.37833">
        <ele>1229.2</ele>
        <time>2013-09-28T08:31:11Z</time>
      </trkpt>
      <trkpt lat="45.86673" lon="6.37861">
        <ele>1229.67</ele>
        <time>2013-09-28T08:31:20Z</time>
      </trkpt>
      <trkpt lat="45.86687" lon="6.37889">
        <ele>1234.16</ele>
        <time>2013-09-28T08:31:30Z</time>
      </trkpt>
      <trkpt lat="45.86704" lon="6.37913">
        <ele>1238.32</ele>
        <time>2013-09-28T08:31:40Z</time>
      </trkpt>
      <trkpt lat="45.86718" lon="6.37943">
        <ele>1242.91</ele>
        <time>2013-09-28T08:31:51Z</time>
      </trkpt>
      <trkpt lat="45.86734" lon="6.37969">
        <ele>1246.72</ele>
        <time>2013-09-28T08:32:01Z</time>
      </trkpt>
      <trkpt lat="45.86751" lon="6.37993">
        <ele>1248.79</ele>
        <time>2013-09-28T08:32:11Z</time>
      </trkpt>
      <trkpt lat="45.86772" lon="6.38009">
        <ele>1252.55</ele>
        <time>2013-09-28T08:32:22Z</time>
      </trkpt>
      <trkpt lat="45.86777" lon="6.37976">
        <ele>1255.73</ele>
        <time>2013-09-28T08:32:32Z</time>
      </trkpt>
      <trkpt lat="45.86773" lon="6.37941">
        <ele>1255.15</ele>
        <time>2013-09-28T08:32:41Z</time>
      </trkpt>
      <trkpt lat="45.86768" lon="6.37907">
        <ele>1258.19</ele>
        <time>2013-09-28T08:32:49Z</time>
      </trkpt>
      <trkpt lat="45.8676" lon="6.37877">
        <ele>1259.76</ele>
        <time>2013-09-28T08:32:57Z</time>
      </trkpt>
      <trkpt lat="45.86755" lon="6.37845">
        <ele>1262.03</ele>
        <time>2013-09-28T08:33:05Z</time>
      </trkpt>
      <trkpt lat="45.8675" lon="6.37812">
        <ele>1263.12</ele>
        <time>2013-09-28T08:33:13Z</time>
      </trkpt>
      <trkpt lat="45.86745" lon="6.37779">
        <ele>1265.94</ele>
        <time>2013-09-28T08:33:21Z</time>
      </trkpt>
      <trkpt lat="45.86753" lon="6.37748">
        <ele>1267.33</ele>
        <time>2013-09-28T08:33:29Z</time>
      </trkpt>
      <trkpt lat="45.86768" lon="6.37721">
        <ele>1267.69</ele>
        <time>2013-09-28T08:33:37Z</time>
      </trkpt>
      <trkpt lat="45.86787" lon="6.37699">
        <ele>1269.45</ele>
        <time>2013-09-28T08:33:45Z</time>
      </trkpt>
      <trkpt lat="45.86809" lon="6.37683">
        <ele>1270.65</ele>
        <time>2013-09-28T08:33:53Z</time>
      </trkpt>
      <trkpt lat="45.86832" lon="6.37674">
        <ele>1272.77</ele>
        <time>2013-09-28T08:34:01Z</time>
      </trkpt>
      <trkpt lat="45.86851" lon="6.37655">
        <ele>1275.15</ele>
        <time>2013-09-28T08:34:09Z</time>
      </trkpt>
      <trkpt lat="45.8686" lon="6.37624">
        <ele>1276.38</ele>
        <time>2013-09-28T08:34:17Z</time>
      </trkpt>
      <trkpt lat="45.86868" lon="6.37591">
        <ele>1278.94</ele>
        <time>2013-09-28T08:34:25Z</time>
      </trkpt>
      <trkpt lat="45.86882" lon="6.37565">
        <ele>1280.78</ele>
        <time>2013-09-28T08:34:33Z</time>
      </trkpt>
      <trkpt lat="45.86903" lon="6.37551">
        <ele>1282.6</ele>
        <time>2013-09-28T08:34:41Z</time>
      </trkpt>
      <trkpt lat="45.86926" lon="6.37546">
        <ele>1284.54</ele>
        <time>2013-09-28T08:34:49Z</time>
      </trkpt>
      <trkpt lat="45.86949" lon="6.37541">
        <ele>1287.27</ele>
        <time>2013-09-28T08:34:57Z</time>
      </trkpt>
      <trkpt lat="45.86972" lon="6.37533">
        <ele>1288.86</ele>
        <time>2013-09-28T08:35:05Z</time>
      </trkpt>
      <trkpt lat="45.86997" lon="6.37531">
        <ele>1291.95</ele>
        <time>2013-09-28T08:35:13Z</time>
      </trkpt>
      <trkpt lat="45.87019" lon="6.37525">
        <ele>1293.47</ele>
        <time>2013-09-28T08:35:20Z</time>
      </trkpt>
      <trkpt lat="45.8704" lon="6.3751">
        <ele>1293.86</ele>
        <time>2013-09-28T08:35:27Z</time>
      </trkpt>
      <trkpt lat="45.87054" lon="6.37482">
        <ele>1295.2</ele>
        <time>2013-09-28T08:35:34Z</time>
      </trkpt>
      <trkpt lat="45.87066" lon="6.37454">
        <ele>1296.38</ele>
        <time>2013-09-28T08:35:41Z</time>
      </trkpt>
      <trkpt lat="45.87083" lon="6.37432">
        <ele>1297.67</ele>
        <time>2013-09-28T08:35:48Z</time>
      </trkpt>
      <trkpt lat="45.87104" lon="6.37414">
        <ele>1299.81</ele>
        <time>2013-09-28T08:35:56Z</time>
      </trkpt>
      <trkpt lat="45.87118" lon="6.37385">
        <ele>1301.57</ele>
        <time>2013-09-28T08:36:04Z</time>
      </trkpt>
      <trkpt lat="45.87125" lon="6.37351">
        <ele>1303.83</ele>
        <time>2013-09-28T08:36:12Z</time>
      </trkpt>
      <trkpt lat="45.87146" lon="6.37339">
        <ele>1306.39</ele>
        <time>2013-09-28T08:36:21Z</time>
      </trkpt>
      <trkpt lat="45.87148" lon="6.37374">
        <ele>1308.45</ele>
        <time>2013-09-28T08:36:28Z</time>
      </trkpt>
      <trkpt lat="45.87144" lon="6.37407">
        <ele>1309.51</ele>
        <time>2013-09-28T08:36:35Z</time>
      </trkpt>
      <trkpt lat="45.87142" lon="6.3744">
        <ele>1311.06</ele>
        <time>2013-09-28T08:36:42Z</time>
      </trkpt>
      <trkpt lat="45.87139" lon="6.37475">
        <ele>1314.24</ele>
        <time>2013-09-28T08:36:50Z</time>
      </trkpt>
      <trkpt lat="45.87135" lon="6.37508">
        <ele>1315.67</ele>
        <time>2013-09-28T08:36:58Z</time>
      </trkpt>
      <trkpt lat="45.87128" lon="6.37539">
        <ele>1318.16</ele>
        <time>2013-09-28T08:37:06Z</time>
      </trkpt>
      <trkpt lat="45.87119" lon="6.37569">
        <ele>1320.23</ele>
        <time>2013-09-28T08:37:14Z</time>
      </trkpt>
      <trkpt lat="45.87113" lon="6.376">
        <ele>1322.73</ele>
        <time>2013-09-28T08:37:22Z</time>
      </trkpt>
      <trkpt lat="45.87113" lon="6.37633">
        <ele>1324.03</ele>
        <time>2013-09-28T08:37:30Z</time>
      </trkpt>
      <trkpt lat="45.87115" lon="6.37666">
        <ele>1326.08</ele>
        <time>2013-09-28T08:37:38Z</time>
      </trkpt>
      <trkpt lat="45.8712" lon="6.37699">
        <ele>1328.52</ele>
        <time>2013-09-28T08:37:46Z</time>
      </trkpt>
      <trkpt lat="45.87123" lon="6.37732">
        <ele>1330.78</ele>
        <time>2013-09-28T08:37:54Z</time>
      </trkpt>
      <trkpt lat="45.87122" lon="6.37766">
        <ele>1332.63</ele>
        <time>2013-09-28T08:38:02Z</time>
      </trkpt>
      <trkpt lat="45.87119" lon="6.37801">
        <ele>1334.7</ele>
        <time>2013-09-28T08:38:10Z</time>
      </trkpt>
      <trkpt lat="45.87114" lon="6.37835">
        <ele>1336.85</ele>
        <time>2013-09-28T08:38:18Z</time>
      </trkpt>
      <trkpt lat="45.87109" lon="6.37867">
        <ele>1340.1</ele>
        <time>2013-09-28T08:38:26Z</time>
      </trkpt>
      <trkpt lat="45.87104" lon="6.37899">
        <ele>1342.15</ele>
        <time>2013-09-28T08:38:34Z</time>
      </trkpt>
      <trkpt lat="45.87097" lon="6.37931">
        <ele>1345.3</ele>
        <time>2013-09-28T08:38:42Z</time>
      </trkpt>
      <trkpt lat="45.87091" lon="6.37963">
        <ele>1347.42</ele>
        <time>2013-09-28T08:38:50Z</time>
      </trkpt>
      <trkpt lat="45.87088" lon="6.37997">
        <ele>1347.68</ele>
        <time>2013-09-28T08:38:58Z</time>
      </trkpt>
      <trkpt lat="45.87093" lon="6.38031">
        <ele>1349.78</ele>
        <time>2013-09-28T08:39:06Z</time>
      </trkpt>
      <trkpt lat="45.87101" lon="6.38064">
        <ele>1351.44</ele>
        <time>2013-09-28T08:39:14Z</time>
      </trkpt>
      <trkpt lat="45.8711" lon="6.38096">
        <ele>1352.5</ele>
        <time>2013-09-28T08:39:22Z</time>
      </trkpt>
      <trkpt lat="45.87122" lon="6.38127">
        <ele>1353.69</ele>
        <time>2013-09-28T08:39:30Z</time>
      </trkpt>
      <trkpt lat="45.87135" lon="6.38155">
        <ele>1355.1</ele>
        <time>2013-09-28T08:39:37Z</time>
      </trkpt>
      <trkpt lat="45.87149" lon="6.38186">
        <ele>1357.4</ele>
        <time>2013-09-28T08:39:45Z</time>
      </trkpt>
      <trkpt lat="45.87163" lon="6.38215">
        <ele>1358.95</ele>
        <time>2013-09-28T08:39:53Z</time>
      </trkpt>
      <trkpt lat="45.87176" lon="6.38246">
        <ele>1360.58</ele>
        <time>2013-09-28T08:40:01Z</time>
      </trkpt>
      <trkpt lat="45.87183" lon="6.38278">
        <ele>1363.72</ele>
        <time>2013-09-28T08:40:09Z</time>
      </trkpt>
      <trkpt lat="45.87179" lon="6.38312">
        <ele>1366.32</ele>
        <time>2013-09-28T08:40:17Z</time>
      </trkpt>
      <trkpt lat="45.87184" lon="6.38345">
        <ele>1368.34</ele>
        <time>2013-09-28T08:40:25Z</time>
      </trkpt>
      <trkpt lat="45.8719" lon="6.3838">
        <ele>1370.48</ele>
        <time>2013-09-28T08:40:33Z</time>
      </trkpt>
      <trkpt lat="45.87186" lon="6.38413">
        <ele>1372.19</ele>
        <time>2013-09-28T08:40:41Z</time>
      </trkpt>
      <trkpt lat="45.87172" lon="6.38441">
        <ele>1374.64</ele>
        <time>2013-09-28T08:40:49Z</time>
      </trkpt>
      <trkpt lat="45.87161" lon="6.38472">
        <ele>1377.34</ele>
        <time>2013-09-28T08:40:57Z</time>
      </trkpt>
      <trkpt lat="45.87158" lon="6.38507">
        <ele>1379.02</ele>
        <time>2013-09-28T08:41:05Z</time>
      </trkpt>
      <trkpt lat="45.87159" lon="6.38541">
        <ele>1381.64</ele>
        <time>2013-09-28T08:41:13Z</time>
      </trkpt>
      <trkpt lat="45.87161" lon="6.38573">
        <ele>1382.45</ele>
        <time>2013-09-28T08:41:21Z</time>
      </trkpt>
      <trkpt lat="45.87169" lon="6.38605">
        <ele>1383.5</ele>
        <time>2013-09-28T08:41:29Z</time>
      </trkpt>
      <trkpt lat="45.87178" lon="6.38637">
        <ele>1385.11</ele>
        <time>2013-09-28T08:41:37Z</time>
      </trkpt>
      <trkpt lat="45.87189" lon="6.38668">
        <ele>1386.61</ele>
        <time>2013-09-28T08:41:45Z</time>
      </trkpt>
      <trkpt lat="45.87197" lon="6.38702">
        <ele>1388.01</ele>
        <time>2013-09-28T08:41:53Z</time>
      </trkpt>
      <trkpt lat="45.87192" lon="6.38735">
        <ele>1390.27</ele>
        <time>2013-09-28T08:42:01Z</time>
      </trkpt>
      <trkpt lat="45.87182" lon="6.38764">
        <ele>1393.98</ele>
        <time>2013-09-28T08:42:09Z</time>
      </trkpt>
      <trkpt lat="45.87175" lon="6.38795">
        <ele>1396.53</ele>
        <time>2013-09-28T08:42:17Z</time>
      </trkpt>
      <trkpt lat="45.87173" lon="6.38828">
        <ele>1398.14</ele>
        <time>2013-09-28T08:42:25Z</time>
      </trkpt>
      <trkpt lat="45.87177" lon="6.38861">
        <ele>1400.54</ele>
        <time>2013-09-28T08:42:33Z</time>
      </trkpt>
      <trkpt lat="45.87182" lon="6.38894">
        <ele>1402.26</ele>
        <time>2013-09-28T08:42:41Z</time>
      </trkpt>
      <trkpt lat="45.87189" lon="6.38926">
        <ele>1403.86</ele>
        <time>2013-09-28T08:42:49Z</time>
      </trkpt>
      <trkpt lat="45.87195" lon="6.38957">
        <ele>1405.14</ele>
        <time>2013-09-28T08:42:57Z</time>
      </trkpt>
      <trkpt lat="45.87201" lon="6.3899">
        <ele>1406.15</ele>
        <time>2013-09-28T08:43:05Z</time>
      </trkpt>
      <trkpt lat="45.87207" lon="6.39022">
        <ele>1407.66</ele>
        <time>2013-09-28T08:43:13Z</time>
      </trkpt>
      <trkpt lat="45.87214" lon="6.39053">
        <ele>1410.16</ele>
        <time>2013-09-28T08:43:21Z</time>
      </trkpt>
      <trkpt lat="45.87223" lon="6.39083">
        <ele>1412.2</ele>
        <time>2013-09-28T08:43:29Z</time>
      </trkpt>
      <trkpt lat="45.87238" lon="6.39108">
        <ele>1412.64</ele>
        <time>2013-09-28T08:43:37Z</time>
      </trkpt>
      <trkpt lat="45.87255" lon="6.39131">
        <ele>1414.38</ele>
        <time>2013-09-28T08:43:45Z</time>
      </trkpt>
      <trkpt lat="45.8727" lon="6.39156">
        <ele>1417.45</ele>
        <time>2013-09-28T08:43:53Z</time>
      </trkpt>
      <trkpt lat="45.87277" lon="6.39189">
        <ele>1420.35</ele>
        <time>2013-09-28T08:44:01Z</time>
      </trkpt>
      <trkpt lat="45.87278" lon="6.39224">
        <ele>1422.7</ele>
        <time>2013-09-28T08:44:09Z</time>
      </trkpt>
      <trkpt lat="45.87282" lon="6.39258">
        <ele>1425.72</ele>
        <time>2013-09-28T08:44:17Z</time>
      </trkpt>
      <trkpt lat="45.87289" lon="6.39291">
        <ele>1428.09</ele>
        <time>2013-09-28T08:44:25Z</time>
      </trkpt>
      <trkpt lat="45.873" lon="6.39321">
        <ele>1430.11</ele>
        <time>2013-09-28T08:44:33Z</time>
      </trkpt>
      <trkpt lat="45.87314" lon="6.39351">
        <ele>1431.4</ele>
        <time>2013-09-28T08:44:41Z</time>
      </trkpt>
      <trkpt lat="45.87328" lon="6.39378">
        <ele>1432.53</ele>
        <time>2013-09-28T08:44:48Z</time>
      </trkpt>
      <trkpt lat="45.87341" lon="6.39405">
        <ele>1433.64</ele>
        <time>2013-09-28T08:44:55Z</time>
      </trkpt>
      <trkpt lat="45.87355" lon="6.39435">
        <ele>1436.02</ele>
        <time>2013-09-28T08:45:03Z</time>
      </trkpt>
      <trkpt lat="45.87368" lon="6.39463">
        <ele>1437.9</ele>
        <time>2013-09-28T08:45:11Z</time>
      </trkpt>
      <trkpt lat="45.87379" lon="6.39493">
        <ele>1440.29</ele>
        <time>2013-09-28T08:45:19Z</time>
      </trkpt>
      <trkpt lat="45.87385" lon="6.39524">
        <ele>1442.91</ele>
        <time>2013-09-28T08:45:27Z</time>
      </trkpt>
      <trkpt lat="45.87391" lon="6.39558">
        <ele>1445.67</ele>
        <time>2013-09-28T08:45:35Z</time>
      </trkpt>
      <trkpt lat="45.87397" lon="6.39589">
        <ele>1446.78</ele>
        <time>2013-09-28T08:45:42Z</time>
      </trkpt>
      <trkpt lat="45.87404" lon="6.39623">
        <ele>1447.57</ele>
        <time>2013-09-28T08:45:49Z</time>
      </trkpt>
      <trkpt lat="45.8741" lon="6.39658">
        <ele>1448.04</ele>
        <time>2013-09-28T08:45:56Z</time>
      </trkpt>
      <trkpt lat="45.87417" lon="6.39693">
        <ele>1449.22</ele>
        <time>2013-09-28T08:46:03Z</time>
      </trkpt>
      <trkpt lat="45.87422" lon="6.39727">
        <ele>1451.55</ele>
        <time>2013-09-28T08:46:10Z</time>
      </trkpt>
      <trkpt lat="45.87427" lon="6.3976">
        <ele>1452.98</ele>
        <time>2013-09-28T08:46:17Z</time>
      </trkpt>
      <trkpt lat="45.87432" lon="6.39794">
        <ele>1455.34</ele>
        <time>2013-09-28T08:46:25Z</time>
      </trkpt>
      <trkpt lat="45.87439" lon="6.39824">
        <ele>1457.32</ele>
        <time>2013-09-28T08:46:33Z</time>
      </trkpt>
      <trkpt lat="45.87449" lon="6.39856">
        <ele>1459.93</ele>
        <time>2013-09-28T08:46:42Z</time>
      </trkpt>
      <trkpt lat="45.87459" lon="6.39886">
        <ele>1462.3</ele>
        <time>2013-09-28T08:46:51Z</time>
      </trkpt>
      <trkpt lat="45.87475" lon="6.39911">
        <ele>1464.6</ele>
        <time>2013-09-28T08:47:00Z</time>
      </trkpt>
      <trkpt lat="45.87477" lon="6.39943">
        <ele>1466.36</ele>
        <time>2013-09-28T08:47:09Z</time>
      </trkpt>
      <trkpt lat="45.8746" lon="6.39969">
        <ele>1469.61</ele>
        <time>2013-09-28T08:47:18Z</time>
      </trkpt>
      <trkpt lat="45.87448" lon="6.4">
        <ele>1472.93</ele>
        <time>2013-09-28T08:47:27Z</time>
      </trkpt>
      <trkpt lat="45.87444" lon="6.40032">
        <ele>1474.95</ele>
        <time>2013-09-28T08:47:35Z</time>
      </trkpt>
      <trkpt lat="45.87445" lon="6.40065">
        <ele>1477.02</ele>
        <time>2013-09-28T08:47:43Z</time>
      </trkpt>
      <trkpt lat="45.87445" lon="6.40098">
        <ele>1478.46</ele>
        <time>2013-09-28T08:47:51Z</time>
      </trkpt>
      <trkpt lat="45.87446" lon="6.40132">
        <ele>1479.52</ele>
        <time>2013-09-28T08:47:59Z</time>
      </trkpt>
      <trkpt lat="45.87469" lon="6.40136">
        <ele>1482.25</ele>
        <time>2013-09-28T08:48:09Z</time>
      </trkpt>
      <trkpt lat="45.8748" lon="6.40107">
        <ele>1484.12</ele>
        <time>2013-09-28T08:48:16Z</time>
      </trkpt>
      <trkpt lat="45.87488" lon="6.40074">
        <ele>1484.92</ele>
        <time>2013-09-28T08:48:23Z</time>
      </trkpt>
      <trkpt lat="45.87507" lon="6.40055">
        <ele>1486.42</ele>
        <time>2013-09-28T08:48:30Z</time>
      </trkpt>
      <trkpt lat="45.8753" lon="6.40047">
        <ele>1489.15</ele>
        <time>2013-09-28T08:48:37Z</time>
      </trkpt>
      <trkpt lat="45.87552" lon="6.40029">
        <ele>1490.53</ele>
        <time>2013-09-28T08:48:45Z</time>
      </trkpt>
      <trkpt lat="45.87565" lon="6.39998">
        <ele>1493.67</ele>
        <time>2013-09-28T08:48:53Z</time>
      </trkpt>
      <trkpt lat="45.8757" lon="6.39963">
        <ele>1494.71</ele>
        <time>2013-09-28T08:49:01Z</time>
      </trkpt>
      <trkpt lat="45.87568" lon="6.39929">
        <ele>1496.67</ele>
        <time>2013-09-28T08:49:09Z</time>
      </trkpt>
      <trkpt lat="45.87583" lon="6.39904">
        <ele>1498.87</ele>
        <time>2013-09-28T08:49:18Z</time>
      </trkpt>
      <trkpt lat="45.87593" lon="6.39936">
        <ele>1501.96</ele>
        <time>2013-09-28T08:49:25Z</time>
      </trkpt>
      <trkpt lat="45.876" lon="6.39967">
        <ele>1503.67</ele>
        <time>2013-09-28T08:49:32Z</time>
      </trkpt>
      <trkpt lat="45.87611" lon="6.39998">
        <ele>1505.56</ele>
        <time>2013-09-28T08:49:40Z</time>
      </trkpt>
      <trkpt lat="45.87623" lon="6.40027">
        <ele>1507.13</ele>
        <time>2013-09-28T08:49:48Z</time>
      </trkpt>
      <trkpt lat="45.87635" lon="6.40055">
        <ele>1508.64</ele>
        <time>2013-09-28T08:49:56Z</time>
      </trkpt>
      <trkpt lat="45.87645" lon="6.40085">
        <ele>1509.54</ele>
        <time>2013-09-28T08:50:04Z</time>
      </trkpt>
      <trkpt lat="45.87652" lon="6.40115">
        <ele>1510.8</ele>
        <time>2013-09-28T08:50:12Z</time>
      </trkpt>
      <trkpt lat="45.87659" lon="6.40147">
        <ele>1512.16</ele>
        <time>2013-09-28T08:50:21Z</time>
      </trkpt>
      <trkpt lat="45.87662" lon="6.40179">
        <ele>1512.24</ele>
        <time>2013-09-28T08:50:32Z</time>
      </trkpt>
      <trkpt lat="45.87667" lon="6.4021">
        <ele>1515.45</ele>
        <time>2013-09-28T08:52:15Z</time>
      </trkpt>
      <trkpt lat="45.87675" lon="6.40245">
        <ele>1516.56</ele>
        <time>2013-09-28T08:52:22Z</time>
      </trkpt>
      <trkpt lat="45.87687" lon="6.40277">
        <ele>1516.73</ele>
        <time>2013-09-28T08:52:28Z</time>
      </trkpt>
      <trkpt lat="45.87693" lon="6.40309">
        <ele>1516.76</ele>
        <time>2013-09-28T08:52:33Z</time>
      </trkpt>
      <trkpt lat="45.87688" lon="6.40355">
        <ele>1516.94</ele>
        <time>2013-09-28T08:52:40Z</time>
      </trkpt>
      <trkpt lat="45.87686" lon="6.40391">
        <ele>1515.27</ele>
        <time>2013-09-28T08:52:46Z</time>
      </trkpt>
      <trkpt lat="45.8769" lon="6.40423">
        <ele>1513.58</ele>
        <time>2013-09-28T08:52:51Z</time>
      </trkpt>
      <trkpt lat="45.87693" lon="6.40456">
        <ele>1513.19</ele>
        <time>2013-09-28T08:52:56Z</time>
      </trkpt>
      <trkpt lat="45.87696" lon="6.40489">
        <ele>1512.25</ele>
        <time>2013-09-28T08:53:01Z</time>
      </trkpt>
      <trkpt lat="45.87702" lon="6.40523">
        <ele>1511.61</ele>
        <time>2013-09-28T08:53:06Z</time>
      </trkpt>
      <trkpt lat="45.8771" lon="6.40559">
        <ele>1511.63</ele>
        <time>2013-09-28T08:53:11Z</time>
      </trkpt>
      <trkpt lat="45.87723" lon="6.40591">
        <ele>1512.13</ele>
        <time>2013-09-28T08:53:16Z</time>
      </trkpt>
      <trkpt lat="45.8774" lon="6.40614">
        <ele>1512.21</ele>
        <time>2013-09-28T08:53:21Z</time>
      </trkpt>
      <trkpt lat="45.8776" lon="6.40638">
        <ele>1513.29</ele>
        <time>2013-09-28T08:53:26Z</time>
      </trkpt>
      <trkpt lat="45.87782" lon="6.40648">
        <ele>1516.42</ele>
        <time>2013-09-28T08:53:41Z</time>
      </trkpt>
      <trkpt lat="45.87795" lon="6.40705">
        <ele>1511.3</ele>
        <time>2013-09-28T08:53:46Z</time>
      </trkpt>
      <trkpt lat="45.87808" lon="6.40755">
        <ele>1512.36</ele>
        <time>2013-09-28T08:53:51Z</time>
      </trkpt>
      <trkpt lat="45.87822" lon="6.40793">
        <ele>1513.9</ele>
        <time>2013-09-28T08:53:56Z</time>
      </trkpt>
      <trkpt lat="45.87831" lon="6.40831">
        <ele>1515.8</ele>
        <time>2013-09-28T08:54:01Z</time>
      </trkpt>
      <trkpt lat="45.87831" lon="6.40872">
        <ele>1516.32</ele>
        <time>2013-09-28T08:54:06Z</time>
      </trkpt>
      <trkpt lat="45.87821" lon="6.40914">
        <ele>1517</ele>
        <time>2013-09-28T08:54:11Z</time>
      </trkpt>
      <trkpt lat="45.87814" lon="6.40959">
        <ele>1518.13</ele>
        <time>2013-09-28T08:54:16Z</time>
      </trkpt>
      <trkpt lat="45.87811" lon="6.41004">
        <ele>1518.3</ele>
        <time>2013-09-28T08:54:21Z</time>
      </trkpt>
      <trkpt lat="45.87811" lon="6.41051">
        <ele>1517.76</ele>
        <time>2013-09-28T08:54:26Z</time>
      </trkpt>
      <trkpt lat="45.87806" lon="6.41098">
        <ele>1517.58</ele>
        <time>2013-09-28T08:54:31Z</time>
      </trkpt>
      <trkpt lat="45.87795" lon="6.41144">
        <ele>1518.17</ele>
        <time>2013-09-28T08:54:36Z</time>
      </trkpt>
      <trkpt lat="45.87785" lon="6.4119">
        <ele>1518.99</ele>
        <time>2013-09-28T08:54:41Z</time>
      </trkpt>
      <trkpt lat="45.87777" lon="6.41234">
        <ele>1520.14</ele>
        <time>2013-09-28T08:54:46Z</time>
      </trkpt>
      <trkpt lat="45.87778" lon="6.41276">
        <ele>1520.42</ele>
        <time>2013-09-28T08:54:51Z</time>
      </trkpt>
      <trkpt lat="45.87787" lon="6.41314">
        <ele>1522.3</ele>
        <time>2013-09-28T08:54:56Z</time>
      </trkpt>
      <trkpt lat="45.87798" lon="6.4135">
        <ele>1523.23</ele>
        <time>2013-09-28T08:55:01Z</time>
      </trkpt>
      <trkpt lat="45.87803" lon="6.41388">
        <ele>1524.18</ele>
        <time>2013-09-28T08:55:06Z</time>
      </trkpt>
      <trkpt lat="45.87804" lon="6.41427">
        <ele>1525.04</ele>
        <time>2013-09-28T08:55:11Z</time>
      </trkpt>
      <trkpt lat="45.878" lon="6.41461">
        <ele>1527</ele>
        <time>2013-09-28T08:55:16Z</time>
      </trkpt>
      <trkpt lat="45.8779" lon="6.41491">
        <ele>1528.96</ele>
        <time>2013-09-28T08:55:21Z</time>
      </trkpt>
      <trkpt lat="45.87776" lon="6.41516">
        <ele>1530.71</ele>
        <time>2013-09-28T08:55:26Z</time>
      </trkpt>
      <trkpt lat="45.87756" lon="6.41535">
        <ele>1532.08</ele>
        <time>2013-09-28T08:55:31Z</time>
      </trkpt>
      <trkpt lat="45.87727" lon="6.41531">
        <ele>1533.6</ele>
        <time>2013-09-28T08:55:36Z</time>
      </trkpt>
      <trkpt lat="45.87697" lon="6.41511">
        <ele>1534.09</ele>
        <time>2013-09-28T08:55:41Z</time>
      </trkpt>
      <trkpt lat="45.87657" lon="6.41496">
        <ele>1533.38</ele>
        <time>2013-09-28T08:55:46Z</time>
      </trkpt>
      <trkpt lat="45.87614" lon="6.41488">
        <ele>1533.5</ele>
        <time>2013-09-28T08:55:51Z</time>
      </trkpt>
      <trkpt lat="45.87567" lon="6.41483">
        <ele>1533.17</ele>
        <time>2013-09-28T08:55:56Z</time>
      </trkpt>
      <trkpt lat="45.87521" lon="6.41507">
        <ele>1532.13</ele>
        <time>2013-09-28T08:56:01Z</time>
      </trkpt>
      <trkpt lat="45.87485" lon="6.41559">
        <ele>1530.93</ele>
        <time>2013-09-28T08:56:06Z</time>
      </trkpt>
      <trkpt lat="45.87451" lon="6.41605">
        <ele>1529.69</ele>
        <time>2013-09-28T08:56:11Z</time>
      </trkpt>
      <trkpt lat="45.87406" lon="6.41634">
        <ele>1526.83</ele>
        <time>2013-09-28T08:56:16Z</time>
      </trkpt>
      <trkpt lat="45.8736" lon="6.41663">
        <ele>1523.84</ele>
        <time>2013-09-28T08:56:21Z</time>
      </trkpt>
      <trkpt lat="45.87314" lon="6.41693">
        <ele>1522.3</ele>
        <time>2013-09-28T08:56:26Z</time>
      </trkpt>
      <trkpt lat="45.87262" lon="6.41702">
        <ele>1522.63</ele>
        <time>2013-09-28T08:56:31Z</time>
      </trkpt>
      <trkpt lat="45.8721" lon="6.41694">
        <ele>1520.22</ele>
        <time>2013-09-28T08:56:36Z</time>
      </trkpt>
      <trkpt lat="45.87159" lon="6.41694">
        <ele>1517.69</ele>
        <time>2013-09-28T08:56:41Z</time>
      </trkpt>
      <trkpt lat="45.87109" lon="6.41708">
        <ele>1516.66</ele>
        <time>2013-09-28T08:56:46Z</time>
      </trkpt>
      <trkpt lat="45.87063" lon="6.4172">
        <ele>1517.14</ele>
        <time>2013-09-28T08:56:51Z</time>
      </trkpt>
      <trkpt lat="45.87024" lon="6.41738">
        <ele>1516.65</ele>
        <time>2013-09-28T08:56:56Z</time>
      </trkpt>
      <trkpt lat="45.86991" lon="6.41763">
        <ele>1516.28</ele>
        <time>2013-09-28T08:57:01Z</time>
      </trkpt>
      <trkpt lat="45.86959" lon="6.41782">
        <ele>1517.21</ele>
        <time>2013-09-28T08:57:06Z</time>
      </trkpt>
      <trkpt lat="45.86928" lon="6.4179">
        <ele>1519.88</ele>
        <time>2013-09-28T08:57:11Z</time>
      </trkpt>
      <trkpt lat="45.86901" lon="6.41792">
        <ele>1521.78</ele>
        <time>2013-09-28T08:57:16Z</time>
      </trkpt>
      <trkpt lat="45.86875" lon="6.41795">
        <ele>1523.63</ele>
        <time>2013-09-28T08:57:21Z</time>
      </trkpt>
      <trkpt lat="45.8685" lon="6.418">
        <ele>1524.54</ele>
        <time>2013-09-28T08:57:26Z</time>
      </trkpt>
      <trkpt lat="45.86825" lon="6.41813">
        <ele>1524.69</ele>
        <time>2013-09-28T08:57:31Z</time>
      </trkpt>
      <trkpt lat="45.86802" lon="6.41826">
        <ele>1525.39</ele>
        <time>2013-09-28T08:57:36Z</time>
      </trkpt>
      <trkpt lat="45.86778" lon="6.41839">
        <ele>1526.4</ele>
        <time>2013-09-28T08:57:41Z</time>
      </trkpt>
      <trkpt lat="45.86753" lon="6.41844">
        <ele>1526.98</ele>
        <time>2013-09-28T08:57:46Z</time>
      </trkpt>
      <trkpt lat="45.86727" lon="6.41842">
        <ele>1527.51</ele>
        <time>2013-09-28T08:57:51Z</time>
      </trkpt>
      <trkpt lat="45.86702" lon="6.41836">
        <ele>1527.64</ele>
        <time>2013-09-28T08:57:56Z</time>
      </trkpt>
      <trkpt lat="45.86678" lon="6.41829">
        <ele>1529.23</ele>
        <time>2013-09-28T08:58:01Z</time>
      </trkpt>
      <trkpt lat="45.86653" lon="6.41824">
        <ele>1531</ele>
        <time>2013-09-28T08:58:07Z</time>
      </trkpt>
      <trkpt lat="45.86627" lon="6.41821">
        <ele>1532.69</ele>
        <time>2013-09-28T08:58:13Z</time>
      </trkpt>
      <trkpt lat="45.866" lon="6.41818">
        <ele>1534.86</ele>
        <time>2013-09-28T08:58:19Z</time>
      </trkpt>
      <trkpt lat="45.86575" lon="6.41816">
        <ele>1535.61</ele>
        <time>2013-09-28T08:58:25Z</time>
      </trkpt>
      <trkpt lat="45.86551" lon="6.4181">
        <ele>1536.67</ele>
        <time>2013-09-28T08:58:31Z</time>
      </trkpt>
      <trkpt lat="45.86527" lon="6.41806">
        <ele>1537.34</ele>
        <time>2013-09-28T08:58:37Z</time>
      </trkpt>
      <trkpt lat="45.86503" lon="6.418">
        <ele>1538.99</ele>
        <time>2013-09-28T08:58:43Z</time>
      </trkpt>
      <trkpt lat="45.8648" lon="6.41794">
        <ele>1541.3</ele>
        <time>2013-09-28T08:58:49Z</time>
      </trkpt>
      <trkpt lat="45.86457" lon="6.41787">
        <ele>1542.91</ele>
        <time>2013-09-28T08:58:55Z</time>
      </trkpt>
      <trkpt lat="45.86434" lon="6.41779">
        <ele>1544.33</ele>
        <time>2013-09-28T08:59:01Z</time>
      </trkpt>
      <trkpt lat="45.86411" lon="6.4177">
        <ele>1546.1</ele>
        <time>2013-09-28T08:59:07Z</time>
      </trkpt>
      <trkpt lat="45.86389" lon="6.4176">
        <ele>1547.78</ele>
        <time>2013-09-28T08:59:13Z</time>
      </trkpt>
      <trkpt lat="45.86367" lon="6.41747">
        <ele>1549.13</ele>
        <time>2013-09-28T08:59:19Z</time>
      </trkpt>
      <trkpt lat="45.86345" lon="6.41729">
        <ele>1551.02</ele>
        <time>2013-09-28T08:59:26Z</time>
      </trkpt>
      <trkpt lat="45.86326" lon="6.41712">
        <ele>1551.81</ele>
        <time>2013-09-28T08:59:34Z</time>
      </trkpt>
      <trkpt lat="45.86349" lon="6.41733">
        <ele>1556.07</ele>
        <time>2013-09-28T09:01:29Z</time>
      </trkpt>
      <trkpt lat="45.86379" lon="6.41756">
        <ele>1553.79</ele>
        <time>2013-09-28T09:01:34Z</time>
      </trkpt>
      <trkpt lat="45.86419" lon="6.41777">
        <ele>1551.48</ele>
        <time>2013-09-28T09:01:39Z</time>
      </trkpt>
      <trkpt lat="45.86464" lon="6.41794">
        <ele>1548.54</ele>
        <time>2013-09-28T09:01:44Z</time>
      </trkpt>
      <trkpt lat="45.86515" lon="6.41809">
        <ele>1545.07</ele>
        <time>2013-09-28T09:01:49Z</time>
      </trkpt>
      <trkpt lat="45.86569" lon="6.4182">
        <ele>1542.92</ele>
        <time>2013-09-28T09:01:54Z</time>
      </trkpt>
      <trkpt lat="45.86625" lon="6.41825">
        <ele>1540</ele>
        <time>2013-09-28T09:01:59Z</time>
      </trkpt>
      <trkpt lat="45.86684" lon="6.41837">
        <ele>1536.58</ele>
        <time>2013-09-28T09:02:04Z</time>
      </trkpt>
      <trkpt lat="45.86742" lon="6.41847">
        <ele>1535.03</ele>
        <time>2013-09-28T09:02:09Z</time>
      </trkpt>
      <trkpt lat="45.86796" lon="6.4183">
        <ele>1533.65</ele>
        <time>2013-09-28T09:02:14Z</time>
      </trkpt>
      <trkpt lat="45.86846" lon="6.41798">
        <ele>1531.28</ele>
        <time>2013-09-28T09:02:19Z</time>
      </trkpt>
      <trkpt lat="45.86901" lon="6.41794">
        <ele>1529.11</ele>
        <time>2013-09-28T09:02:24Z</time>
      </trkpt>
      <trkpt lat="45.86957" lon="6.4178">
        <ele>1525.04</ele>
        <time>2013-09-28T09:02:29Z</time>
      </trkpt>
      <trkpt lat="45.87013" lon="6.41744">
        <ele>1522.32</ele>
        <time>2013-09-28T09:02:34Z</time>
      </trkpt>
      <trkpt lat="45.87066" lon="6.41718">
        <ele>1521.07</ele>
        <time>2013-09-28T09:02:39Z</time>
      </trkpt>
      <trkpt lat="45.87119" lon="6.41703">
        <ele>1520.9</ele>
        <time>2013-09-28T09:02:44Z</time>
      </trkpt>
      <trkpt lat="45.87167" lon="6.41693">
        <ele>1522.41</ele>
        <time>2013-09-28T09:02:49Z</time>
      </trkpt>
      <trkpt lat="45.87209" lon="6.41693">
        <ele>1522.19</ele>
        <time>2013-09-28T09:02:54Z</time>
      </trkpt>
      <trkpt lat="45.87246" lon="6.417">
        <ele>1519.15</ele>
        <time>2013-09-28T09:02:59Z</time>
      </trkpt>
      <trkpt lat="45.8728" lon="6.41703">
        <ele>1515.49</ele>
        <time>2013-09-28T09:03:04Z</time>
      </trkpt>
      <trkpt lat="45.87311" lon="6.41695">
        <ele>1515.69</ele>
        <time>2013-09-28T09:03:09Z</time>
      </trkpt>
      <trkpt lat="45.87339" lon="6.41679">
        <ele>1517.15</ele>
        <time>2013-09-28T09:03:14Z</time>
      </trkpt>
      <trkpt lat="45.87366" lon="6.41662">
        <ele>1519.32</ele>
        <time>2013-09-28T09:03:19Z</time>
      </trkpt>
      <trkpt lat="45.87391" lon="6.41646">
        <ele>1520.83</ele>
        <time>2013-09-28T09:03:24Z</time>
      </trkpt>
      <trkpt lat="45.87416" lon="6.41631">
        <ele>1521.78</ele>
        <time>2013-09-28T09:03:29Z</time>
      </trkpt>
      <trkpt lat="45.87442" lon="6.41614">
        <ele>1523.5</ele>
        <time>2013-09-28T09:03:34Z</time>
      </trkpt>
      <trkpt lat="45.87464" lon="6.41595">
        <ele>1525.22</ele>
        <time>2013-09-28T09:03:39Z</time>
      </trkpt>
      <trkpt lat="45.87482" lon="6.41565">
        <ele>1526.32</ele>
        <time>2013-09-28T09:03:44Z</time>
      </trkpt>
      <trkpt lat="45.87499" lon="6.4153">
        <ele>1524.56</ele>
        <time>2013-09-28T09:03:49Z</time>
      </trkpt>
      <trkpt lat="45.87521" lon="6.41503">
        <ele>1528.11</ele>
        <time>2013-09-28T09:03:54Z</time>
      </trkpt>
      <trkpt lat="45.87546" lon="6.41487">
        <ele>1529.96</ele>
        <time>2013-09-28T09:03:59Z</time>
      </trkpt>
      <trkpt lat="45.87573" lon="6.41482">
        <ele>1529.94</ele>
        <time>2013-09-28T09:04:04Z</time>
      </trkpt>
      <trkpt lat="45.87601" lon="6.41488">
        <ele>1530.74</ele>
        <time>2013-09-28T09:04:09Z</time>
      </trkpt>
      <trkpt lat="45.87629" lon="6.41495">
        <ele>1531.59</ele>
        <time>2013-09-28T09:04:14Z</time>
      </trkpt>
      <trkpt lat="45.87657" lon="6.41499">
        <ele>1531.27</ele>
        <time>2013-09-28T09:04:19Z</time>
      </trkpt>
      <trkpt lat="45.87682" lon="6.41509">
        <ele>1533.08</ele>
        <time>2013-09-28T09:04:24Z</time>
      </trkpt>
      <trkpt lat="45.87707" lon="6.41523">
        <ele>1533.1</ele>
        <time>2013-09-28T09:04:29Z</time>
      </trkpt>
      <trkpt lat="45.87729" lon="6.41534">
        <ele>1533.61</ele>
        <time>2013-09-28T09:04:34Z</time>
      </trkpt>
      <trkpt lat="45.87756" lon="6.41537">
        <ele>1535.18</ele>
        <time>2013-09-28T09:04:39Z</time>
      </trkpt>
      <trkpt lat="45.8778" lon="6.41519">
        <ele>1536.37</ele>
        <time>2013-09-28T09:04:44Z</time>
      </trkpt>
      <trkpt lat="45.87799" lon="6.41478">
        <ele>1537.69</ele>
        <time>2013-09-28T09:04:49Z</time>
      </trkpt>
      <trkpt lat="45.87805" lon="6.41419">
        <ele>1536.08</ele>
        <time>2013-09-28T09:04:54Z</time>
      </trkpt>
      <trkpt lat="45.87799" lon="6.41352">
        <ele>1533.89</ele>
        <time>2013-09-28T09:04:59Z</time>
      </trkpt>
      <trkpt lat="45.8778" lon="6.41289">
        <ele>1531.29</ele>
        <time>2013-09-28T09:05:04Z</time>
      </trkpt>
      <trkpt lat="45.87781" lon="6.41214">
        <ele>1530.37</ele>
        <time>2013-09-28T09:05:09Z</time>
      </trkpt>
      <trkpt lat="45.87796" lon="6.4114">
        <ele>1528.94</ele>
        <time>2013-09-28T09:05:14Z</time>
      </trkpt>
      <trkpt lat="45.87809" lon="6.4107">
        <ele>1527.92</ele>
        <time>2013-09-28T09:05:19Z</time>
      </trkpt>
      <trkpt lat="45.8781" lon="6.41003">
        <ele>1527.57</ele>
        <time>2013-09-28T09:05:24Z</time>
      </trkpt>
      <trkpt lat="45.87813" lon="6.40938">
        <ele>1527.5</ele>
        <time>2013-09-28T09:05:29Z</time>
      </trkpt>
      <trkpt lat="45.87826" lon="6.40879">
        <ele>1526.84</ele>
        <time>2013-09-28T09:05:34Z</time>
      </trkpt>
      <trkpt lat="45.87824" lon="6.40819">
        <ele>1526.77</ele>
        <time>2013-09-28T09:05:39Z</time>
      </trkpt>
      <trkpt lat="45.8781" lon="6.40763">
        <ele>1523.58</ele>
        <time>2013-09-28T09:05:44Z</time>
      </trkpt>
      <trkpt lat="45.87796" lon="6.40719">
        <ele>1520.15</ele>
        <time>2013-09-28T09:05:49Z</time>
      </trkpt>
      <trkpt lat="45.87815" lon="6.4074">
        <ele>1515.25</ele>
        <time>2013-09-28T09:05:57Z</time>
      </trkpt>
      <trkpt lat="45.87843" lon="6.40789">
        <ele>1512.93</ele>
        <time>2013-09-28T09:06:02Z</time>
      </trkpt>
      <trkpt lat="45.87868" lon="6.40863">
        <ele>1510.77</ele>
        <time>2013-09-28T09:06:07Z</time>
      </trkpt>
      <trkpt lat="45.87887" lon="6.40946">
        <ele>1509.6</ele>
        <time>2013-09-28T09:06:12Z</time>
      </trkpt>
      <trkpt lat="45.87904" lon="6.41029">
        <ele>1506.94</ele>
        <time>2013-09-28T09:06:17Z</time>
      </trkpt>
      <trkpt lat="45.8789" lon="6.41126">
        <ele>1503.13</ele>
        <time>2013-09-28T09:06:22Z</time>
      </trkpt>
      <trkpt lat="45.87883" lon="6.41216">
        <ele>1500.86</ele>
        <time>2013-09-28T09:06:27Z</time>
      </trkpt>
      <trkpt lat="45.87908" lon="6.41296">
        <ele>1498.06</ele>
        <time>2013-09-28T09:06:32Z</time>
      </trkpt>
      <trkpt lat="45.8793" lon="6.41383">
        <ele>1491.77</ele>
        <time>2013-09-28T09:06:37Z</time>
      </trkpt>
      <trkpt lat="45.87912" lon="6.41484">
        <ele>1481.43</ele>
        <time>2013-09-28T09:06:42Z</time>
      </trkpt>
      <trkpt lat="45.87912" lon="6.41587">
        <ele>1470.33</ele>
        <time>2013-09-28T09:06:47Z</time>
      </trkpt>
      <trkpt lat="45.87925" lon="6.4167">
        <ele>1465.63</ele>
        <time>2013-09-28T09:06:52Z</time>
      </trkpt>
      <trkpt lat="45.87902" lon="6.41759">
        <ele>1462.39</ele>
        <time>2013-09-28T09:06:57Z</time>
      </trkpt>
      <trkpt lat="45.87879" lon="6.41828">
        <ele>1458.39</ele>
        <time>2013-09-28T09:07:02Z</time>
      </trkpt>
      <trkpt lat="45.87828" lon="6.41844">
        <ele>1453.49</ele>
        <time>2013-09-28T09:07:07Z</time>
      </trkpt>
      <trkpt lat="45.87774" lon="6.41843">
        <ele>1442.54</ele>
        <time>2013-09-28T09:07:12Z</time>
      </trkpt>
      <trkpt lat="45.87713" lon="6.41843">
        <ele>1436.54</ele>
        <time>2013-09-28T09:07:17Z</time>
      </trkpt>
      <trkpt lat="45.87654" lon="6.41846">
        <ele>1432.8</ele>
        <time>2013-09-28T09:07:22Z</time>
      </trkpt>
      <trkpt lat="45.87599" lon="6.41863">
        <ele>1431.94</ele>
        <time>2013-09-28T09:07:27Z</time>
      </trkpt>
      <trkpt lat="45.87552" lon="6.41877">
        <ele>1432.75</ele>
        <time>2013-09-28T09:07:32Z</time>
      </trkpt>
      <trkpt lat="45.87525" lon="6.41911">
        <ele>1433.32</ele>
        <time>2013-09-28T09:07:37Z</time>
      </trkpt>
      <trkpt lat="45.87547" lon="6.41947">
        <ele>1433.16</ele>
        <time>2013-09-28T09:07:42Z</time>
      </trkpt>
      <trkpt lat="45.87583" lon="6.41971">
        <ele>1432.65</ele>
        <time>2013-09-28T09:07:47Z</time>
      </trkpt>
      <trkpt lat="45.87621" lon="6.42003">
        <ele>1430.74</ele>
        <time>2013-09-28T09:07:52Z</time>
      </trkpt>
      <trkpt lat="45.87669" lon="6.42038">
        <ele>1425.88</ele>
        <time>2013-09-28T09:07:57Z</time>
      </trkpt>
      <trkpt lat="45.87726" lon="6.42069">
        <ele>1421.8</ele>
        <time>2013-09-28T09:08:02Z</time>
      </trkpt>
      <trkpt lat="45.87783" lon="6.42101">
        <ele>1417.02</ele>
        <time>2013-09-28T09:08:07Z</time>
      </trkpt>
      <trkpt lat="45.8784" lon="6.42146">
        <ele>1411.42</ele>
        <time>2013-09-28T09:08:12Z</time>
      </trkpt>
      <trkpt lat="45.87892" lon="6.42213">
        <ele>1406.06</ele>
        <time>2013-09-28T09:08:17Z</time>
      </trkpt>
      <trkpt lat="45.87945" lon="6.42258">
        <ele>1400.26</ele>
        <time>2013-09-28T09:08:22Z</time>
      </trkpt>
      <trkpt lat="45.87987" lon="6.42332">
        <ele>1392.42</ele>
        <time>2013-09-28T09:08:27Z</time>
      </trkpt>
      <trkpt lat="45.88028" lon="6.42409">
        <ele>1386.99</ele>
        <time>2013-09-28T09:08:32Z</time>
      </trkpt>
      <trkpt lat="45.88073" lon="6.42469">
        <ele>1385.04</ele>
        <time>2013-09-28T09:08:37Z</time>
      </trkpt>
      <trkpt lat="45.88118" lon="6.42502">
        <ele>1378.26</ele>
        <time>2013-09-28T09:08:42Z</time>
      </trkpt>
      <trkpt lat="45.88158" lon="6.42531">
        <ele>1372.9</ele>
        <time>2013-09-28T09:08:47Z</time>
      </trkpt>
      <trkpt lat="45.88179" lon="6.42604">
        <ele>1364.5</ele>
        <time>2013-09-28T09:08:52Z</time>
      </trkpt>
      <trkpt lat="45.88218" lon="6.42669">
        <ele>1359.05</ele>
        <time>2013-09-28T09:08:57Z</time>
      </trkpt>
      <trkpt lat="45.88272" lon="6.42714">
        <ele>1354.09</ele>
        <time>2013-09-28T09:09:02Z</time>
      </trkpt>
      <trkpt lat="45.88311" lon="6.42777">
        <ele>1348.54</ele>
        <time>2013-09-28T09:09:07Z</time>
      </trkpt>
      <trkpt lat="45.88338" lon="6.4286">
        <ele>1340.03</ele>
        <time>2013-09-28T09:09:12Z</time>
      </trkpt>
      <trkpt lat="45.8836" lon="6.42947">
        <ele>1328.97</ele>
        <time>2013-09-28T09:09:17Z</time>
      </trkpt>
      <trkpt lat="45.88378" lon="6.43016">
        <ele>1324.99</ele>
        <time>2013-09-28T09:09:22Z</time>
      </trkpt>
      <trkpt lat="45.88357" lon="6.43091">
        <ele>1320.83</ele>
        <time>2013-09-28T09:09:27Z</time>
      </trkpt>
      <trkpt lat="45.88321" lon="6.43165">
        <ele>1317.21</ele>
        <time>2013-09-28T09:09:32Z</time>
      </trkpt>
      <trkpt lat="45.88283" lon="6.43238">
        <ele>1313.17</ele>
        <time>2013-09-28T09:09:37Z</time>
      </trkpt>
      <trkpt lat="45.88249" lon="6.43316">
        <ele>1310.57</ele>
        <time>2013-09-28T09:09:42Z</time>
      </trkpt>
      <trkpt lat="45.88222" lon="6.43387">
        <ele>1307.54</ele>
        <time>2013-09-28T09:09:47Z</time>
      </trkpt>
      <trkpt lat="45.88227" lon="6.43464">
        <ele>1304.72</ele>
        <time>2013-09-28T09:09:52Z</time>
      </trkpt>
      <trkpt lat="45.88254" lon="6.43537">
        <ele>1300.28</ele>
        <time>2013-09-28T09:09:57Z</time>
      </trkpt>
      <trkpt lat="45.88256" lon="6.4362">
        <ele>1294.7</ele>
        <time>2013-09-28T09:10:02Z</time>
      </trkpt>
      <trkpt lat="45.8826" lon="6.43681">
        <ele>1292.82</ele>
        <time>2013-09-28T09:10:07Z</time>
      </trkpt>
      <trkpt lat="45.88298" lon="6.43689">
        <ele>1289.67</ele>
        <time>2013-09-28T09:10:12Z</time>
      </trkpt>
      <trkpt lat="45.88329" lon="6.43647">
        <ele>1289.34</ele>
        <time>2013-09-28T09:10:17Z</time>
      </trkpt>
      <trkpt lat="45.88357" lon="6.43596">
        <ele>1288.72</ele>
        <time>2013-09-28T09:10:22Z</time>
      </trkpt>
      <trkpt lat="45.88382" lon="6.4354">
        <ele>1287.02</ele>
        <time>2013-09-28T09:10:27Z</time>
      </trkpt>
      <trkpt lat="45.88409" lon="6.43484">
        <ele>1286.18</ele>
        <time>2013-09-28T09:10:32Z</time>
      </trkpt>
      <trkpt lat="45.88447" lon="6.43438">
        <ele>1285.35</ele>
        <time>2013-09-28T09:10:37Z</time>
      </trkpt>
      <trkpt lat="45.88486" lon="6.43394">
        <ele>1284.33</ele>
        <time>2013-09-28T09:10:42Z</time>
      </trkpt>
      <trkpt lat="45.88526" lon="6.43342">
        <ele>1283.53</ele>
        <time>2013-09-28T09:10:47Z</time>
      </trkpt>
      <trkpt lat="45.88568" lon="6.43305">
        <ele>1282.96</ele>
        <time>2013-09-28T09:10:52Z</time>
      </trkpt>
      <trkpt lat="45.88614" lon="6.43285">
        <ele>1281.9</ele>
        <time>2013-09-28T09:10:57Z</time>
      </trkpt>
      <trkpt lat="45.88654" lon="6.43301">
        <ele>1281.64</ele>
        <time>2013-09-28T09:11:02Z</time>
      </trkpt>
      <trkpt lat="45.88686" lon="6.4332">
        <ele>1280.45</ele>
        <time>2013-09-28T09:11:07Z</time>
      </trkpt>
      <trkpt lat="45.88663" lon="6.4333">
        <ele>1279.76</ele>
        <time>2013-09-28T09:11:18Z</time>
      </trkpt>
      <trkpt lat="45.88637" lon="6.4333">
        <ele>1280.38</ele>
        <time>2013-09-28T09:11:24Z</time>
      </trkpt>
      <trkpt lat="45.88612" lon="6.4334">
        <ele>1280.56</ele>
        <time>2013-09-28T09:11:30Z</time>
      </trkpt>
      <trkpt lat="45.88591" lon="6.43358">
        <ele>1280.32</ele>
        <time>2013-09-28T09:11:36Z</time>
      </trkpt>
      <trkpt lat="45.8857" lon="6.43378">
        <ele>1279.39</ele>
        <time>2013-09-28T09:11:42Z</time>
      </trkpt>
      <trkpt lat="45.88549" lon="6.43396">
        <ele>1280.55</ele>
        <time>2013-09-28T09:11:48Z</time>
      </trkpt>
      <trkpt lat="45.88527" lon="6.43413">
        <ele>1281.8</ele>
        <time>2013-09-28T09:11:54Z</time>
      </trkpt>
      <trkpt lat="45.88509" lon="6.43434">
        <ele>1283.85</ele>
        <time>2013-09-28T09:12:00Z</time>
      </trkpt>
      <trkpt lat="45.88494" lon="6.43459">
        <ele>1285.45</ele>
        <time>2013-09-28T09:12:06Z</time>
      </trkpt>
      <trkpt lat="45.88479" lon="6.43485">
        <ele>1287.07</ele>
        <time>2013-09-28T09:12:12Z</time>
      </trkpt>
      <trkpt lat="45.88465" lon="6.43513">
        <ele>1289.35</ele>
        <time>2013-09-28T09:12:19Z</time>
      </trkpt>
      <trkpt lat="45.88449" lon="6.43541">
        <ele>1291.44</ele>
        <time>2013-09-28T09:12:26Z</time>
      </trkpt>
      <trkpt lat="45.88428" lon="6.43562">
        <ele>1293.1</ele>
        <time>2013-09-28T09:12:33Z</time>
      </trkpt>
      <trkpt lat="45.88409" lon="6.43583">
        <ele>1295.24</ele>
        <time>2013-09-28T09:12:40Z</time>
      </trkpt>
      <trkpt lat="45.88397" lon="6.43612">
        <ele>1297.65</ele>
        <time>2013-09-28T09:12:47Z</time>
      </trkpt>
      <trkpt lat="45.88388" lon="6.43646">
        <ele>1298.64</ele>
        <time>2013-09-28T09:12:54Z</time>
      </trkpt>
      <trkpt lat="45.8838" lon="6.43681">
        <ele>1300.03</ele>
        <time>2013-09-28T09:13:01Z</time>
      </trkpt>
      <trkpt lat="45.88371" lon="6.43712">
        <ele>1301.03</ele>
        <time>2013-09-28T09:13:07Z</time>
      </trkpt>
      <trkpt lat="45.88362" lon="6.43747">
        <ele>1302.47</ele>
        <time>2013-09-28T09:13:14Z</time>
      </trkpt>
      <trkpt lat="45.88356" lon="6.4378">
        <ele>1302.7</ele>
        <time>2013-09-28T09:13:20Z</time>
      </trkpt>
      <trkpt lat="45.8835" lon="6.43812">
        <ele>1303.89</ele>
        <time>2013-09-28T09:13:26Z</time>
      </trkpt>
      <trkpt lat="45.88339" lon="6.43844">
        <ele>1308.07</ele>
        <time>2013-09-28T09:13:32Z</time>
      </trkpt>
      <trkpt lat="45.88326" lon="6.4387">
        <ele>1309.15</ele>
        <time>2013-09-28T09:13:37Z</time>
      </trkpt>
      <trkpt lat="45.88309" lon="6.43899">
        <ele>1310.29</ele>
        <time>2013-09-28T09:13:43Z</time>
      </trkpt>
      <trkpt lat="45.88294" lon="6.43928">
        <ele>1312.09</ele>
        <time>2013-09-28T09:13:49Z</time>
      </trkpt>
      <trkpt lat="45.88283" lon="6.4396">
        <ele>1314.48</ele>
        <time>2013-09-28T09:13:55Z</time>
      </trkpt>
      <trkpt lat="45.88278" lon="6.43994">
        <ele>1315.34</ele>
        <time>2013-09-28T09:14:01Z</time>
      </trkpt>
      <trkpt lat="45.88274" lon="6.44028">
        <ele>1316.66</ele>
        <time>2013-09-28T09:14:07Z</time>
      </trkpt>
      <trkpt lat="45.88269" lon="6.4406">
        <ele>1317.47</ele>
        <time>2013-09-28T09:14:13Z</time>
      </trkpt>
      <trkpt lat="45.8826" lon="6.4409">
        <ele>1319.9</ele>
        <time>2013-09-28T09:14:20Z</time>
      </trkpt>
      <trkpt lat="45.88251" lon="6.4412">
        <ele>1321.9</ele>
        <time>2013-09-28T09:14:27Z</time>
      </trkpt>
      <trkpt lat="45.8824" lon="6.44148">
        <ele>1322.45</ele>
        <time>2013-09-28T09:14:34Z</time>
      </trkpt>
      <trkpt lat="45.88227" lon="6.44176">
        <ele>1324.18</ele>
        <time>2013-09-28T09:14:41Z</time>
      </trkpt>
      <trkpt lat="45.88214" lon="6.44204">
        <ele>1325.34</ele>
        <time>2013-09-28T09:14:48Z</time>
      </trkpt>
      <trkpt lat="45.88199" lon="6.44228">
        <ele>1327.58</ele>
        <time>2013-09-28T09:14:55Z</time>
      </trkpt>
      <trkpt lat="45.88176" lon="6.44239">
        <ele>1329.98</ele>
        <time>2013-09-28T09:15:02Z</time>
      </trkpt>
      <trkpt lat="45.88156" lon="6.44254">
        <ele>1331.87</ele>
        <time>2013-09-28T09:15:09Z</time>
      </trkpt>
      <trkpt lat="45.88141" lon="6.44279">
        <ele>1332.5</ele>
        <time>2013-09-28T09:15:16Z</time>
      </trkpt>
      <trkpt lat="45.88123" lon="6.44305">
        <ele>1335.37</ele>
        <time>2013-09-28T09:15:24Z</time>
      </trkpt>
      <trkpt lat="45.88103" lon="6.4432">
        <ele>1338.18</ele>
        <time>2013-09-28T09:15:31Z</time>
      </trkpt>
      <trkpt lat="45.88081" lon="6.44332">
        <ele>1340.61</ele>
        <time>2013-09-28T09:15:39Z</time>
      </trkpt>
      <trkpt lat="45.88061" lon="6.44355">
        <ele>1341.9</ele>
        <time>2013-09-28T09:15:47Z</time>
      </trkpt>
      <trkpt lat="45.88045" lon="6.44378">
        <ele>1344.61</ele>
        <time>2013-09-28T09:15:54Z</time>
      </trkpt>
      <trkpt lat="45.8803" lon="6.44406">
        <ele>1346.72</ele>
        <time>2013-09-28T09:16:02Z</time>
      </trkpt>
      <trkpt lat="45.88022" lon="6.44437">
        <ele>1348.43</ele>
        <time>2013-09-28T09:16:09Z</time>
      </trkpt>
      <trkpt lat="45.88034" lon="6.44465">
        <ele>1350.87</ele>
        <time>2013-09-28T09:16:16Z</time>
      </trkpt>
      <trkpt lat="45.88058" lon="6.4446">
        <ele>1351.26</ele>
        <time>2013-09-28T09:16:21Z</time>
      </trkpt>
      <trkpt lat="45.88079" lon="6.44444">
        <ele>1351.4</ele>
        <time>2013-09-28T09:16:26Z</time>
      </trkpt>
      <trkpt lat="45.881" lon="6.44425">
        <ele>1351.99</ele>
        <time>2013-09-28T09:16:32Z</time>
      </trkpt>
      <trkpt lat="45.88122" lon="6.44407">
        <ele>1352.55</ele>
        <time>2013-09-28T09:16:39Z</time>
      </trkpt>
      <trkpt lat="45.88141" lon="6.44388">
        <ele>1355.55</ele>
        <time>2013-09-28T09:16:46Z</time>
      </trkpt>
      <trkpt lat="45.88162" lon="6.44372">
        <ele>1357.41</ele>
        <time>2013-09-28T09:16:53Z</time>
      </trkpt>
      <trkpt lat="45.88183" lon="6.44388">
        <ele>1359.67</ele>
        <time>2013-09-28T09:17:01Z</time>
      </trkpt>
      <trkpt lat="45.88175" lon="6.44419">
        <ele>1363.41</ele>
        <time>2013-09-28T09:17:08Z</time>
      </trkpt>
      <trkpt lat="45.88157" lon="6.44444">
        <ele>1365.77</ele>
        <time>2013-09-28T09:17:16Z</time>
      </trkpt>
      <trkpt lat="45.88141" lon="6.44473">
        <ele>1368.73</ele>
        <time>2013-09-28T09:17:24Z</time>
      </trkpt>
      <trkpt lat="45.88129" lon="6.44505">
        <ele>1369.92</ele>
        <time>2013-09-28T09:17:32Z</time>
      </trkpt>
      <trkpt lat="45.88119" lon="6.44539">
        <ele>1370.93</ele>
        <time>2013-09-28T09:17:40Z</time>
      </trkpt>
      <trkpt lat="45.88107" lon="6.44568">
        <ele>1370.93</ele>
        <time>2013-09-28T09:17:47Z</time>
      </trkpt>
      <trkpt lat="45.88093" lon="6.44594">
        <ele>1374.48</ele>
        <time>2013-09-28T09:17:54Z</time>
      </trkpt>
      <trkpt lat="45.88072" lon="6.44617">
        <ele>1377.12</ele>
        <time>2013-09-28T09:18:02Z</time>
      </trkpt>
      <trkpt lat="45.88054" lon="6.44636">
        <ele>1379.03</ele>
        <time>2013-09-28T09:18:09Z</time>
      </trkpt>
      <trkpt lat="45.88036" lon="6.44656">
        <ele>1379.85</ele>
        <time>2013-09-28T09:18:16Z</time>
      </trkpt>
      <trkpt lat="45.88019" lon="6.44677">
        <ele>1385.46</ele>
        <time>2013-09-28T09:18:23Z</time>
      </trkpt>
      <trkpt lat="45.88002" lon="6.44704">
        <ele>1388.95</ele>
        <time>2013-09-28T09:18:31Z</time>
      </trkpt>
      <trkpt lat="45.87993" lon="6.44736">
        <ele>1390.93</ele>
        <time>2013-09-28T09:18:39Z</time>
      </trkpt>
      <trkpt lat="45.87985" lon="6.44771">
        <ele>1392.74</ele>
        <time>2013-09-28T09:18:47Z</time>
      </trkpt>
      <trkpt lat="45.87974" lon="6.448">
        <ele>1394.06</ele>
        <time>2013-09-28T09:18:54Z</time>
      </trkpt>
      <trkpt lat="45.87956" lon="6.44821">
        <ele>1395.71</ele>
        <time>2013-09-28T09:19:01Z</time>
      </trkpt>
      <trkpt lat="45.87935" lon="6.44837">
        <ele>1397.24</ele>
        <time>2013-09-28T09:19:08Z</time>
      </trkpt>
      <trkpt lat="45.87914" lon="6.44852">
        <ele>1398</ele>
        <time>2013-09-28T09:19:15Z</time>
      </trkpt>
      <trkpt lat="45.87891" lon="6.44869">
        <ele>1400.44</ele>
        <time>2013-09-28T09:19:23Z</time>
      </trkpt>
      <trkpt lat="45.87868" lon="6.44885">
        <ele>1401.44</ele>
        <time>2013-09-28T09:19:31Z</time>
      </trkpt>
      <trkpt lat="45.87846" lon="6.449">
        <ele>1402.66</ele>
        <time>2013-09-28T09:19:39Z</time>
      </trkpt>
      <trkpt lat="45.87824" lon="6.44914">
        <ele>1405.81</ele>
        <time>2013-09-28T09:19:47Z</time>
      </trkpt>
      <trkpt lat="45.87802" lon="6.4493">
        <ele>1408.43</ele>
        <time>2013-09-28T09:19:55Z</time>
      </trkpt>
      <trkpt lat="45.87781" lon="6.44951">
        <ele>1410.75</ele>
        <time>2013-09-28T09:20:03Z</time>
      </trkpt>
      <trkpt lat="45.87763" lon="6.44974">
        <ele>1412.86</ele>
        <time>2013-09-28T09:20:11Z</time>
      </trkpt>
      <trkpt lat="45.87746" lon="6.44997">
        <ele>1414.02</ele>
        <time>2013-09-28T09:20:19Z</time>
      </trkpt>
      <trkpt lat="45.87728" lon="6.4502">
        <ele>1415.24</ele>
        <time>2013-09-28T09:20:27Z</time>
      </trkpt>
      <trkpt lat="45.8771" lon="6.45044">
        <ele>1416.38</ele>
        <time>2013-09-28T09:20:35Z</time>
      </trkpt>
      <trkpt lat="45.87694" lon="6.45069">
        <ele>1418.87</ele>
        <time>2013-09-28T09:20:43Z</time>
      </trkpt>
      <trkpt lat="45.87683" lon="6.451">
        <ele>1421.56</ele>
        <time>2013-09-28T09:20:52Z</time>
      </trkpt>
      <trkpt lat="45.87697" lon="6.45126">
        <ele>1423.06</ele>
        <time>2013-09-28T09:21:00Z</time>
      </trkpt>
      <trkpt lat="45.8772" lon="6.45115">
        <ele>1426.03</ele>
        <time>2013-09-28T09:21:08Z</time>
      </trkpt>
      <trkpt lat="45.87741" lon="6.45098">
        <ele>1428.01</ele>
        <time>2013-09-28T09:21:16Z</time>
      </trkpt>
      <trkpt lat="45.87765" lon="6.45089">
        <ele>1429.79</ele>
        <time>2013-09-28T09:21:24Z</time>
      </trkpt>
      <trkpt lat="45.87788" lon="6.45091">
        <ele>1431.33</ele>
        <time>2013-09-28T09:21:31Z</time>
      </trkpt>
      <trkpt lat="45.87814" lon="6.45097">
        <ele>1433.01</ele>
        <time>2013-09-28T09:21:39Z</time>
      </trkpt>
      <trkpt lat="45.87839" lon="6.45097">
        <ele>1434.89</ele>
        <time>2013-09-28T09:21:47Z</time>
      </trkpt>
      <trkpt lat="45.87861" lon="6.45088">
        <ele>1436.61</ele>
        <time>2013-09-28T09:21:54Z</time>
      </trkpt>
      <trkpt lat="45.87882" lon="6.45075">
        <ele>1437.6</ele>
        <time>2013-09-28T09:22:01Z</time>
      </trkpt>
      <trkpt lat="45.87903" lon="6.45091">
        <ele>1443.97</ele>
        <time>2013-09-28T09:22:09Z</time>
      </trkpt>
      <trkpt lat="45.87896" lon="6.45125">
        <ele>1444.86</ele>
        <time>2013-09-28T09:22:16Z</time>
      </trkpt>
      <trkpt lat="45.87878" lon="6.45149">
        <ele>1446.87</ele>
        <time>2013-09-28T09:22:23Z</time>
      </trkpt>
      <trkpt lat="45.87859" lon="6.45169">
        <ele>1447.33</ele>
        <time>2013-09-28T09:22:30Z</time>
      </trkpt>
      <trkpt lat="45.87838" lon="6.45184">
        <ele>1447.87</ele>
        <time>2013-09-28T09:22:37Z</time>
      </trkpt>
      <trkpt lat="45.87816" lon="6.45197">
        <ele>1448.92</ele>
        <time>2013-09-28T09:22:44Z</time>
      </trkpt>
      <trkpt lat="45.87794" lon="6.45208">
        <ele>1450.32</ele>
        <time>2013-09-28T09:22:51Z</time>
      </trkpt>
      <trkpt lat="45.87772" lon="6.4522">
        <ele>1452.79</ele>
        <time>2013-09-28T09:22:58Z</time>
      </trkpt>
      <trkpt lat="45.87751" lon="6.45234">
        <ele>1454.98</ele>
        <time>2013-09-28T09:23:05Z</time>
      </trkpt>
      <trkpt lat="45.87727" lon="6.45247">
        <ele>1458.71</ele>
        <time>2013-09-28T09:23:13Z</time>
      </trkpt>
      <trkpt lat="45.87703" lon="6.45261">
        <ele>1460.3</ele>
        <time>2013-09-28T09:23:21Z</time>
      </trkpt>
      <trkpt lat="45.87683" lon="6.45273">
        <ele>1460.62</ele>
        <time>2013-09-28T09:23:28Z</time>
      </trkpt>
      <trkpt lat="45.87661" lon="6.45285">
        <ele>1462.27</ele>
        <time>2013-09-28T09:23:35Z</time>
      </trkpt>
      <trkpt lat="45.8764" lon="6.45301">
        <ele>1465.29</ele>
        <time>2013-09-28T09:23:42Z</time>
      </trkpt>
      <trkpt lat="45.87621" lon="6.45319">
        <ele>1467.39</ele>
        <time>2013-09-28T09:23:49Z</time>
      </trkpt>
      <trkpt lat="45.87602" lon="6.45339">
        <ele>1469.18</ele>
        <time>2013-09-28T09:23:56Z</time>
      </trkpt>
      <trkpt lat="45.87583" lon="6.45363">
        <ele>1470.97</ele>
        <time>2013-09-28T09:24:04Z</time>
      </trkpt>
      <trkpt lat="45.87565" lon="6.45383">
        <ele>1471.67</ele>
        <time>2013-09-28T09:24:11Z</time>
      </trkpt>
      <trkpt lat="45.87544" lon="6.45402">
        <ele>1474.22</ele>
        <time>2013-09-28T09:24:18Z</time>
      </trkpt>
      <trkpt lat="45.87522" lon="6.45416">
        <ele>1475.1</ele>
        <time>2013-09-28T09:24:25Z</time>
      </trkpt>
      <trkpt lat="45.87497" lon="6.45426">
        <ele>1475.65</ele>
        <time>2013-09-28T09:24:32Z</time>
      </trkpt>
      <trkpt lat="45.87474" lon="6.45437">
        <ele>1477.43</ele>
        <time>2013-09-28T09:24:39Z</time>
      </trkpt>
      <trkpt lat="45.87451" lon="6.45448">
        <ele>1478.34</ele>
        <time>2013-09-28T09:24:46Z</time>
      </trkpt>
      <trkpt lat="45.87428" lon="6.45458">
        <ele>1479.79</ele>
        <time>2013-09-28T09:24:53Z</time>
      </trkpt>
      <trkpt lat="45.87404" lon="6.45469">
        <ele>1482.87</ele>
        <time>2013-09-28T09:25:00Z</time>
      </trkpt>
      <trkpt lat="45.87381" lon="6.4548">
        <ele>1485.23</ele>
        <time>2013-09-28T09:25:07Z</time>
      </trkpt>
      <trkpt lat="45.87364" lon="6.45503">
        <ele>1487.71</ele>
        <time>2013-09-28T09:25:14Z</time>
      </trkpt>
      <trkpt lat="45.87374" lon="6.45532">
        <ele>1488.33</ele>
        <time>2013-09-28T09:25:20Z</time>
      </trkpt>
      <trkpt lat="45.874" lon="6.45539">
        <ele>1488.38</ele>
        <time>2013-09-28T09:25:26Z</time>
      </trkpt>
      <trkpt lat="45.87425" lon="6.4553">
        <ele>1489.29</ele>
        <time>2013-09-28T09:25:32Z</time>
      </trkpt>
      <trkpt lat="45.8745" lon="6.45523">
        <ele>1489.41</ele>
        <time>2013-09-28T09:25:38Z</time>
      </trkpt>
      <trkpt lat="45.87474" lon="6.45516">
        <ele>1491.36</ele>
        <time>2013-09-28T09:25:44Z</time>
      </trkpt>
      <trkpt lat="45.87498" lon="6.45507">
        <ele>1492.62</ele>
        <time>2013-09-28T09:25:50Z</time>
      </trkpt>
      <trkpt lat="45.87522" lon="6.45501">
        <ele>1493.38</ele>
        <time>2013-09-28T09:25:56Z</time>
      </trkpt>
      <trkpt lat="45.87545" lon="6.45493">
        <ele>1493.97</ele>
        <time>2013-09-28T09:26:02Z</time>
      </trkpt>
      <trkpt lat="45.87568" lon="6.45485">
        <ele>1495.82</ele>
        <time>2013-09-28T09:26:08Z</time>
      </trkpt>
      <trkpt lat="45.8759" lon="6.45477">
        <ele>1496.58</ele>
        <time>2013-09-28T09:26:14Z</time>
      </trkpt>
      <trkpt lat="45.87614" lon="6.45483">
        <ele>1504.4</ele>
        <time>2013-09-28T09:26:21Z</time>
      </trkpt>
      <trkpt lat="45.87607" lon="6.45517">
        <ele>1506.93</ele>
        <time>2013-09-28T09:26:28Z</time>
      </trkpt>
      <trkpt lat="45.87586" lon="6.4553">
        <ele>1507.11</ele>
        <time>2013-09-28T09:26:34Z</time>
      </trkpt>
      <trkpt lat="45.87562" lon="6.45543">
        <ele>1508.78</ele>
        <time>2013-09-28T09:26:41Z</time>
      </trkpt>
      <trkpt lat="45.87539" lon="6.45558">
        <ele>1510.75</ele>
        <time>2013-09-28T09:26:48Z</time>
      </trkpt>
      <trkpt lat="45.87518" lon="6.45576">
        <ele>1512.75</ele>
        <time>2013-09-28T09:26:55Z</time>
      </trkpt>
      <trkpt lat="45.875" lon="6.45596">
        <ele>1514.09</ele>
        <time>2013-09-28T09:27:02Z</time>
      </trkpt>
      <trkpt lat="45.87481" lon="6.45617">
        <ele>1513.98</ele>
        <time>2013-09-28T09:27:09Z</time>
      </trkpt>
      <trkpt lat="45.87464" lon="6.45641">
        <ele>1514.95</ele>
        <time>2013-09-28T09:27:16Z</time>
      </trkpt>
      <trkpt lat="45.87447" lon="6.45669">
        <ele>1516.14</ele>
        <time>2013-09-28T09:27:24Z</time>
      </trkpt>
      <trkpt lat="45.87433" lon="6.45697">
        <ele>1518.16</ele>
        <time>2013-09-28T09:27:32Z</time>
      </trkpt>
      <trkpt lat="45.87422" lon="6.45726">
        <ele>1519.76</ele>
        <time>2013-09-28T09:27:39Z</time>
      </trkpt>
      <trkpt lat="45.87415" lon="6.45761">
        <ele>1521.65</ele>
        <time>2013-09-28T09:27:47Z</time>
      </trkpt>
      <trkpt lat="45.87411" lon="6.45793">
        <ele>1524.01</ele>
        <time>2013-09-28T09:27:54Z</time>
      </trkpt>
      <trkpt lat="45.8741" lon="6.45827">
        <ele>1525.28</ele>
        <time>2013-09-28T09:28:01Z</time>
      </trkpt>
      <trkpt lat="45.8741" lon="6.4586">
        <ele>1527.36</ele>
        <time>2013-09-28T09:28:08Z</time>
      </trkpt>
      <trkpt lat="45.87408" lon="6.45892">
        <ele>1527.86</ele>
        <time>2013-09-28T09:28:15Z</time>
      </trkpt>
      <trkpt lat="45.87407" lon="6.45926">
        <ele>1530.23</ele>
        <time>2013-09-28T09:28:22Z</time>
      </trkpt>
      <trkpt lat="45.87407" lon="6.45962">
        <ele>1530.09</ele>
        <time>2013-09-28T09:28:29Z</time>
      </trkpt>
      <trkpt lat="45.87406" lon="6.45995">
        <ele>1531.16</ele>
        <time>2013-09-28T09:28:35Z</time>
      </trkpt>
      <trkpt lat="45.87405" lon="6.46028">
        <ele>1531.43</ele>
        <time>2013-09-28T09:28:42Z</time>
      </trkpt>
      <trkpt lat="45.87403" lon="6.4606">
        <ele>1532.16</ele>
        <time>2013-09-28T09:28:48Z</time>
      </trkpt>
      <trkpt lat="45.87398" lon="6.46093">
        <ele>1533.04</ele>
        <time>2013-09-28T09:28:54Z</time>
      </trkpt>
      <trkpt lat="45.87389" lon="6.46127">
        <ele>1534.01</ele>
        <time>2013-09-28T09:29:01Z</time>
      </trkpt>
      <trkpt lat="45.87378" lon="6.46156">
        <ele>1535.16</ele>
        <time>2013-09-28T09:29:07Z</time>
      </trkpt>
      <trkpt lat="45.87365" lon="6.46185">
        <ele>1535.21</ele>
        <time>2013-09-28T09:29:13Z</time>
      </trkpt>
      <trkpt lat="45.87351" lon="6.46213">
        <ele>1535.86</ele>
        <time>2013-09-28T09:29:19Z</time>
      </trkpt>
      <trkpt lat="45.87338" lon="6.46241">
        <ele>1537.64</ele>
        <time>2013-09-28T09:29:25Z</time>
      </trkpt>
      <trkpt lat="45.87326" lon="6.46269">
        <ele>1539.42</ele>
        <time>2013-09-28T09:29:31Z</time>
      </trkpt>
      <trkpt lat="45.87312" lon="6.46299">
        <ele>1539.15</ele>
        <time>2013-09-28T09:29:37Z</time>
      </trkpt>
      <trkpt lat="45.87298" lon="6.46331">
        <ele>1539</ele>
        <time>2013-09-28T09:29:43Z</time>
      </trkpt>
      <trkpt lat="45.87285" lon="6.46362">
        <ele>1539.3</ele>
        <time>2013-09-28T09:29:49Z</time>
      </trkpt>
      <trkpt lat="45.87271" lon="6.46393">
        <ele>1540.29</ele>
        <time>2013-09-28T09:29:55Z</time>
      </trkpt>
      <trkpt lat="45.87257" lon="6.46424">
        <ele>1540.61</ele>
        <time>2013-09-28T09:30:01Z</time>
      </trkpt>
      <trkpt lat="45.87242" lon="6.46453">
        <ele>1541.31</ele>
        <time>2013-09-28T09:30:07Z</time>
      </trkpt>
      <trkpt lat="45.87229" lon="6.46483">
        <ele>1543.54</ele>
        <time>2013-09-28T09:30:14Z</time>
      </trkpt>
      <trkpt lat="45.87245" lon="6.46459">
        <ele>1545.26</ele>
        <time>2013-09-28T09:33:55Z</time>
      </trkpt>
      <trkpt lat="45.87259" lon="6.46429">
        <ele>1546.38</ele>
        <time>2013-09-28T09:34:01Z</time>
      </trkpt>
      <trkpt lat="45.87274" lon="6.46395">
        <ele>1546.49</ele>
        <time>2013-09-28T09:34:06Z</time>
      </trkpt>
      <trkpt lat="45.87288" lon="6.4636">
        <ele>1544.98</ele>
        <time>2013-09-28T09:34:11Z</time>
      </trkpt>
      <trkpt lat="45.87307" lon="6.46321">
        <ele>1544.52</ele>
        <time>2013-09-28T09:34:16Z</time>
      </trkpt>
      <trkpt lat="45.87326" lon="6.46275">
        <ele>1543.93</ele>
        <time>2013-09-28T09:34:21Z</time>
      </trkpt>
      <trkpt lat="45.87351" lon="6.46224">
        <ele>1542.54</ele>
        <time>2013-09-28T09:34:26Z</time>
      </trkpt>
      <trkpt lat="45.87377" lon="6.46165">
        <ele>1540.58</ele>
        <time>2013-09-28T09:34:31Z</time>
      </trkpt>
      <trkpt lat="45.874" lon="6.46095">
        <ele>1538.37</ele>
        <time>2013-09-28T09:34:36Z</time>
      </trkpt>
      <trkpt lat="45.87408" lon="6.46015">
        <ele>1536.9</ele>
        <time>2013-09-28T09:34:41Z</time>
      </trkpt>
      <trkpt lat="45.87411" lon="6.45932">
        <ele>1535.07</ele>
        <time>2013-09-28T09:34:46Z</time>
      </trkpt>
      <trkpt lat="45.87414" lon="6.45849">
        <ele>1533.08</ele>
        <time>2013-09-28T09:34:51Z</time>
      </trkpt>
      <trkpt lat="45.8742" lon="6.45757">
        <ele>1529.72</ele>
        <time>2013-09-28T09:34:56Z</time>
      </trkpt>
      <trkpt lat="45.87451" lon="6.45668">
        <ele>1524.2</ele>
        <time>2013-09-28T09:35:01Z</time>
      </trkpt>
      <trkpt lat="45.87499" lon="6.45602">
        <ele>1520.78</ele>
        <time>2013-09-28T09:35:06Z</time>
      </trkpt>
      <trkpt lat="45.87552" lon="6.45551">
        <ele>1516.94</ele>
        <time>2013-09-28T09:35:11Z</time>
      </trkpt>
      <trkpt lat="45.87599" lon="6.45523">
        <ele>1512.28</ele>
        <time>2013-09-28T09:35:16Z</time>
      </trkpt>
      <trkpt lat="45.87608" lon="6.45485">
        <ele>1509.89</ele>
        <time>2013-09-28T09:35:21Z</time>
      </trkpt>
      <trkpt lat="45.8758" lon="6.45476">
        <ele>1506.99</ele>
        <time>2013-09-28T09:35:26Z</time>
      </trkpt>
      <trkpt lat="45.87538" lon="6.45492">
        <ele>1503.93</ele>
        <time>2013-09-28T09:35:31Z</time>
      </trkpt>
      <trkpt lat="45.87489" lon="6.45506">
        <ele>1500.78</ele>
        <time>2013-09-28T09:35:36Z</time>
      </trkpt>
      <trkpt lat="45.87437" lon="6.45522">
        <ele>1498.26</ele>
        <time>2013-09-28T09:35:41Z</time>
      </trkpt>
      <trkpt lat="45.87391" lon="6.45534">
        <ele>1495.87</ele>
        <time>2013-09-28T09:35:46Z</time>
      </trkpt>
      <trkpt lat="45.87368" lon="6.45507">
        <ele>1493.51</ele>
        <time>2013-09-28T09:35:51Z</time>
      </trkpt>
      <trkpt lat="45.87407" lon="6.45472">
        <ele>1489.65</ele>
        <time>2013-09-28T09:35:56Z</time>
      </trkpt>
      <trkpt lat="45.87465" lon="6.45445">
        <ele>1485.45</ele>
        <time>2013-09-28T09:36:01Z</time>
      </trkpt>
      <trkpt lat="45.87527" lon="6.45416">
        <ele>1480.52</ele>
        <time>2013-09-28T09:36:06Z</time>
      </trkpt>
      <trkpt lat="45.87582" lon="6.45367">
        <ele>1474.82</ele>
        <time>2013-09-28T09:36:11Z</time>
      </trkpt>
      <trkpt lat="45.87638" lon="6.45312">
        <ele>1469.41</ele>
        <time>2013-09-28T09:36:16Z</time>
      </trkpt>
      <trkpt lat="45.87702" lon="6.4527">
        <ele>1463.78</ele>
        <time>2013-09-28T09:36:21Z</time>
      </trkpt>
      <trkpt lat="45.87766" lon="6.4523">
        <ele>1458.22</ele>
        <time>2013-09-28T09:36:26Z</time>
      </trkpt>
      <trkpt lat="45.87826" lon="6.45194">
        <ele>1453.47</ele>
        <time>2013-09-28T09:36:31Z</time>
      </trkpt>
      <trkpt lat="45.87875" lon="6.45153">
        <ele>1450.01</ele>
        <time>2013-09-28T09:36:36Z</time>
      </trkpt>
      <trkpt lat="45.87903" lon="6.45106">
        <ele>1446.82</ele>
        <time>2013-09-28T09:36:41Z</time>
      </trkpt>
      <trkpt lat="45.87875" lon="6.45078">
        <ele>1443.96</ele>
        <time>2013-09-28T09:36:46Z</time>
      </trkpt>
      <trkpt lat="45.87825" lon="6.45095">
        <ele>1440.44</ele>
        <time>2013-09-28T09:36:51Z</time>
      </trkpt>
      <trkpt lat="45.87768" lon="6.45087">
        <ele>1437.78</ele>
        <time>2013-09-28T09:36:56Z</time>
      </trkpt>
      <trkpt lat="45.8772" lon="6.45109">
        <ele>1434.33</ele>
        <time>2013-09-28T09:37:01Z</time>
      </trkpt>
      <trkpt lat="45.87688" lon="6.45104">
        <ele>1430.29</ele>
        <time>2013-09-28T09:37:06Z</time>
      </trkpt>
      <trkpt lat="45.87711" lon="6.45051">
        <ele>1425.03</ele>
        <time>2013-09-28T09:37:11Z</time>
      </trkpt>
      <trkpt lat="45.87755" lon="6.44991">
        <ele>1420.69</ele>
        <time>2013-09-28T09:37:16Z</time>
      </trkpt>
      <trkpt lat="45.87806" lon="6.44931">
        <ele>1414.39</ele>
        <time>2013-09-28T09:37:21Z</time>
      </trkpt>
      <trkpt lat="45.87869" lon="6.44886">
        <ele>1408.41</ele>
        <time>2013-09-28T09:37:26Z</time>
      </trkpt>
      <trkpt lat="45.87935" lon="6.44839">
        <ele>1401.32</ele>
        <time>2013-09-28T09:37:31Z</time>
      </trkpt>
      <trkpt lat="45.87982" lon="6.44781">
        <ele>1395.73</ele>
        <time>2013-09-28T09:37:36Z</time>
      </trkpt>
      <trkpt lat="45.88005" lon="6.447">
        <ele>1391.77</ele>
        <time>2013-09-28T09:37:41Z</time>
      </trkpt>
      <trkpt lat="45.88053" lon="6.44641">
        <ele>1387.56</ele>
        <time>2013-09-28T09:37:46Z</time>
      </trkpt>
      <trkpt lat="45.881" lon="6.44585">
        <ele>1383.24</ele>
        <time>2013-09-28T09:37:51Z</time>
      </trkpt>
      <trkpt lat="45.8813" lon="6.44507">
        <ele>1378.5</ele>
        <time>2013-09-28T09:37:56Z</time>
      </trkpt>
      <trkpt lat="45.88163" lon="6.44437">
        <ele>1374.43</ele>
        <time>2013-09-28T09:38:01Z</time>
      </trkpt>
      <trkpt lat="45.88184" lon="6.44392">
        <ele>1372.59</ele>
        <time>2013-09-28T09:38:06Z</time>
      </trkpt>
      <trkpt lat="45.88154" lon="6.44373">
        <ele>1368.71</ele>
        <time>2013-09-28T09:38:11Z</time>
      </trkpt>
      <trkpt lat="45.88113" lon="6.44407">
        <ele>1362.24</ele>
        <time>2013-09-28T09:38:16Z</time>
      </trkpt>
      <trkpt lat="45.88066" lon="6.44448">
        <ele>1358.38</ele>
        <time>2013-09-28T09:38:21Z</time>
      </trkpt>
      <trkpt lat="45.88027" lon="6.44447">
        <ele>1357.31</ele>
        <time>2013-09-28T09:38:26Z</time>
      </trkpt>
      <trkpt lat="45.88042" lon="6.44387">
        <ele>1355.41</ele>
        <time>2013-09-28T09:38:31Z</time>
      </trkpt>
      <trkpt lat="45.88085" lon="6.44333">
        <ele>1351.34</ele>
        <time>2013-09-28T09:38:36Z</time>
      </trkpt>
      <trkpt lat="45.88139" lon="6.44289">
        <ele>1349.08</ele>
        <time>2013-09-28T09:38:41Z</time>
      </trkpt>
      <trkpt lat="45.88192" lon="6.44235">
        <ele>1344.05</ele>
        <time>2013-09-28T09:38:46Z</time>
      </trkpt>
      <trkpt lat="45.88236" lon="6.44164">
        <ele>1337.69</ele>
        <time>2013-09-28T09:38:51Z</time>
      </trkpt>
      <trkpt lat="45.88266" lon="6.44079">
        <ele>1334.06</ele>
        <time>2013-09-28T09:38:56Z</time>
      </trkpt>
      <trkpt lat="45.88282" lon="6.43983">
        <ele>1328.83</ele>
        <time>2013-09-28T09:39:01Z</time>
      </trkpt>
      <trkpt lat="45.88312" lon="6.43897">
        <ele>1324.81</ele>
        <time>2013-09-28T09:39:06Z</time>
      </trkpt>
      <trkpt lat="45.88349" lon="6.43816">
        <ele>1320.88</ele>
        <time>2013-09-28T09:39:11Z</time>
      </trkpt>
      <trkpt lat="45.88369" lon="6.43726">
        <ele>1317.33</ele>
        <time>2013-09-28T09:39:16Z</time>
      </trkpt>
      <trkpt lat="45.88391" lon="6.43641">
        <ele>1312.62</ele>
        <time>2013-09-28T09:39:21Z</time>
      </trkpt>
      <trkpt lat="45.88427" lon="6.43568">
        <ele>1309.55</ele>
        <time>2013-09-28T09:39:26Z</time>
      </trkpt>
      <trkpt lat="45.88472" lon="6.43505">
        <ele>1306.76</ele>
        <time>2013-09-28T09:39:31Z</time>
      </trkpt>
      <trkpt lat="45.88515" lon="6.43433">
        <ele>1301.72</ele>
        <time>2013-09-28T09:39:36Z</time>
      </trkpt>
      <trkpt lat="45.88572" lon="6.43382">
        <ele>1295.35</ele>
        <time>2013-09-28T09:39:41Z</time>
      </trkpt>
      <trkpt lat="45.8863" lon="6.4334">
        <ele>1289.36</ele>
        <time>2013-09-28T09:39:46Z</time>
      </trkpt>
      <trkpt lat="45.88695" lon="6.43337">
        <ele>1286.9</ele>
        <time>2013-09-28T09:39:51Z</time>
      </trkpt>
      <trkpt lat="45.88761" lon="6.43307">
        <ele>1278.38</ele>
        <time>2013-09-28T09:39:56Z</time>
      </trkpt>
      <trkpt lat="45.88824" lon="6.43272">
        <ele>1274.02</ele>
        <time>2013-09-28T09:40:01Z</time>
      </trkpt>
      <trkpt lat="45.88886" lon="6.43239">
        <ele>1268.65</ele>
        <time>2013-09-28T09:40:06Z</time>
      </trkpt>
      <trkpt lat="45.88938" lon="6.43193">
        <ele>1263.81</ele>
        <time>2013-09-28T09:40:11Z</time>
      </trkpt>
      <trkpt lat="45.88991" lon="6.43139">
        <ele>1259.75</ele>
        <time>2013-09-28T09:40:16Z</time>
      </trkpt>
      <trkpt lat="45.89049" lon="6.43091">
        <ele>1254.98</ele>
        <time>2013-09-28T09:40:21Z</time>
      </trkpt>
      <trkpt lat="45.89109" lon="6.43052">
        <ele>1250.47</ele>
        <time>2013-09-28T09:40:26Z</time>
      </trkpt>
      <trkpt lat="45.89175" lon="6.43031">
        <ele>1247.66</ele>
        <time>2013-09-28T09:40:31Z</time>
      </trkpt>
      <trkpt lat="45.89238" lon="6.43001">
        <ele>1243.72</ele>
        <time>2013-09-28T09:40:36Z</time>
      </trkpt>
      <trkpt lat="45.89303" lon="6.42979">
        <ele>1239.9</ele>
        <time>2013-09-28T09:40:41Z</time>
      </trkpt>
      <trkpt lat="45.89367" lon="6.42964">
        <ele>1236.56</ele>
        <time>2013-09-28T09:40:46Z</time>
      </trkpt>
      <trkpt lat="45.89433" lon="6.42963">
        <ele>1234.35</ele>
        <time>2013-09-28T09:40:51Z</time>
      </trkpt>
      <trkpt lat="45.89489" lon="6.42967">
        <ele>1232.09</ele>
        <time>2013-09-28T09:40:56Z</time>
      </trkpt>
      <trkpt lat="45.89535" lon="6.4296">
        <ele>1231.04</ele>
        <time>2013-09-28T09:41:01Z</time>
      </trkpt>
      <trkpt lat="45.89581" lon="6.42926">
        <ele>1225.31</ele>
        <time>2013-09-28T09:41:06Z</time>
      </trkpt>
      <trkpt lat="45.89641" lon="6.42933">
        <ele>1220.15</ele>
        <time>2013-09-28T09:41:11Z</time>
      </trkpt>
      <trkpt lat="45.89702" lon="6.42911">
        <ele>1213.96</ele>
        <time>2013-09-28T09:41:16Z</time>
      </trkpt>
      <trkpt lat="45.8976" lon="6.42875">
        <ele>1208.78</ele>
        <time>2013-09-28T09:41:21Z</time>
      </trkpt>
      <trkpt lat="45.89816" lon="6.42832">
        <ele>1205.51</ele>
        <time>2013-09-28T09:41:26Z</time>
      </trkpt>
      <trkpt lat="45.8987" lon="6.42786">
        <ele>1200.33</ele>
        <time>2013-09-28T09:41:31Z</time>
      </trkpt>
      <trkpt lat="45.89926" lon="6.42758">
        <ele>1196.69</ele>
        <time>2013-09-28T09:41:36Z</time>
      </trkpt>
      <trkpt lat="45.89977" lon="6.42722">
        <ele>1193.22</ele>
        <time>2013-09-28T09:41:41Z</time>
      </trkpt>
      <trkpt lat="45.8999" lon="6.42647">
        <ele>1190.11</ele>
        <time>2013-09-28T09:41:46Z</time>
      </trkpt>
      <trkpt lat="45.89986" lon="6.42564">
        <ele>1186.04</ele>
        <time>2013-09-28T09:41:51Z</time>
      </trkpt>
      <trkpt lat="45.90018" lon="6.4252">
        <ele>1182.43</ele>
        <time>2013-09-28T09:41:56Z</time>
      </trkpt>
      <trkpt lat="45.90071" lon="6.42544">
        <ele>1181.82</ele>
        <time>2013-09-28T09:42:01Z</time>
      </trkpt>
      <trkpt lat="45.90128" lon="6.42529">
        <ele>1178.68</ele>
        <time>2013-09-28T09:42:06Z</time>
      </trkpt>
      <trkpt lat="45.90192" lon="6.42535">
        <ele>1174.8</ele>
        <time>2013-09-28T09:42:11Z</time>
      </trkpt>
      <trkpt lat="45.90253" lon="6.42559">
        <ele>1168.45</ele>
        <time>2013-09-28T09:42:16Z</time>
      </trkpt>
      <trkpt lat="45.90308" lon="6.42608">
        <ele>1163.18</ele>
        <time>2013-09-28T09:42:21Z</time>
      </trkpt>
      <trkpt lat="45.90363" lon="6.42657">
        <ele>1156.87</ele>
        <time>2013-09-28T09:42:26Z</time>
      </trkpt>
      <trkpt lat="45.90408" lon="6.42723">
        <ele>1150.13</ele>
        <time>2013-09-28T09:42:31Z</time>
      </trkpt>
      <trkpt lat="45.90443" lon="6.428">
        <ele>1147.24</ele>
        <time>2013-09-28T09:42:36Z</time>
      </trkpt>
      <trkpt lat="45.90471" lon="6.42884">
        <ele>1141.89</ele>
        <time>2013-09-28T09:42:41Z</time>
      </trkpt>
      <trkpt lat="45.90501" lon="6.42957">
        <ele>1140.05</ele>
        <time>2013-09-28T09:42:46Z</time>
      </trkpt>
      <trkpt lat="45.90536" lon="6.43016">
        <ele>1138.83</ele>
        <time>2013-09-28T09:42:51Z</time>
      </trkpt>
      <trkpt lat="45.90572" lon="6.43045">
        <ele>1133.67</ele>
        <time>2013-09-28T09:42:56Z</time>
      </trkpt>
      <trkpt lat="45.90602" lon="6.43062">
        <ele>1131.37</ele>
        <time>2013-09-28T09:43:01Z</time>
      </trkpt>
      <trkpt lat="45.90621" lon="6.43038">
        <ele>1127.35</ele>
        <time>2013-09-28T09:43:06Z</time>
      </trkpt>
      <trkpt lat="45.90644" lon="6.43006">
        <ele>1126.48</ele>
        <time>2013-09-28T09:43:11Z</time>
      </trkpt>
      <trkpt lat="45.90657" lon="6.42963">
        <ele>1124.68</ele>
        <time>2013-09-28T09:43:16Z</time>
      </trkpt>
      <trkpt lat="45.90658" lon="6.42915">
        <ele>1122.45</ele>
        <time>2013-09-28T09:43:21Z</time>
      </trkpt>
      <trkpt lat="45.90647" lon="6.42864">
        <ele>1119.92</ele>
        <time>2013-09-28T09:43:26Z</time>
      </trkpt>
      <trkpt lat="45.90636" lon="6.42808">
        <ele>1115.9</ele>
        <time>2013-09-28T09:43:31Z</time>
      </trkpt>
      <trkpt lat="45.90627" lon="6.42759">
        <ele>1112.79</ele>
        <time>2013-09-28T09:43:36Z</time>
      </trkpt>
      <trkpt lat="45.9062" lon="6.42724">
        <ele>1111.61</ele>
        <time>2013-09-28T09:43:42Z</time>
      </trkpt>
      <trkpt lat="45.90606" lon="6.42681">
        <ele>1112.22</ele>
        <time>2013-09-28T09:43:49Z</time>
      </trkpt>
      <trkpt lat="45.90595" lon="6.4262">
        <ele>1110.42</ele>
        <time>2013-09-28T09:43:55Z</time>
      </trkpt>
      <trkpt lat="45.9059" lon="6.4256">
        <ele>1109.32</ele>
        <time>2013-09-28T09:44:00Z</time>
      </trkpt>
      <trkpt lat="45.90589" lon="6.42492">
        <ele>1106.27</ele>
        <time>2013-09-28T09:44:05Z</time>
      </trkpt>
      <trkpt lat="45.90591" lon="6.42419">
        <ele>1101.6</ele>
        <time>2013-09-28T09:44:10Z</time>
      </trkpt>
      <trkpt lat="45.90596" lon="6.42355">
        <ele>1097.88</ele>
        <time>2013-09-28T09:44:15Z</time>
      </trkpt>
      <trkpt lat="45.90601" lon="6.42291">
        <ele>1094.16</ele>
        <time>2013-09-28T09:44:20Z</time>
      </trkpt>
      <trkpt lat="45.90604" lon="6.42223">
        <ele>1092</ele>
        <time>2013-09-28T09:44:25Z</time>
      </trkpt>
      <trkpt lat="45.90617" lon="6.42169">
        <ele>1091.06</ele>
        <time>2013-09-28T09:44:30Z</time>
      </trkpt>
      <trkpt lat="45.90634" lon="6.42127">
        <ele>1090.03</ele>
        <time>2013-09-28T09:44:35Z</time>
      </trkpt>
      <trkpt lat="45.90657" lon="6.42091">
        <ele>1089.59</ele>
        <time>2013-09-28T09:44:40Z</time>
      </trkpt>
      <trkpt lat="45.90684" lon="6.42059">
        <ele>1089.47</ele>
        <time>2013-09-28T09:44:45Z</time>
      </trkpt>
      <trkpt lat="45.90705" lon="6.42017">
        <ele>1088.16</ele>
        <time>2013-09-28T09:44:50Z</time>
      </trkpt>
      <trkpt lat="45.90734" lon="6.41978">
        <ele>1086.99</ele>
        <time>2013-09-28T09:44:55Z</time>
      </trkpt>
      <trkpt lat="45.90765" lon="6.41936">
        <ele>1086.66</ele>
        <time>2013-09-28T09:45:00Z</time>
      </trkpt>
      <trkpt lat="45.90806" lon="6.41908">
        <ele>1084.81</ele>
        <time>2013-09-28T09:45:05Z</time>
      </trkpt>
      <trkpt lat="45.90855" lon="6.41904">
        <ele>1083.9</ele>
        <time>2013-09-28T09:45:10Z</time>
      </trkpt>
      <trkpt lat="45.90907" lon="6.41897">
        <ele>1084.13</ele>
        <time>2013-09-28T09:45:15Z</time>
      </trkpt>
      <trkpt lat="45.9096" lon="6.41904">
        <ele>1084.3</ele>
        <time>2013-09-28T09:45:20Z</time>
      </trkpt>
      <trkpt lat="45.91007" lon="6.41935">
        <ele>1083.69</ele>
        <time>2013-09-28T09:45:25Z</time>
      </trkpt>
      <trkpt lat="45.91053" lon="6.4196">
        <ele>1083</ele>
        <time>2013-09-28T09:45:30Z</time>
      </trkpt>
      <trkpt lat="45.91101" lon="6.41969">
        <ele>1082.09</ele>
        <time>2013-09-28T09:45:35Z</time>
      </trkpt>
      <trkpt lat="45.91147" lon="6.41947">
        <ele>1081.68</ele>
        <time>2013-09-28T09:45:40Z</time>
      </trkpt>
      <trkpt lat="45.91191" lon="6.41926">
        <ele>1080.86</ele>
        <time>2013-09-28T09:45:45Z</time>
      </trkpt>
      <trkpt lat="45.91236" lon="6.41897">
        <ele>1079.17</ele>
        <time>2013-09-28T09:45:50Z</time>
      </trkpt>
      <trkpt lat="45.91271" lon="6.41848">
        <ele>1078.64</ele>
        <time>2013-09-28T09:45:55Z</time>
      </trkpt>
      <trkpt lat="45.91318" lon="6.41828">
        <ele>1076.61</ele>
        <time>2013-09-28T09:46:00Z</time>
      </trkpt>
      <trkpt lat="45.91368" lon="6.41818">
        <ele>1076.75</ele>
        <time>2013-09-28T09:46:05Z</time>
      </trkpt>
      <trkpt lat="45.91415" lon="6.41834">
        <ele>1078.39</ele>
        <time>2013-09-28T09:46:10Z</time>
      </trkpt>
      <trkpt lat="45.91467" lon="6.41835">
        <ele>1077.31</ele>
        <time>2013-09-28T09:46:15Z</time>
      </trkpt>
      <trkpt lat="45.91519" lon="6.41859">
        <ele>1073.56</ele>
        <time>2013-09-28T09:46:20Z</time>
      </trkpt>
      <trkpt lat="45.91563" lon="6.41913">
        <ele>1071.67</ele>
        <time>2013-09-28T09:46:25Z</time>
      </trkpt>
      <trkpt lat="45.91609" lon="6.41967">
        <ele>1066.54</ele>
        <time>2013-09-28T09:46:30Z</time>
      </trkpt>
      <trkpt lat="45.91668" lon="6.41972">
        <ele>1062.82</ele>
        <time>2013-09-28T09:46:35Z</time>
      </trkpt>
      <trkpt lat="45.91714" lon="6.41921">
        <ele>1058.69</ele>
        <time>2013-09-28T09:46:40Z</time>
      </trkpt>
      <trkpt lat="45.91757" lon="6.4186">
        <ele>1056.36</ele>
        <time>2013-09-28T09:46:45Z</time>
      </trkpt>
      <trkpt lat="45.91791" lon="6.41793">
        <ele>1054.3</ele>
        <time>2013-09-28T09:46:50Z</time>
      </trkpt>
      <trkpt lat="45.91826" lon="6.41728">
        <ele>1052.85</ele>
        <time>2013-09-28T09:46:55Z</time>
      </trkpt>
      <trkpt lat="45.9187" lon="6.41676">
        <ele>1051.1</ele>
        <time>2013-09-28T09:47:00Z</time>
      </trkpt>
      <trkpt lat="45.91904" lon="6.41615">
        <ele>1049.72</ele>
        <time>2013-09-28T09:47:05Z</time>
      </trkpt>
      <trkpt lat="45.91937" lon="6.41559">
        <ele>1048.76</ele>
        <time>2013-09-28T09:47:10Z</time>
      </trkpt>
      <trkpt lat="45.91985" lon="6.41531">
        <ele>1047</ele>
        <time>2013-09-28T09:47:15Z</time>
      </trkpt>
      <trkpt lat="45.92029" lon="6.41492">
        <ele>1045.27</ele>
        <time>2013-09-28T09:47:20Z</time>
      </trkpt>
      <trkpt lat="45.92076" lon="6.41485">
        <ele>1042.66</ele>
        <time>2013-09-28T09:47:25Z</time>
      </trkpt>
      <trkpt lat="45.92115" lon="6.41526">
        <ele>1043.07</ele>
        <time>2013-09-28T09:47:30Z</time>
      </trkpt>
      <trkpt lat="45.9216" lon="6.41542">
        <ele>1040.2</ele>
        <time>2013-09-28T09:47:35Z</time>
      </trkpt>
      <trkpt lat="45.92198" lon="6.41503">
        <ele>1037.97</ele>
        <time>2013-09-28T09:47:40Z</time>
      </trkpt>
      <trkpt lat="45.92235" lon="6.41457">
        <ele>1036.47</ele>
        <time>2013-09-28T09:47:45Z</time>
      </trkpt>
      <trkpt lat="45.92278" lon="6.41424">
        <ele>1034.32</ele>
        <time>2013-09-28T09:47:50Z</time>
      </trkpt>
      <trkpt lat="45.92309" lon="6.41378">
        <ele>1031.71</ele>
        <time>2013-09-28T09:47:55Z</time>
      </trkpt>
      <trkpt lat="45.92334" lon="6.41322">
        <ele>1029.68</ele>
        <time>2013-09-28T09:48:00Z</time>
      </trkpt>
      <trkpt lat="45.92341" lon="6.41256">
        <ele>1028.28</ele>
        <time>2013-09-28T09:48:05Z</time>
      </trkpt>
      <trkpt lat="45.92318" lon="6.41195">
        <ele>1025.67</ele>
        <time>2013-09-28T09:48:10Z</time>
      </trkpt>
      <trkpt lat="45.92285" lon="6.41157">
        <ele>1023.52</ele>
        <time>2013-09-28T09:48:15Z</time>
      </trkpt>
      <trkpt lat="45.92268" lon="6.41121">
        <ele>1023.12</ele>
        <time>2013-09-28T09:48:20Z</time>
      </trkpt>
      <trkpt lat="45.92264" lon="6.41082">
        <ele>1021.28</ele>
        <time>2013-09-28T09:48:25Z</time>
      </trkpt>
      <trkpt lat="45.92275" lon="6.41051">
        <ele>1019.73</ele>
        <time>2013-09-28T09:48:31Z</time>
      </trkpt>
      <trkpt lat="45.92293" lon="6.41073">
        <ele>1017.86</ele>
        <time>2013-09-28T09:48:39Z</time>
      </trkpt>
      <trkpt lat="45.92271" lon="6.4107">
        <ele>1017.03</ele>
        <time>2013-09-28T10:00:42Z</time>
      </trkpt>
      <trkpt lat="45.92292" lon="6.41056">
        <ele>1031.18</ele>
        <time>2013-09-28T10:02:16Z</time>
      </trkpt>
      <trkpt lat="45.92312" lon="6.4104">
        <ele>1027.07</ele>
        <time>2013-09-28T10:02:21Z</time>
      </trkpt>
      <trkpt lat="45.92347" lon="6.41015">
        <ele>1021.31</ele>
        <time>2013-09-28T10:02:26Z</time>
      </trkpt>
      <trkpt lat="45.92377" lon="6.40998">
        <ele>1019.47</ele>
        <time>2013-09-28T10:02:31Z</time>
      </trkpt>
      <trkpt lat="45.92408" lon="6.40974">
        <ele>1016.73</ele>
        <time>2013-09-28T10:02:36Z</time>
      </trkpt>
      <trkpt lat="45.92443" lon="6.40947">
        <ele>1013.13</ele>
        <time>2013-09-28T10:02:41Z</time>
      </trkpt>
      <trkpt lat="45.9249" lon="6.40944">
        <ele>1010.66</ele>
        <time>2013-09-28T10:02:46Z</time>
      </trkpt>
      <trkpt lat="45.92532" lon="6.40987">
        <ele>1007.3</ele>
        <time>2013-09-28T10:02:51Z</time>
      </trkpt>
      <trkpt lat="45.92566" lon="6.41045">
        <ele>1002.02</ele>
        <time>2013-09-28T10:02:56Z</time>
      </trkpt>
      <trkpt lat="45.92596" lon="6.41113">
        <ele>998.95</ele>
        <time>2013-09-28T10:03:01Z</time>
      </trkpt>
      <trkpt lat="45.92636" lon="6.41166">
        <ele>998.32</ele>
        <time>2013-09-28T10:03:06Z</time>
      </trkpt>
      <trkpt lat="45.92693" lon="6.41189">
        <ele>994.85</ele>
        <time>2013-09-28T10:03:11Z</time>
      </trkpt>
      <trkpt lat="45.9275" lon="6.4121">
        <ele>992.38</ele>
        <time>2013-09-28T10:03:16Z</time>
      </trkpt>
      <trkpt lat="45.9281" lon="6.41212">
        <ele>989.38</ele>
        <time>2013-09-28T10:03:21Z</time>
      </trkpt>
      <trkpt lat="45.92869" lon="6.41216">
        <ele>985.78</ele>
        <time>2013-09-28T10:03:26Z</time>
      </trkpt>
      <trkpt lat="45.92926" lon="6.41213">
        <ele>985.28</ele>
        <time>2013-09-28T10:03:31Z</time>
      </trkpt>
      <trkpt lat="45.92983" lon="6.41202">
        <ele>984.4</ele>
        <time>2013-09-28T10:03:36Z</time>
      </trkpt>
      <trkpt lat="45.93041" lon="6.41228">
        <ele>982.98</ele>
        <time>2013-09-28T10:03:41Z</time>
      </trkpt>
      <trkpt lat="45.931" lon="6.41264">
        <ele>981.87</ele>
        <time>2013-09-28T10:03:46Z</time>
      </trkpt>
      <trkpt lat="45.93157" lon="6.41305">
        <ele>977.92</ele>
        <time>2013-09-28T10:03:51Z</time>
      </trkpt>
      <trkpt lat="45.9321" lon="6.41349">
        <ele>975.47</ele>
        <time>2013-09-28T10:03:56Z</time>
      </trkpt>
      <trkpt lat="45.93258" lon="6.41404">
        <ele>973.67</ele>
        <time>2013-09-28T10:04:01Z</time>
      </trkpt>
      <trkpt lat="45.93298" lon="6.41469">
        <ele>964.78</ele>
        <time>2013-09-28T10:04:06Z</time>
      </trkpt>
      <trkpt lat="45.93346" lon="6.41522">
        <ele>959.99</ele>
        <time>2013-09-28T10:04:11Z</time>
      </trkpt>
      <trkpt lat="45.93393" lon="6.41577">
        <ele>956.25</ele>
        <time>2013-09-28T10:04:16Z</time>
      </trkpt>
      <trkpt lat="45.93416" lon="6.41636">
        <ele>956.25</ele>
        <time>2013-09-28T10:04:21Z</time>
      </trkpt>
      <trkpt lat="45.93434" lon="6.41682">
        <ele>957.13</ele>
        <time>2013-09-28T10:04:26Z</time>
      </trkpt>
      <trkpt lat="45.93446" lon="6.4172">
        <ele>957.75</ele>
        <time>2013-09-28T10:04:31Z</time>
      </trkpt>
      <trkpt lat="45.93458" lon="6.41754">
        <ele>957.38</ele>
        <time>2013-09-28T10:04:36Z</time>
      </trkpt>
      <trkpt lat="45.93475" lon="6.41787">
        <ele>958.57</ele>
        <time>2013-09-28T10:04:41Z</time>
      </trkpt>
      <trkpt lat="45.93494" lon="6.41823">
        <ele>957.55</ele>
        <time>2013-09-28T10:04:46Z</time>
      </trkpt>
      <trkpt lat="45.93513" lon="6.41868">
        <ele>956.18</ele>
        <time>2013-09-28T10:04:51Z</time>
      </trkpt>
      <trkpt lat="45.93531" lon="6.41914">
        <ele>955.77</ele>
        <time>2013-09-28T10:04:56Z</time>
      </trkpt>
      <trkpt lat="45.93554" lon="6.41953">
        <ele>957.53</ele>
        <time>2013-09-28T10:05:01Z</time>
      </trkpt>
      <trkpt lat="45.93577" lon="6.41989">
        <ele>957.39</ele>
        <time>2013-09-28T10:05:06Z</time>
      </trkpt>
      <trkpt lat="45.93603" lon="6.42017">
        <ele>957.43</ele>
        <time>2013-09-28T10:05:11Z</time>
      </trkpt>
      <trkpt lat="45.93628" lon="6.42047">
        <ele>957.33</ele>
        <time>2013-09-28T10:05:16Z</time>
      </trkpt>
      <trkpt lat="45.93653" lon="6.42083">
        <ele>954.91</ele>
        <time>2013-09-28T10:05:21Z</time>
      </trkpt>
      <trkpt lat="45.93678" lon="6.42119">
        <ele>953.94</ele>
        <time>2013-09-28T10:05:26Z</time>
      </trkpt>
      <trkpt lat="45.93704" lon="6.42155">
        <ele>951.32</ele>
        <time>2013-09-28T10:05:31Z</time>
      </trkpt>
      <trkpt lat="45.93727" lon="6.42188">
        <ele>949.21</ele>
        <time>2013-09-28T10:05:36Z</time>
      </trkpt>
      <trkpt lat="45.93749" lon="6.42218">
        <ele>951.91</ele>
        <time>2013-09-28T10:05:41Z</time>
      </trkpt>
      <trkpt lat="45.93762" lon="6.42255">
        <ele>951.74</ele>
        <time>2013-09-28T10:05:46Z</time>
      </trkpt>
      <trkpt lat="45.93775" lon="6.42296">
        <ele>952.44</ele>
        <time>2013-09-28T10:05:51Z</time>
      </trkpt>
      <trkpt lat="45.9379" lon="6.42335">
        <ele>952.3</ele>
        <time>2013-09-28T10:05:56Z</time>
      </trkpt>
      <trkpt lat="45.93808" lon="6.42372">
        <ele>952.84</ele>
        <time>2013-09-28T10:06:01Z</time>
      </trkpt>
      <trkpt lat="45.93828" lon="6.42406">
        <ele>952.43</ele>
        <time>2013-09-28T10:06:06Z</time>
      </trkpt>
      <trkpt lat="45.93853" lon="6.4243">
        <ele>951.56</ele>
        <time>2013-09-28T10:06:11Z</time>
      </trkpt>
      <trkpt lat="45.93884" lon="6.42447">
        <ele>953.11</ele>
        <time>2013-09-28T10:06:16Z</time>
      </trkpt>
      <trkpt lat="45.93911" lon="6.42466">
        <ele>954.39</ele>
        <time>2013-09-28T10:06:21Z</time>
      </trkpt>
      <trkpt lat="45.93934" lon="6.42495">
        <ele>955.47</ele>
        <time>2013-09-28T10:06:26Z</time>
      </trkpt>
      <trkpt lat="45.93953" lon="6.42529">
        <ele>955.81</ele>
        <time>2013-09-28T10:06:31Z</time>
      </trkpt>
      <trkpt lat="45.93971" lon="6.42562">
        <ele>957.29</ele>
        <time>2013-09-28T10:06:36Z</time>
      </trkpt>
      <trkpt lat="45.93988" lon="6.42597">
        <ele>957.32</ele>
        <time>2013-09-28T10:06:41Z</time>
      </trkpt>
      <trkpt lat="45.94006" lon="6.4263">
        <ele>958.44</ele>
        <time>2013-09-28T10:06:46Z</time>
      </trkpt>
      <trkpt lat="45.94022" lon="6.42665">
        <ele>958.9</ele>
        <time>2013-09-28T10:06:51Z</time>
      </trkpt>
      <trkpt lat="45.94038" lon="6.42691">
        <ele>964.32</ele>
        <time>2013-09-28T10:06:56Z</time>
      </trkpt>
      <trkpt lat="45.94052" lon="6.42725">
        <ele>966.71</ele>
        <time>2013-09-28T10:07:01Z</time>
      </trkpt>
      <trkpt lat="45.94057" lon="6.42767">
        <ele>966.34</ele>
        <time>2013-09-28T10:07:06Z</time>
      </trkpt>
      <trkpt lat="45.94047" lon="6.42798">
        <ele>965.03</ele>
        <time>2013-09-28T10:07:13Z</time>
      </trkpt>
      <trkpt lat="45.94035" lon="6.42826">
        <ele>965.54</ele>
        <time>2013-09-28T10:07:24Z</time>
      </trkpt>
      <trkpt lat="45.94062" lon="6.42831">
        <ele>968.15</ele>
        <time>2013-09-28T10:08:47Z</time>
      </trkpt>
      <trkpt lat="45.94076" lon="6.42862">
        <ele>966.54</ele>
        <time>2013-09-28T10:08:52Z</time>
      </trkpt>
      <trkpt lat="45.94097" lon="6.42886">
        <ele>966.39</ele>
        <time>2013-09-28T10:08:57Z</time>
      </trkpt>
      <trkpt lat="45.94123" lon="6.42879">
        <ele>965.76</ele>
        <time>2013-09-28T10:09:02Z</time>
      </trkpt>
      <trkpt lat="45.94148" lon="6.42866">
        <ele>965.8</ele>
        <time>2013-09-28T10:09:07Z</time>
      </trkpt>
      <trkpt lat="45.94126" lon="6.42877">
        <ele>969.87</ele>
        <time>2013-09-28T10:09:15Z</time>
      </trkpt>
      <trkpt lat="45.94099" lon="6.42885">
        <ele>969.09</ele>
        <time>2013-09-28T10:09:20Z</time>
      </trkpt>
      <trkpt lat="45.94077" lon="6.42856">
        <ele>966.1</ele>
        <time>2013-09-28T10:09:25Z</time>
      </trkpt>
      <trkpt lat="45.94069" lon="6.42813">
        <ele>965.67</ele>
        <time>2013-09-28T10:09:30Z</time>
      </trkpt>
      <trkpt lat="45.94045" lon="6.42804">
        <ele>966.89</ele>
        <time>2013-09-28T10:09:35Z</time>
      </trkpt>
      <trkpt lat="45.94035" lon="6.42841">
        <ele>967.18</ele>
        <time>2013-09-28T10:09:40Z</time>
      </trkpt>
      <trkpt lat="45.94039" lon="6.42875">
        <ele>968.56</ele>
        <time>2013-09-28T10:09:45Z</time>
      </trkpt>
      <trkpt lat="45.94045" lon="6.42906">
        <ele>969.93</ele>
        <time>2013-09-28T10:09:50Z</time>
      </trkpt>
      <trkpt lat="45.94052" lon="6.42942">
        <ele>970.25</ele>
        <time>2013-09-28T10:09:56Z</time>
      </trkpt>
      <trkpt lat="45.94059" lon="6.42979">
        <ele>970.84</ele>
        <time>2013-09-28T10:10:02Z</time>
      </trkpt>
      <trkpt lat="45.94064" lon="6.43011">
        <ele>970.21</ele>
        <time>2013-09-28T10:10:07Z</time>
      </trkpt>
      <trkpt lat="45.94073" lon="6.43045">
        <ele>970.28</ele>
        <time>2013-09-28T10:10:13Z</time>
      </trkpt>
      <trkpt lat="45.94078" lon="6.43079">
        <ele>972.89</ele>
        <time>2013-09-28T10:10:19Z</time>
      </trkpt>
      <trkpt lat="45.94085" lon="6.43115">
        <ele>975.7</ele>
        <time>2013-09-28T10:10:25Z</time>
      </trkpt>
      <trkpt lat="45.94092" lon="6.43149">
        <ele>975.78</ele>
        <time>2013-09-28T10:10:30Z</time>
      </trkpt>
      <trkpt lat="45.94098" lon="6.43187">
        <ele>975.19</ele>
        <time>2013-09-28T10:10:35Z</time>
      </trkpt>
      <trkpt lat="45.94109" lon="6.43226">
        <ele>976.35</ele>
        <time>2013-09-28T10:10:40Z</time>
      </trkpt>
      <trkpt lat="45.94117" lon="6.43271">
        <ele>977.67</ele>
        <time>2013-09-28T10:10:45Z</time>
      </trkpt>
      <trkpt lat="45.94125" lon="6.43309">
        <ele>980.09</ele>
        <time>2013-09-28T10:10:50Z</time>
      </trkpt>
      <trkpt lat="45.94132" lon="6.43342">
        <ele>982.05</ele>
        <time>2013-09-28T10:10:56Z</time>
      </trkpt>
      <trkpt lat="45.94141" lon="6.43373">
        <ele>982.81</ele>
        <time>2013-09-28T10:11:01Z</time>
      </trkpt>
      <trkpt lat="45.94145" lon="6.43408">
        <ele>982.87</ele>
        <time>2013-09-28T10:11:06Z</time>
      </trkpt>
      <trkpt lat="45.94142" lon="6.43444">
        <ele>983.49</ele>
        <time>2013-09-28T10:11:11Z</time>
      </trkpt>
      <trkpt lat="45.94139" lon="6.43479">
        <ele>984.51</ele>
        <time>2013-09-28T10:11:16Z</time>
      </trkpt>
      <trkpt lat="45.9414" lon="6.43516">
        <ele>983.01</ele>
        <time>2013-09-28T10:11:21Z</time>
      </trkpt>
      <trkpt lat="45.94148" lon="6.43552">
        <ele>984.09</ele>
        <time>2013-09-28T10:11:26Z</time>
      </trkpt>
      <trkpt lat="45.94158" lon="6.43587">
        <ele>983.19</ele>
        <time>2013-09-28T10:11:31Z</time>
      </trkpt>
      <trkpt lat="45.94183" lon="6.43608">
        <ele>983.59</ele>
        <time>2013-09-28T10:11:36Z</time>
      </trkpt>
      <trkpt lat="45.94253" lon="6.43641">
        <ele>984.63</ele>
        <time>2013-09-28T10:11:45Z</time>
      </trkpt>
      <trkpt lat="45.94253" lon="6.43678">
        <ele>983.73</ele>
        <time>2013-09-28T10:11:51Z</time>
      </trkpt>
      <trkpt lat="45.94237" lon="6.43706">
        <ele>984.17</ele>
        <time>2013-09-28T10:11:56Z</time>
      </trkpt>
      <trkpt lat="45.94223" lon="6.43739">
        <ele>985.81</ele>
        <time>2013-09-28T10:12:01Z</time>
      </trkpt>
      <trkpt lat="45.9421" lon="6.4377">
        <ele>988.71</ele>
        <time>2013-09-28T10:12:06Z</time>
      </trkpt>
      <trkpt lat="45.942" lon="6.43799">
        <ele>990.69</ele>
        <time>2013-09-28T10:12:11Z</time>
      </trkpt>
      <trkpt lat="45.9419" lon="6.4383">
        <ele>991</ele>
        <time>2013-09-28T10:12:16Z</time>
      </trkpt>
      <trkpt lat="45.94183" lon="6.43862">
        <ele>992.6</ele>
        <time>2013-09-28T10:12:21Z</time>
      </trkpt>
      <trkpt lat="45.94175" lon="6.43894">
        <ele>993.6</ele>
        <time>2013-09-28T10:12:26Z</time>
      </trkpt>
      <trkpt lat="45.94166" lon="6.43924">
        <ele>995.73</ele>
        <time>2013-09-28T10:12:31Z</time>
      </trkpt>
      <trkpt lat="45.94157" lon="6.43954">
        <ele>995.69</ele>
        <time>2013-09-28T10:12:36Z</time>
      </trkpt>
      <trkpt lat="45.94152" lon="6.4399">
        <ele>994.81</ele>
        <time>2013-09-28T10:12:42Z</time>
      </trkpt>
      <trkpt lat="45.94152" lon="6.44023">
        <ele>995.66</ele>
        <time>2013-09-28T10:12:47Z</time>
      </trkpt>
      <trkpt lat="45.94146" lon="6.44054">
        <ele>999.98</ele>
        <time>2013-09-28T10:12:53Z</time>
      </trkpt>
      <trkpt lat="45.94132" lon="6.44082">
        <ele>1000.99</ele>
        <time>2013-09-28T10:12:59Z</time>
      </trkpt>
      <trkpt lat="45.94117" lon="6.44108">
        <ele>1001.3</ele>
        <time>2013-09-28T10:13:05Z</time>
      </trkpt>
      <trkpt lat="45.94098" lon="6.4413">
        <ele>1003</ele>
        <time>2013-09-28T10:13:11Z</time>
      </trkpt>
      <trkpt lat="45.94084" lon="6.44158">
        <ele>1006.5</ele>
        <time>2013-09-28T10:13:17Z</time>
      </trkpt>
      <trkpt lat="45.94073" lon="6.44192">
        <ele>1009.8</ele>
        <time>2013-09-28T10:13:23Z</time>
      </trkpt>
      <trkpt lat="45.9406" lon="6.44224">
        <ele>1013.81</ele>
        <time>2013-09-28T10:13:29Z</time>
      </trkpt>
      <trkpt lat="45.94046" lon="6.44256">
        <ele>1016.89</ele>
        <time>2013-09-28T10:13:35Z</time>
      </trkpt>
      <trkpt lat="45.94032" lon="6.44288">
        <ele>1017.37</ele>
        <time>2013-09-28T10:13:41Z</time>
      </trkpt>
      <trkpt lat="45.94018" lon="6.4432">
        <ele>1018.55</ele>
        <time>2013-09-28T10:13:47Z</time>
      </trkpt>
      <trkpt lat="45.94005" lon="6.44349">
        <ele>1021.59</ele>
        <time>2013-09-28T10:13:53Z</time>
      </trkpt>
      <trkpt lat="45.93991" lon="6.4438">
        <ele>1023.3</ele>
        <time>2013-09-28T10:13:59Z</time>
      </trkpt>
      <trkpt lat="45.93977" lon="6.44413">
        <ele>1024.84</ele>
        <time>2013-09-28T10:14:05Z</time>
      </trkpt>
      <trkpt lat="45.93965" lon="6.44446">
        <ele>1026.8</ele>
        <time>2013-09-28T10:14:11Z</time>
      </trkpt>
      <trkpt lat="45.93953" lon="6.44476">
        <ele>1035.05</ele>
        <time>2013-09-28T10:14:17Z</time>
      </trkpt>
      <trkpt lat="45.93941" lon="6.44506">
        <ele>1036.14</ele>
        <time>2013-09-28T10:14:22Z</time>
      </trkpt>
      <trkpt lat="45.93931" lon="6.44537">
        <ele>1036.18</ele>
        <time>2013-09-28T10:14:27Z</time>
      </trkpt>
      <trkpt lat="45.93918" lon="6.4457">
        <ele>1040.67</ele>
        <time>2013-09-28T10:14:33Z</time>
      </trkpt>
      <trkpt lat="45.93906" lon="6.44599">
        <ele>1047.47</ele>
        <time>2013-09-28T10:14:38Z</time>
      </trkpt>
      <trkpt lat="45.93892" lon="6.44627">
        <ele>1047.91</ele>
        <time>2013-09-28T10:14:43Z</time>
      </trkpt>
      <trkpt lat="45.93877" lon="6.4466">
        <ele>1048.36</ele>
        <time>2013-09-28T10:14:49Z</time>
      </trkpt>
      <trkpt lat="45.93865" lon="6.44688">
        <ele>1046.86</ele>
        <time>2013-09-28T10:14:54Z</time>
      </trkpt>
      <trkpt lat="45.93853" lon="6.44716">
        <ele>1046.8</ele>
        <time>2013-09-28T10:14:59Z</time>
      </trkpt>
      <trkpt lat="45.93842" lon="6.44747">
        <ele>1045.78</ele>
        <time>2013-09-28T10:15:04Z</time>
      </trkpt>
      <trkpt lat="45.93832" lon="6.4478">
        <ele>1045.07</ele>
        <time>2013-09-28T10:15:09Z</time>
      </trkpt>
      <trkpt lat="45.93821" lon="6.44816">
        <ele>1042.66</ele>
        <time>2013-09-28T10:15:15Z</time>
      </trkpt>
      <trkpt lat="45.9381" lon="6.44846">
        <ele>1039.38</ele>
        <time>2013-09-28T10:15:20Z</time>
      </trkpt>
      <trkpt lat="45.93796" lon="6.4488">
        <ele>1038.06</ele>
        <time>2013-09-28T10:15:26Z</time>
      </trkpt>
      <trkpt lat="45.93786" lon="6.44911">
        <ele>1039.4</ele>
        <time>2013-09-28T10:15:31Z</time>
      </trkpt>
      <trkpt lat="45.93776" lon="6.44941">
        <ele>1039.98</ele>
        <time>2013-09-28T10:15:36Z</time>
      </trkpt>
      <trkpt lat="45.93766" lon="6.44971">
        <ele>1041.41</ele>
        <time>2013-09-28T10:15:41Z</time>
      </trkpt>
      <trkpt lat="45.93757" lon="6.45003">
        <ele>1039.03</ele>
        <time>2013-09-28T10:15:46Z</time>
      </trkpt>
      <trkpt lat="45.93752" lon="6.45039">
        <ele>1037.43</ele>
        <time>2013-09-28T10:15:51Z</time>
      </trkpt>
      <trkpt lat="45.93747" lon="6.45072">
        <ele>1040.14</ele>
        <time>2013-09-28T10:15:56Z</time>
      </trkpt>
      <trkpt lat="45.93743" lon="6.45104">
        <ele>1039.02</ele>
        <time>2013-09-28T10:16:01Z</time>
      </trkpt>
      <trkpt lat="45.9374" lon="6.45142">
        <ele>1038.13</ele>
        <time>2013-09-28T10:16:07Z</time>
      </trkpt>
      <trkpt lat="45.93736" lon="6.45178">
        <ele>1040.17</ele>
        <time>2013-09-28T10:16:13Z</time>
      </trkpt>
      <trkpt lat="45.93735" lon="6.45212">
        <ele>1040.03</ele>
        <time>2013-09-28T10:16:18Z</time>
      </trkpt>
      <trkpt lat="45.93733" lon="6.45247">
        <ele>1039.8</ele>
        <time>2013-09-28T10:16:24Z</time>
      </trkpt>
      <trkpt lat="45.93729" lon="6.45284">
        <ele>1039.35</ele>
        <time>2013-09-28T10:16:30Z</time>
      </trkpt>
      <trkpt lat="45.93728" lon="6.45318">
        <ele>1037.85</ele>
        <time>2013-09-28T10:16:36Z</time>
      </trkpt>
      <trkpt lat="45.93722" lon="6.45374">
        <ele>1040.04</ele>
        <time>2013-09-28T10:16:46Z</time>
      </trkpt>
      <trkpt lat="45.93719" lon="6.45411">
        <ele>1044.35</ele>
        <time>2013-09-28T10:16:53Z</time>
      </trkpt>
      <trkpt lat="45.93718" lon="6.45448">
        <ele>1051.51</ele>
        <time>2013-09-28T10:17:01Z</time>
      </trkpt>
      <trkpt lat="45.93723" lon="6.45482">
        <ele>1051.82</ele>
        <time>2013-09-28T10:17:08Z</time>
      </trkpt>
      <trkpt lat="45.93729" lon="6.45517">
        <ele>1050.14</ele>
        <time>2013-09-28T10:17:15Z</time>
      </trkpt>
      <trkpt lat="45.93737" lon="6.45552">
        <ele>1050.32</ele>
        <time>2013-09-28T10:17:22Z</time>
      </trkpt>
      <trkpt lat="45.93742" lon="6.45586">
        <ele>1052.61</ele>
        <time>2013-09-28T10:17:29Z</time>
      </trkpt>
      <trkpt lat="45.93742" lon="6.4562">
        <ele>1054.27</ele>
        <time>2013-09-28T10:17:36Z</time>
      </trkpt>
      <trkpt lat="45.93737" lon="6.45653">
        <ele>1055.02</ele>
        <time>2013-09-28T10:17:42Z</time>
      </trkpt>
      <trkpt lat="45.93728" lon="6.45687">
        <ele>1058.53</ele>
        <time>2013-09-28T10:17:49Z</time>
      </trkpt>
      <trkpt lat="45.93717" lon="6.4572">
        <ele>1060.51</ele>
        <time>2013-09-28T10:17:56Z</time>
      </trkpt>
      <trkpt lat="45.93706" lon="6.45752">
        <ele>1063.29</ele>
        <time>2013-09-28T10:18:03Z</time>
      </trkpt>
      <trkpt lat="45.93696" lon="6.45786">
        <ele>1065.33</ele>
        <time>2013-09-28T10:18:10Z</time>
      </trkpt>
      <trkpt lat="45.93687" lon="6.45819">
        <ele>1068.67</ele>
        <time>2013-09-28T10:18:17Z</time>
      </trkpt>
      <trkpt lat="45.93678" lon="6.4585">
        <ele>1068.46</ele>
        <time>2013-09-28T10:18:23Z</time>
      </trkpt>
      <trkpt lat="45.93668" lon="6.45886">
        <ele>1068.35</ele>
        <time>2013-09-28T10:18:29Z</time>
      </trkpt>
      <trkpt lat="45.9366" lon="6.45917">
        <ele>1070.62</ele>
        <time>2013-09-28T10:18:34Z</time>
      </trkpt>
      <trkpt lat="45.93651" lon="6.45948">
        <ele>1070.18</ele>
        <time>2013-09-28T10:18:39Z</time>
      </trkpt>
      <trkpt lat="45.93642" lon="6.45981">
        <ele>1070.98</ele>
        <time>2013-09-28T10:18:44Z</time>
      </trkpt>
      <trkpt lat="45.93634" lon="6.46015">
        <ele>1071.81</ele>
        <time>2013-09-28T10:18:49Z</time>
      </trkpt>
      <trkpt lat="45.93626" lon="6.46049">
        <ele>1073.07</ele>
        <time>2013-09-28T10:18:54Z</time>
      </trkpt>
      <trkpt lat="45.93619" lon="6.46081">
        <ele>1073.23</ele>
        <time>2013-09-28T10:18:59Z</time>
      </trkpt>
      <trkpt lat="45.93608" lon="6.46114">
        <ele>1073.13</ele>
        <time>2013-09-28T10:19:05Z</time>
      </trkpt>
      <trkpt lat="45.93606" lon="6.46152">
        <ele>1072.66</ele>
        <time>2013-09-28T10:19:10Z</time>
      </trkpt>
      <trkpt lat="45.93603" lon="6.46189">
        <ele>1071.72</ele>
        <time>2013-09-28T10:19:15Z</time>
      </trkpt>
      <trkpt lat="45.93602" lon="6.46224">
        <ele>1070.85</ele>
        <time>2013-09-28T10:19:20Z</time>
      </trkpt>
      <trkpt lat="45.93602" lon="6.46265">
        <ele>1070.1</ele>
        <time>2013-09-28T10:19:25Z</time>
      </trkpt>
      <trkpt lat="45.936" lon="6.46308">
        <ele>1070.22</ele>
        <time>2013-09-28T10:19:30Z</time>
      </trkpt>
      <trkpt lat="45.93597" lon="6.46351">
        <ele>1071.31</ele>
        <time>2013-09-28T10:19:35Z</time>
      </trkpt>
      <trkpt lat="45.93589" lon="6.46395">
        <ele>1072.09</ele>
        <time>2013-09-28T10:19:40Z</time>
      </trkpt>
      <trkpt lat="45.93582" lon="6.46437">
        <ele>1073.68</ele>
        <time>2013-09-28T10:19:45Z</time>
      </trkpt>
      <trkpt lat="45.93575" lon="6.46478">
        <ele>1074.75</ele>
        <time>2013-09-28T10:19:50Z</time>
      </trkpt>
      <trkpt lat="45.9357" lon="6.46516">
        <ele>1074.83</ele>
        <time>2013-09-28T10:19:55Z</time>
      </trkpt>
      <trkpt lat="45.93567" lon="6.46552">
        <ele>1075.46</ele>
        <time>2013-09-28T10:20:00Z</time>
      </trkpt>
      <trkpt lat="45.93565" lon="6.46588">
        <ele>1074.26</ele>
        <time>2013-09-28T10:20:05Z</time>
      </trkpt>
      <trkpt lat="45.93561" lon="6.46623">
        <ele>1076.11</ele>
        <time>2013-09-28T10:20:10Z</time>
      </trkpt>
      <trkpt lat="45.9356" lon="6.4666">
        <ele>1075.28</ele>
        <time>2013-09-28T10:20:15Z</time>
      </trkpt>
      <trkpt lat="45.93557" lon="6.46694">
        <ele>1076.99</ele>
        <time>2013-09-28T10:20:20Z</time>
      </trkpt>
      <trkpt lat="45.93554" lon="6.46729">
        <ele>1076.46</ele>
        <time>2013-09-28T10:20:25Z</time>
      </trkpt>
      <trkpt lat="45.93549" lon="6.46763">
        <ele>1077.91</ele>
        <time>2013-09-28T10:20:30Z</time>
      </trkpt>
      <trkpt lat="45.9354" lon="6.46795">
        <ele>1078.16</ele>
        <time>2013-09-28T10:20:35Z</time>
      </trkpt>
      <trkpt lat="45.9353" lon="6.46826">
        <ele>1081.41</ele>
        <time>2013-09-28T10:20:40Z</time>
      </trkpt>
      <trkpt lat="45.93518" lon="6.46855">
        <ele>1081.97</ele>
        <time>2013-09-28T10:20:45Z</time>
      </trkpt>
      <trkpt lat="45.93506" lon="6.46887">
        <ele>1082.25</ele>
        <time>2013-09-28T10:20:50Z</time>
      </trkpt>
      <trkpt lat="45.93495" lon="6.46921">
        <ele>1084.4</ele>
        <time>2013-09-28T10:20:56Z</time>
      </trkpt>
      <trkpt lat="45.93489" lon="6.46954">
        <ele>1085.38</ele>
        <time>2013-09-28T10:21:01Z</time>
      </trkpt>
      <trkpt lat="45.93484" lon="6.46993">
        <ele>1083.53</ele>
        <time>2013-09-28T10:21:06Z</time>
      </trkpt>
      <trkpt lat="45.93482" lon="6.47032">
        <ele>1082.85</ele>
        <time>2013-09-28T10:21:11Z</time>
      </trkpt>
      <trkpt lat="45.93482" lon="6.47069">
        <ele>1082.58</ele>
        <time>2013-09-28T10:21:16Z</time>
      </trkpt>
      <trkpt lat="45.93483" lon="6.47112">
        <ele>1080.4</ele>
        <time>2013-09-28T10:21:21Z</time>
      </trkpt>
      <trkpt lat="45.93483" lon="6.47152">
        <ele>1079.07</ele>
        <time>2013-09-28T10:21:26Z</time>
      </trkpt>
      <trkpt lat="45.93483" lon="6.47194">
        <ele>1079.21</ele>
        <time>2013-09-28T10:21:31Z</time>
      </trkpt>
      <trkpt lat="45.9348" lon="6.47232">
        <ele>1078.53</ele>
        <time>2013-09-28T10:21:36Z</time>
      </trkpt>
      <trkpt lat="45.93471" lon="6.47265">
        <ele>1086.91</ele>
        <time>2013-09-28T10:21:42Z</time>
      </trkpt>
      <trkpt lat="45.93463" lon="6.473">
        <ele>1090.3</ele>
        <time>2013-09-28T10:21:48Z</time>
      </trkpt>
      <trkpt lat="45.93455" lon="6.47334">
        <ele>1092.85</ele>
        <time>2013-09-28T10:21:54Z</time>
      </trkpt>
      <trkpt lat="45.93447" lon="6.47366">
        <ele>1097.18</ele>
        <time>2013-09-28T10:22:00Z</time>
      </trkpt>
      <trkpt lat="45.93439" lon="6.47398">
        <ele>1101.17</ele>
        <time>2013-09-28T10:22:06Z</time>
      </trkpt>
      <trkpt lat="45.93439" lon="6.47431">
        <ele>1101.56</ele>
        <time>2013-09-28T10:22:11Z</time>
      </trkpt>
      <trkpt lat="45.93444" lon="6.47473">
        <ele>1101.72</ele>
        <time>2013-09-28T10:22:16Z</time>
      </trkpt>
      <trkpt lat="45.9345" lon="6.47513">
        <ele>1102.1</ele>
        <time>2013-09-28T10:22:21Z</time>
      </trkpt>
      <trkpt lat="45.93456" lon="6.47556">
        <ele>1102.02</ele>
        <time>2013-09-28T10:22:26Z</time>
      </trkpt>
      <trkpt lat="45.93463" lon="6.47596">
        <ele>1103.24</ele>
        <time>2013-09-28T10:22:31Z</time>
      </trkpt>
      <trkpt lat="45.93467" lon="6.47637">
        <ele>1103.68</ele>
        <time>2013-09-28T10:22:36Z</time>
      </trkpt>
      <trkpt lat="45.93463" lon="6.47676">
        <ele>1103.53</ele>
        <time>2013-09-28T10:22:41Z</time>
      </trkpt>
      <trkpt lat="45.93452" lon="6.47712">
        <ele>1103.43</ele>
        <time>2013-09-28T10:22:46Z</time>
      </trkpt>
      <trkpt lat="45.93439" lon="6.47746">
        <ele>1106.24</ele>
        <time>2013-09-28T10:22:51Z</time>
      </trkpt>
      <trkpt lat="45.93429" lon="6.4778">
        <ele>1107.86</ele>
        <time>2013-09-28T10:22:56Z</time>
      </trkpt>
      <trkpt lat="45.93423" lon="6.47818">
        <ele>1106.98</ele>
        <time>2013-09-28T10:23:01Z</time>
      </trkpt>
      <trkpt lat="45.93424" lon="6.47856">
        <ele>1106.81</ele>
        <time>2013-09-28T10:23:06Z</time>
      </trkpt>
      <trkpt lat="45.93432" lon="6.47899">
        <ele>1105.81</ele>
        <time>2013-09-28T10:23:11Z</time>
      </trkpt>
      <trkpt lat="45.93437" lon="6.47941">
        <ele>1106.5</ele>
        <time>2013-09-28T10:23:16Z</time>
      </trkpt>
      <trkpt lat="45.93442" lon="6.47984">
        <ele>1106.49</ele>
        <time>2013-09-28T10:23:21Z</time>
      </trkpt>
      <trkpt lat="45.93447" lon="6.48025">
        <ele>1108.36</ele>
        <time>2013-09-28T10:23:26Z</time>
      </trkpt>
      <trkpt lat="45.93452" lon="6.48068">
        <ele>1108.71</ele>
        <time>2013-09-28T10:23:31Z</time>
      </trkpt>
      <trkpt lat="45.93459" lon="6.48111">
        <ele>1109.6</ele>
        <time>2013-09-28T10:23:36Z</time>
      </trkpt>
      <trkpt lat="45.93479" lon="6.48154">
        <ele>1108.77</ele>
        <time>2013-09-28T10:23:41Z</time>
      </trkpt>
      <trkpt lat="45.93496" lon="6.48204">
        <ele>1108.63</ele>
        <time>2013-09-28T10:23:46Z</time>
      </trkpt>
      <trkpt lat="45.93515" lon="6.48257">
        <ele>1107.44</ele>
        <time>2013-09-28T10:23:51Z</time>
      </trkpt>
      <trkpt lat="45.93528" lon="6.48313">
        <ele>1106.92</ele>
        <time>2013-09-28T10:23:56Z</time>
      </trkpt>
      <trkpt lat="45.93536" lon="6.48366">
        <ele>1106.99</ele>
        <time>2013-09-28T10:24:01Z</time>
      </trkpt>
      <trkpt lat="45.93543" lon="6.48417">
        <ele>1106.37</ele>
        <time>2013-09-28T10:24:06Z</time>
      </trkpt>
      <trkpt lat="45.93549" lon="6.48466">
        <ele>1104.23</ele>
        <time>2013-09-28T10:24:11Z</time>
      </trkpt>
      <trkpt lat="45.93555" lon="6.48512">
        <ele>1104.65</ele>
        <time>2013-09-28T10:24:16Z</time>
      </trkpt>
      <trkpt lat="45.93562" lon="6.48556">
        <ele>1104.66</ele>
        <time>2013-09-28T10:24:21Z</time>
      </trkpt>
      <trkpt lat="45.93577" lon="6.48585">
        <ele>1109.43</ele>
        <time>2013-09-28T10:26:48Z</time>
      </trkpt>
      <trkpt lat="45.93592" lon="6.48614">
        <ele>1109.31</ele>
        <time>2013-09-28T10:27:29Z</time>
      </trkpt>
      <trkpt lat="45.93609" lon="6.48643">
        <ele>1110.19</ele>
        <time>2013-09-28T10:27:36Z</time>
      </trkpt>
      <trkpt lat="45.93626" lon="6.48673">
        <ele>1110.25</ele>
        <time>2013-09-28T10:27:42Z</time>
      </trkpt>
      <trkpt lat="45.93643" lon="6.487">
        <ele>1110.73</ele>
        <time>2013-09-28T10:27:47Z</time>
      </trkpt>
      <trkpt lat="45.93661" lon="6.48725">
        <ele>1112.74</ele>
        <time>2013-09-28T10:27:53Z</time>
      </trkpt>
      <trkpt lat="45.93682" lon="6.48745">
        <ele>1113</ele>
        <time>2013-09-28T10:28:00Z</time>
      </trkpt>
      <trkpt lat="45.93703" lon="6.48762">
        <ele>1114.21</ele>
        <time>2013-09-28T10:28:08Z</time>
      </trkpt>
      <trkpt lat="45.93724" lon="6.48774">
        <ele>1114.05</ele>
        <time>2013-09-28T10:28:16Z</time>
      </trkpt>
      <trkpt lat="45.93743" lon="6.48795">
        <ele>1112.45</ele>
        <time>2013-09-28T10:28:25Z</time>
      </trkpt>
      <trkpt lat="45.93756" lon="6.48824">
        <ele>1113.03</ele>
        <time>2013-09-28T10:28:35Z</time>
      </trkpt>
      <trkpt lat="45.93766" lon="6.48855">
        <ele>1115.33</ele>
        <time>2013-09-28T10:28:44Z</time>
      </trkpt>
      <trkpt lat="45.93781" lon="6.48883">
        <ele>1124.91</ele>
        <time>2013-09-28T10:28:54Z</time>
      </trkpt>
      <trkpt lat="45.93795" lon="6.4891">
        <ele>1127.35</ele>
        <time>2013-09-28T10:29:03Z</time>
      </trkpt>
      <trkpt lat="45.93808" lon="6.4894">
        <ele>1133.41</ele>
        <time>2013-09-28T10:29:12Z</time>
      </trkpt>
      <trkpt lat="45.93824" lon="6.48966">
        <ele>1136.97</ele>
        <time>2013-09-28T10:29:22Z</time>
      </trkpt>
      <trkpt lat="45.93847" lon="6.48974">
        <ele>1140.68</ele>
        <time>2013-09-28T10:29:29Z</time>
      </trkpt>
      <trkpt lat="45.93862" lon="6.49">
        <ele>1143.8</ele>
        <time>2013-09-28T10:29:37Z</time>
      </trkpt>
      <trkpt lat="45.9387" lon="6.49034">
        <ele>1151.68</ele>
        <time>2013-09-28T10:29:47Z</time>
      </trkpt>
      <trkpt lat="45.93878" lon="6.49068">
        <ele>1151.12</ele>
        <time>2013-09-28T10:29:56Z</time>
      </trkpt>
      <trkpt lat="45.93887" lon="6.49101">
        <ele>1149.43</ele>
        <time>2013-09-28T10:30:04Z</time>
      </trkpt>
      <trkpt lat="45.93893" lon="6.49136">
        <ele>1148.5</ele>
        <time>2013-09-28T10:30:12Z</time>
      </trkpt>
      <trkpt lat="45.9389" lon="6.49169">
        <ele>1154.33</ele>
        <time>2013-09-28T10:30:20Z</time>
      </trkpt>
      <trkpt lat="45.93899" lon="6.49201">
        <ele>1153.79</ele>
        <time>2013-09-28T10:30:29Z</time>
      </trkpt>
      <trkpt lat="45.93914" lon="6.49229">
        <ele>1153.4</ele>
        <time>2013-09-28T10:30:37Z</time>
      </trkpt>
      <trkpt lat="45.93933" lon="6.49249">
        <ele>1157.9</ele>
        <time>2013-09-28T10:30:45Z</time>
      </trkpt>
      <trkpt lat="45.93954" lon="6.4926">
        <ele>1158.27</ele>
        <time>2013-09-28T10:30:53Z</time>
      </trkpt>
      <trkpt lat="45.93975" lon="6.49277">
        <ele>1158.34</ele>
        <time>2013-09-28T10:31:03Z</time>
      </trkpt>
      <trkpt lat="45.93994" lon="6.49299">
        <ele>1160.42</ele>
        <time>2013-09-28T10:31:12Z</time>
      </trkpt>
      <trkpt lat="45.94009" lon="6.49325">
        <ele>1167.83</ele>
        <time>2013-09-28T10:31:21Z</time>
      </trkpt>
      <trkpt lat="45.94024" lon="6.49353">
        <ele>1171.75</ele>
        <time>2013-09-28T10:31:31Z</time>
      </trkpt>
      <trkpt lat="45.94041" lon="6.49378">
        <ele>1172.96</ele>
        <time>2013-09-28T10:31:40Z</time>
      </trkpt>
      <trkpt lat="45.94059" lon="6.49398">
        <ele>1174.18</ele>
        <time>2013-09-28T10:31:49Z</time>
      </trkpt>
      <trkpt lat="45.94081" lon="6.49412">
        <ele>1173.33</ele>
        <time>2013-09-28T10:31:59Z</time>
      </trkpt>
      <trkpt lat="45.94101" lon="6.49428">
        <ele>1172.77</ele>
        <time>2013-09-28T10:32:09Z</time>
      </trkpt>
      <trkpt lat="45.9412" lon="6.49446">
        <ele>1169.59</ele>
        <time>2013-09-28T10:32:19Z</time>
      </trkpt>
      <trkpt lat="45.94144" lon="6.49451">
        <ele>1169.81</ele>
        <time>2013-09-28T10:32:29Z</time>
      </trkpt>
      <trkpt lat="45.94167" lon="6.49458">
        <ele>1175.11</ele>
        <time>2013-09-28T10:32:38Z</time>
      </trkpt>
      <trkpt lat="45.9419" lon="6.49459">
        <ele>1181.49</ele>
        <time>2013-09-28T10:32:47Z</time>
      </trkpt>
      <trkpt lat="45.9418" lon="6.4943">
        <ele>1184.91</ele>
        <time>2013-09-28T10:32:57Z</time>
      </trkpt>
      <trkpt lat="45.94168" lon="6.49398">
        <ele>1188.19</ele>
        <time>2013-09-28T10:33:07Z</time>
      </trkpt>
      <trkpt lat="45.94151" lon="6.49375">
        <ele>1188.08</ele>
        <time>2013-09-28T10:33:15Z</time>
      </trkpt>
      <trkpt lat="45.9413" lon="6.49363">
        <ele>1198.12</ele>
        <time>2013-09-28T10:33:25Z</time>
      </trkpt>
      <trkpt lat="45.94117" lon="6.49334">
        <ele>1205.82</ele>
        <time>2013-09-28T10:33:45Z</time>
      </trkpt>
      <trkpt lat="45.94108" lon="6.49301">
        <ele>1209.65</ele>
        <time>2013-09-28T10:33:59Z</time>
      </trkpt>
      <trkpt lat="45.94114" lon="6.49269">
        <ele>1214.98</ele>
        <time>2013-09-28T10:34:10Z</time>
      </trkpt>
      <trkpt lat="45.94138" lon="6.49266">
        <ele>1232.31</ele>
        <time>2013-09-28T10:34:48Z</time>
      </trkpt>
      <trkpt lat="45.94159" lon="6.49275">
        <ele>1229.36</ele>
        <time>2013-09-28T10:34:59Z</time>
      </trkpt>
      <trkpt lat="45.94178" lon="6.49294">
        <ele>1217.63</ele>
        <time>2013-09-28T10:35:10Z</time>
      </trkpt>
      <trkpt lat="45.94201" lon="6.49303">
        <ele>1220.82</ele>
        <time>2013-09-28T10:35:19Z</time>
      </trkpt>
      <trkpt lat="45.94224" lon="6.49308">
        <ele>1221.87</ele>
        <time>2013-09-28T10:35:27Z</time>
      </trkpt>
      <trkpt lat="45.94248" lon="6.4931">
        <ele>1223.28</ele>
        <time>2013-09-28T10:35:37Z</time>
      </trkpt>
      <trkpt lat="45.9427" lon="6.493">
        <ele>1228.06</ele>
        <time>2013-09-28T10:35:47Z</time>
      </trkpt>
      <trkpt lat="45.94293" lon="6.49306">
        <ele>1232.27</ele>
        <time>2013-09-28T10:35:57Z</time>
      </trkpt>
      <trkpt lat="45.94312" lon="6.49325">
        <ele>1239.61</ele>
        <time>2013-09-28T10:36:08Z</time>
      </trkpt>
      <trkpt lat="45.94335" lon="6.49331">
        <ele>1247.46</ele>
        <time>2013-09-28T10:36:22Z</time>
      </trkpt>
      <trkpt lat="45.94358" lon="6.49336">
        <ele>1250.45</ele>
        <time>2013-09-28T10:36:35Z</time>
      </trkpt>
      <trkpt lat="45.94379" lon="6.49347">
        <ele>1253.68</ele>
        <time>2013-09-28T10:36:47Z</time>
      </trkpt>
      <trkpt lat="45.944" lon="6.4936">
        <ele>1263.44</ele>
        <time>2013-09-28T10:37:00Z</time>
      </trkpt>
      <trkpt lat="45.94414" lon="6.49385">
        <ele>1279.66</ele>
        <time>2013-09-28T10:37:14Z</time>
      </trkpt>
      <trkpt lat="45.94432" lon="6.49407">
        <ele>1280.05</ele>
        <time>2013-09-28T10:37:25Z</time>
      </trkpt>
      <trkpt lat="45.94453" lon="6.49424">
        <ele>1275.47</ele>
        <time>2013-09-28T10:37:36Z</time>
      </trkpt>
      <trkpt lat="45.94476" lon="6.49436">
        <ele>1274.79</ele>
        <time>2013-09-28T10:37:47Z</time>
      </trkpt>
      <trkpt lat="45.94498" lon="6.49435">
        <ele>1275.72</ele>
        <time>2013-09-28T10:37:58Z</time>
      </trkpt>
      <trkpt lat="45.94494" lon="6.494">
        <ele>1280.96</ele>
        <time>2013-09-28T10:38:10Z</time>
      </trkpt>
      <trkpt lat="45.94479" lon="6.49373">
        <ele>1282.46</ele>
        <time>2013-09-28T10:38:19Z</time>
      </trkpt>
      <trkpt lat="45.94469" lon="6.49342">
        <ele>1291.65</ele>
        <time>2013-09-28T10:38:31Z</time>
      </trkpt>
      <trkpt lat="45.94492" lon="6.49345">
        <ele>1302.16</ele>
        <time>2013-09-28T10:39:00Z</time>
      </trkpt>
      <trkpt lat="45.94512" lon="6.49364">
        <ele>1302.87</ele>
        <time>2013-09-28T10:39:11Z</time>
      </trkpt>
      <trkpt lat="45.94534" lon="6.49374">
        <ele>1302.21</ele>
        <time>2013-09-28T10:39:22Z</time>
      </trkpt>
      <trkpt lat="45.94557" lon="6.49375">
        <ele>1303.91</ele>
        <time>2013-09-28T10:39:33Z</time>
      </trkpt>
      <trkpt lat="45.9458" lon="6.4937">
        <ele>1303.46</ele>
        <time>2013-09-28T10:39:44Z</time>
      </trkpt>
      <trkpt lat="45.94603" lon="6.49361">
        <ele>1304.65</ele>
        <time>2013-09-28T10:39:56Z</time>
      </trkpt>
      <trkpt lat="45.94624" lon="6.49349">
        <ele>1309.3</ele>
        <time>2013-09-28T10:40:08Z</time>
      </trkpt>
      <trkpt lat="45.94636" lon="6.49321">
        <ele>1313.73</ele>
        <time>2013-09-28T10:40:20Z</time>
      </trkpt>
      <trkpt lat="45.94621" lon="6.49295">
        <ele>1323.97</ele>
        <time>2013-09-28T10:40:37Z</time>
      </trkpt>
      <trkpt lat="45.94598" lon="6.49288">
        <ele>1324.47</ele>
        <time>2013-09-28T10:40:48Z</time>
      </trkpt>
      <trkpt lat="45.94574" lon="6.49281">
        <ele>1328.77</ele>
        <time>2013-09-28T10:41:00Z</time>
      </trkpt>
      <trkpt lat="45.94555" lon="6.49262">
        <ele>1337.95</ele>
        <time>2013-09-28T10:41:13Z</time>
      </trkpt>
      <trkpt lat="45.9454" lon="6.49235">
        <ele>1343.81</ele>
        <time>2013-09-28T10:41:24Z</time>
      </trkpt>
      <trkpt lat="45.94535" lon="6.49203">
        <ele>1348.3</ele>
        <time>2013-09-28T10:41:35Z</time>
      </trkpt>
      <trkpt lat="45.94534" lon="6.49169">
        <ele>1346.78</ele>
        <time>2013-09-28T10:41:46Z</time>
      </trkpt>
      <trkpt lat="45.94539" lon="6.49138">
        <ele>1345.14</ele>
        <time>2013-09-28T10:41:57Z</time>
      </trkpt>
      <trkpt lat="45.94536" lon="6.49103">
        <ele>1344.25</ele>
        <time>2013-09-28T10:42:07Z</time>
      </trkpt>
      <trkpt lat="45.94558" lon="6.49096">
        <ele>1350.28</ele>
        <time>2013-09-28T10:42:24Z</time>
      </trkpt>
      <trkpt lat="45.94579" lon="6.49111">
        <ele>1350.02</ele>
        <time>2013-09-28T10:42:35Z</time>
      </trkpt>
      <trkpt lat="45.94602" lon="6.49125">
        <ele>1351.89</ele>
        <time>2013-09-28T10:42:47Z</time>
      </trkpt>
      <trkpt lat="45.94624" lon="6.49137">
        <ele>1351.8</ele>
        <time>2013-09-28T10:42:59Z</time>
      </trkpt>
      <trkpt lat="45.94646" lon="6.49153">
        <ele>1356.61</ele>
        <time>2013-09-28T10:43:10Z</time>
      </trkpt>
      <trkpt lat="45.94661" lon="6.49176">
        <ele>1359.1</ele>
        <time>2013-09-28T10:43:22Z</time>
      </trkpt>
      <trkpt lat="45.94684" lon="6.49179">
        <ele>1360.45</ele>
        <time>2013-09-28T10:43:32Z</time>
      </trkpt>
      <trkpt lat="45.94707" lon="6.49175">
        <ele>1362.16</ele>
        <time>2013-09-28T10:43:42Z</time>
      </trkpt>
      <trkpt lat="45.94727" lon="6.49193">
        <ele>1365.46</ele>
        <time>2013-09-28T10:43:54Z</time>
      </trkpt>
      <trkpt lat="45.94747" lon="6.49211">
        <ele>1368.71</ele>
        <time>2013-09-28T10:44:06Z</time>
      </trkpt>
      <trkpt lat="45.94771" lon="6.49212">
        <ele>1371.22</ele>
        <time>2013-09-28T10:44:17Z</time>
      </trkpt>
      <trkpt lat="45.94795" lon="6.49212">
        <ele>1378.19</ele>
        <time>2013-09-28T10:44:33Z</time>
      </trkpt>
      <trkpt lat="45.94817" lon="6.49197">
        <ele>1387.58</ele>
        <time>2013-09-28T10:44:45Z</time>
      </trkpt>
      <trkpt lat="45.94841" lon="6.49198">
        <ele>1391.23</ele>
        <time>2013-09-28T10:44:55Z</time>
      </trkpt>
      <trkpt lat="45.94864" lon="6.49198">
        <ele>1393.06</ele>
        <time>2013-09-28T10:45:05Z</time>
      </trkpt>
      <trkpt lat="45.94885" lon="6.49188">
        <ele>1397.68</ele>
        <time>2013-09-28T10:45:24Z</time>
      </trkpt>
      <trkpt lat="45.94898" lon="6.49161">
        <ele>1408.97</ele>
        <time>2013-09-28T10:45:38Z</time>
      </trkpt>
      <trkpt lat="45.94921" lon="6.49151">
        <ele>1414.09</ele>
        <time>2013-09-28T10:45:51Z</time>
      </trkpt>
      <trkpt lat="45.94944" lon="6.49147">
        <ele>1414.07</ele>
        <time>2013-09-28T10:46:02Z</time>
      </trkpt>
      <trkpt lat="45.94961" lon="6.49169">
        <ele>1429.75</ele>
        <time>2013-09-28T10:46:16Z</time>
      </trkpt>
      <trkpt lat="45.9497" lon="6.49199">
        <ele>1438.38</ele>
        <time>2013-09-28T10:46:31Z</time>
      </trkpt>
      <trkpt lat="45.94988" lon="6.49223">
        <ele>1427.89</ele>
        <time>2013-09-28T10:46:38Z</time>
      </trkpt>
      <trkpt lat="45.95012" lon="6.49227">
        <ele>1425.44</ele>
        <time>2013-09-28T10:46:49Z</time>
      </trkpt>
      <trkpt lat="45.95035" lon="6.49229">
        <ele>1427.29</ele>
        <time>2013-09-28T10:47:01Z</time>
      </trkpt>
      <trkpt lat="45.95057" lon="6.49239">
        <ele>1430.36</ele>
        <time>2013-09-28T10:47:10Z</time>
      </trkpt>
      <trkpt lat="45.9508" lon="6.49252">
        <ele>1435.43</ele>
        <time>2013-09-28T10:47:20Z</time>
      </trkpt>
      <trkpt lat="45.951" lon="6.49271">
        <ele>1438.75</ele>
        <time>2013-09-28T10:47:31Z</time>
      </trkpt>
      <trkpt lat="45.95119" lon="6.49291">
        <ele>1439.96</ele>
        <time>2013-09-28T10:47:41Z</time>
      </trkpt>
      <trkpt lat="45.95135" lon="6.49318">
        <ele>1440.89</ele>
        <time>2013-09-28T10:47:52Z</time>
      </trkpt>
      <trkpt lat="45.9515" lon="6.49346">
        <ele>1444.35</ele>
        <time>2013-09-28T10:48:03Z</time>
      </trkpt>
      <trkpt lat="45.95161" lon="6.49376">
        <ele>1445.39</ele>
        <time>2013-09-28T10:48:14Z</time>
      </trkpt>
      <trkpt lat="45.9518" lon="6.49395">
        <ele>1447.76</ele>
        <time>2013-09-28T10:48:25Z</time>
      </trkpt>
      <trkpt lat="45.952" lon="6.4941">
        <ele>1449.48</ele>
        <time>2013-09-28T10:48:35Z</time>
      </trkpt>
      <trkpt lat="45.95221" lon="6.49422">
        <ele>1448.69</ele>
        <time>2013-09-28T10:48:45Z</time>
      </trkpt>
      <trkpt lat="45.95242" lon="6.49432">
        <ele>1449.74</ele>
        <time>2013-09-28T10:48:55Z</time>
      </trkpt>
      <trkpt lat="45.95266" lon="6.49439">
        <ele>1451.35</ele>
        <time>2013-09-28T10:49:05Z</time>
      </trkpt>
      <trkpt lat="45.95289" lon="6.49436">
        <ele>1453.44</ele>
        <time>2013-09-28T10:49:14Z</time>
      </trkpt>
      <trkpt lat="45.95311" lon="6.49435">
        <ele>1457.1</ele>
        <time>2013-09-28T10:49:23Z</time>
      </trkpt>
      <trkpt lat="45.95329" lon="6.49457">
        <ele>1457.47</ele>
        <time>2013-09-28T10:49:30Z</time>
      </trkpt>
      <trkpt lat="45.95352" lon="6.4947">
        <ele>1456.4</ele>
        <time>2013-09-28T10:49:38Z</time>
      </trkpt>
      <trkpt lat="45.95374" lon="6.49484">
        <ele>1456.7</ele>
        <time>2013-09-28T10:49:46Z</time>
      </trkpt>
      <trkpt lat="45.95397" lon="6.49483">
        <ele>1457.68</ele>
        <time>2013-09-28T10:49:56Z</time>
      </trkpt>
      <trkpt lat="45.95421" lon="6.49487">
        <ele>1461.52</ele>
        <time>2013-09-28T10:50:09Z</time>
      </trkpt>
      <trkpt lat="45.95441" lon="6.49507">
        <ele>1470.61</ele>
        <time>2013-09-28T10:50:20Z</time>
      </trkpt>
      <trkpt lat="45.95463" lon="6.49524">
        <ele>1472</ele>
        <time>2013-09-28T10:50:30Z</time>
      </trkpt>
      <trkpt lat="45.95484" lon="6.49537">
        <ele>1471.35</ele>
        <time>2013-09-28T10:50:39Z</time>
      </trkpt>
      <trkpt lat="45.95506" lon="6.49551">
        <ele>1472.83</ele>
        <time>2013-09-28T10:50:50Z</time>
      </trkpt>
      <trkpt lat="45.95527" lon="6.49565">
        <ele>1475.97</ele>
        <time>2013-09-28T10:51:01Z</time>
      </trkpt>
      <trkpt lat="45.95547" lon="6.49583">
        <ele>1479.24</ele>
        <time>2013-09-28T10:51:12Z</time>
      </trkpt>
      <trkpt lat="45.95563" lon="6.49607">
        <ele>1484.58</ele>
        <time>2013-09-28T10:51:23Z</time>
      </trkpt>
      <trkpt lat="45.95581" lon="6.49629">
        <ele>1485.94</ele>
        <time>2013-09-28T10:51:33Z</time>
      </trkpt>
      <trkpt lat="45.9559" lon="6.49661">
        <ele>1485.01</ele>
        <time>2013-09-28T10:51:43Z</time>
      </trkpt>
      <trkpt lat="45.95588" lon="6.49695">
        <ele>1490.48</ele>
        <time>2013-09-28T10:51:53Z</time>
      </trkpt>
      <trkpt lat="45.95592" lon="6.49727">
        <ele>1493.96</ele>
        <time>2013-09-28T10:52:03Z</time>
      </trkpt>
      <trkpt lat="45.95608" lon="6.49751">
        <ele>1495.53</ele>
        <time>2013-09-28T10:52:12Z</time>
      </trkpt>
      <trkpt lat="45.95627" lon="6.49769">
        <ele>1496.94</ele>
        <time>2013-09-28T10:52:22Z</time>
      </trkpt>
      <trkpt lat="45.95647" lon="6.49786">
        <ele>1497.66</ele>
        <time>2013-09-28T10:52:31Z</time>
      </trkpt>
      <trkpt lat="45.95665" lon="6.49809">
        <ele>1498.66</ele>
        <time>2013-09-28T10:52:40Z</time>
      </trkpt>
      <trkpt lat="45.9568" lon="6.49838">
        <ele>1501.71</ele>
        <time>2013-09-28T10:52:50Z</time>
      </trkpt>
      <trkpt lat="45.957" lon="6.49857">
        <ele>1504.67</ele>
        <time>2013-09-28T10:53:00Z</time>
      </trkpt>
      <trkpt lat="45.9572" lon="6.49873">
        <ele>1506.7</ele>
        <time>2013-09-28T10:53:09Z</time>
      </trkpt>
      <trkpt lat="45.95741" lon="6.49888">
        <ele>1504.79</ele>
        <time>2013-09-28T10:53:14Z</time>
      </trkpt>
      <trkpt lat="45.95767" lon="6.49902">
        <ele>1505.58</ele>
        <time>2013-09-28T10:53:19Z</time>
      </trkpt>
      <trkpt lat="45.95788" lon="6.49922">
        <ele>1506.09</ele>
        <time>2013-09-28T10:53:24Z</time>
      </trkpt>
      <trkpt lat="45.95811" lon="6.49919">
        <ele>1506.5</ele>
        <time>2013-09-28T10:53:29Z</time>
      </trkpt>
      <trkpt lat="45.95836" lon="6.49918">
        <ele>1507.16</ele>
        <time>2013-09-28T10:53:34Z</time>
      </trkpt>
      <trkpt lat="45.95857" lon="6.4994">
        <ele>1508.44</ele>
        <time>2013-09-28T10:53:40Z</time>
      </trkpt>
      <trkpt lat="45.95876" lon="6.49963">
        <ele>1508.45</ele>
        <time>2013-09-28T10:53:46Z</time>
      </trkpt>
      <trkpt lat="45.95895" lon="6.49982">
        <ele>1508.93</ele>
        <time>2013-09-28T10:53:51Z</time>
      </trkpt>
      <trkpt lat="45.95912" lon="6.50005">
        <ele>1508.44</ele>
        <time>2013-09-28T10:53:56Z</time>
      </trkpt>
      <trkpt lat="45.95921" lon="6.50038">
        <ele>1509.29</ele>
        <time>2013-09-28T10:54:01Z</time>
      </trkpt>
      <trkpt lat="45.95924" lon="6.50073">
        <ele>1510.04</ele>
        <time>2013-09-28T10:54:06Z</time>
      </trkpt>
      <trkpt lat="45.95937" lon="6.50103">
        <ele>1511.26</ele>
        <time>2013-09-28T10:54:11Z</time>
      </trkpt>
      <trkpt lat="45.95953" lon="6.50128">
        <ele>1510</ele>
        <time>2013-09-28T10:54:17Z</time>
      </trkpt>
      <trkpt lat="45.95972" lon="6.50153">
        <ele>1516.26</ele>
        <time>2013-09-28T10:54:25Z</time>
      </trkpt>
      <trkpt lat="45.95993" lon="6.50172">
        <ele>1517.58</ele>
        <time>2013-09-28T10:54:33Z</time>
      </trkpt>
      <trkpt lat="45.96014" lon="6.50187">
        <ele>1521.37</ele>
        <time>2013-09-28T10:54:41Z</time>
      </trkpt>
      <trkpt lat="45.96035" lon="6.50201">
        <ele>1523.66</ele>
        <time>2013-09-28T10:54:50Z</time>
      </trkpt>
      <trkpt lat="45.96058" lon="6.50207">
        <ele>1525.2</ele>
        <time>2013-09-28T10:55:00Z</time>
      </trkpt>
      <trkpt lat="45.9608" lon="6.5021">
        <ele>1524.17</ele>
        <time>2013-09-28T10:55:10Z</time>
      </trkpt>
      <trkpt lat="45.96102" lon="6.5022">
        <ele>1526.11</ele>
        <time>2013-09-28T10:55:21Z</time>
      </trkpt>
      <trkpt lat="45.96124" lon="6.50229">
        <ele>1524.56</ele>
        <time>2013-09-28T10:55:32Z</time>
      </trkpt>
      <trkpt lat="45.96144" lon="6.50244">
        <ele>1529.53</ele>
        <time>2013-09-28T10:55:44Z</time>
      </trkpt>
      <trkpt lat="45.96157" lon="6.5027">
        <ele>1533.75</ele>
        <time>2013-09-28T10:55:53Z</time>
      </trkpt>
      <trkpt lat="45.96173" lon="6.50294">
        <ele>1537.41</ele>
        <time>2013-09-28T10:56:04Z</time>
      </trkpt>
      <trkpt lat="45.96191" lon="6.50315">
        <ele>1541.21</ele>
        <time>2013-09-28T10:56:15Z</time>
      </trkpt>
      <trkpt lat="45.96214" lon="6.50327">
        <ele>1547.04</ele>
        <time>2013-09-28T10:56:28Z</time>
      </trkpt>
      <trkpt lat="45.96233" lon="6.50343">
        <ele>1549.23</ele>
        <time>2013-09-28T10:56:39Z</time>
      </trkpt>
      <trkpt lat="45.96257" lon="6.50349">
        <ele>1549.79</ele>
        <time>2013-09-28T10:56:51Z</time>
      </trkpt>
      <trkpt lat="45.96278" lon="6.50359">
        <ele>1549.45</ele>
        <time>2013-09-28T10:57:02Z</time>
      </trkpt>
      <trkpt lat="45.96302" lon="6.50368">
        <ele>1555.76</ele>
        <time>2013-09-28T10:57:13Z</time>
      </trkpt>
      <trkpt lat="45.96322" lon="6.50384">
        <ele>1556.39</ele>
        <time>2013-09-28T10:57:22Z</time>
      </trkpt>
      <trkpt lat="45.9634" lon="6.50406">
        <ele>1559.33</ele>
        <time>2013-09-28T10:57:31Z</time>
      </trkpt>
      <trkpt lat="45.96351" lon="6.50435">
        <ele>1563.14</ele>
        <time>2013-09-28T10:57:40Z</time>
      </trkpt>
      <trkpt lat="45.96355" lon="6.50467">
        <ele>1566.4</ele>
        <time>2013-09-28T10:57:49Z</time>
      </trkpt>
      <trkpt lat="45.96361" lon="6.50498">
        <ele>1570.3</ele>
        <time>2013-09-28T10:57:59Z</time>
      </trkpt>
      <trkpt lat="45.96371" lon="6.50528">
        <ele>1573.6</ele>
        <time>2013-09-28T10:58:09Z</time>
      </trkpt>
      <trkpt lat="45.96383" lon="6.50558">
        <ele>1575.71</ele>
        <time>2013-09-28T10:58:19Z</time>
      </trkpt>
      <trkpt lat="45.96396" lon="6.50588">
        <ele>1576.98</ele>
        <time>2013-09-28T10:58:29Z</time>
      </trkpt>
      <trkpt lat="45.96414" lon="6.50606">
        <ele>1579.34</ele>
        <time>2013-09-28T10:58:39Z</time>
      </trkpt>
      <trkpt lat="45.96435" lon="6.50624">
        <ele>1581.66</ele>
        <time>2013-09-28T10:58:48Z</time>
      </trkpt>
      <trkpt lat="45.96455" lon="6.50644">
        <ele>1583.3</ele>
        <time>2013-09-28T10:58:56Z</time>
      </trkpt>
      <trkpt lat="45.96476" lon="6.50662">
        <ele>1585.94</ele>
        <time>2013-09-28T10:59:04Z</time>
      </trkpt>
      <trkpt lat="45.96498" lon="6.50676">
        <ele>1585.97</ele>
        <time>2013-09-28T10:59:12Z</time>
      </trkpt>
      <trkpt lat="45.96521" lon="6.50686">
        <ele>1586.96</ele>
        <time>2013-09-28T10:59:20Z</time>
      </trkpt>
      <trkpt lat="45.96543" lon="6.50697">
        <ele>1587.21</ele>
        <time>2013-09-28T10:59:28Z</time>
      </trkpt>
      <trkpt lat="45.96564" lon="6.50711">
        <ele>1590.67</ele>
        <time>2013-09-28T10:59:36Z</time>
      </trkpt>
      <trkpt lat="45.96584" lon="6.50732">
        <ele>1595.9</ele>
        <time>2013-09-28T10:59:44Z</time>
      </trkpt>
      <trkpt lat="45.96603" lon="6.50752">
        <ele>1596.61</ele>
        <time>2013-09-28T10:59:53Z</time>
      </trkpt>
      <trkpt lat="45.96624" lon="6.5077">
        <ele>1600</ele>
        <time>2013-09-28T11:00:04Z</time>
      </trkpt>
      <trkpt lat="45.96645" lon="6.50788">
        <ele>1603.11</ele>
        <time>2013-09-28T11:00:14Z</time>
      </trkpt>
      <trkpt lat="45.96661" lon="6.50812">
        <ele>1602.7</ele>
        <time>2013-09-28T11:00:22Z</time>
      </trkpt>
      <trkpt lat="45.96675" lon="6.50838">
        <ele>1606.81</ele>
        <time>2013-09-28T11:00:31Z</time>
      </trkpt>
      <trkpt lat="45.96687" lon="6.50867">
        <ele>1608.49</ele>
        <time>2013-09-28T11:00:41Z</time>
      </trkpt>
      <trkpt lat="45.96699" lon="6.50896">
        <ele>1610.4</ele>
        <time>2013-09-28T11:00:51Z</time>
      </trkpt>
      <trkpt lat="45.96713" lon="6.50923">
        <ele>1613.49</ele>
        <time>2013-09-28T11:01:01Z</time>
      </trkpt>
      <trkpt lat="45.96726" lon="6.50949">
        <ele>1619.68</ele>
        <time>2013-09-28T11:01:13Z</time>
      </trkpt>
      <trkpt lat="45.96737" lon="6.50979">
        <ele>1622.49</ele>
        <time>2013-09-28T11:01:24Z</time>
      </trkpt>
      <trkpt lat="45.96748" lon="6.51009">
        <ele>1626.51</ele>
        <time>2013-09-28T11:01:39Z</time>
      </trkpt>
      <trkpt lat="45.96754" lon="6.51041">
        <ele>1628.81</ele>
        <time>2013-09-28T11:01:52Z</time>
      </trkpt>
      <trkpt lat="45.96758" lon="6.51073">
        <ele>1629.48</ele>
        <time>2013-09-28T11:02:04Z</time>
      </trkpt>
      <trkpt lat="45.96747" lon="6.51105">
        <ele>1631.35</ele>
        <time>2013-09-28T11:02:16Z</time>
      </trkpt>
      <trkpt lat="45.96732" lon="6.5113">
        <ele>1628.85</ele>
        <time>2013-09-28T11:02:26Z</time>
      </trkpt>
      <trkpt lat="45.96716" lon="6.51153">
        <ele>1632.32</ele>
        <time>2013-09-28T11:02:35Z</time>
      </trkpt>
      <trkpt lat="45.96701" lon="6.51178">
        <ele>1639.02</ele>
        <time>2013-09-28T11:02:44Z</time>
      </trkpt>
      <trkpt lat="45.96689" lon="6.51206">
        <ele>1641.3</ele>
        <time>2013-09-28T11:02:57Z</time>
      </trkpt>
      <trkpt lat="45.96684" lon="6.5124">
        <ele>1641.14</ele>
        <time>2013-09-28T11:03:08Z</time>
      </trkpt>
      <trkpt lat="45.96682" lon="6.51275">
        <ele>1639.81</ele>
        <time>2013-09-28T11:03:18Z</time>
      </trkpt>
      <trkpt lat="45.96684" lon="6.51309">
        <ele>1639.85</ele>
        <time>2013-09-28T11:03:27Z</time>
      </trkpt>
      <trkpt lat="45.96686" lon="6.51342">
        <ele>1643.37</ele>
        <time>2013-09-28T11:03:37Z</time>
      </trkpt>
      <trkpt lat="45.96692" lon="6.51375">
        <ele>1644.81</ele>
        <time>2013-09-28T11:03:49Z</time>
      </trkpt>
      <trkpt lat="45.96706" lon="6.51403">
        <ele>1649.82</ele>
        <time>2013-09-28T11:04:01Z</time>
      </trkpt>
      <trkpt lat="45.96729" lon="6.51403">
        <ele>1658.09</ele>
        <time>2013-09-28T11:04:13Z</time>
      </trkpt>
      <trkpt lat="45.96753" lon="6.51406">
        <ele>1660.57</ele>
        <time>2013-09-28T11:04:26Z</time>
      </trkpt>
      <trkpt lat="45.96776" lon="6.51412">
        <ele>1664.35</ele>
        <time>2013-09-28T11:04:38Z</time>
      </trkpt>
      <trkpt lat="45.96799" lon="6.51423">
        <ele>1667.87</ele>
        <time>2013-09-28T11:04:51Z</time>
      </trkpt>
      <trkpt lat="45.96813" lon="6.51448">
        <ele>1672.33</ele>
        <time>2013-09-28T11:05:04Z</time>
      </trkpt>
      <trkpt lat="45.9682" lon="6.51481">
        <ele>1674.76</ele>
        <time>2013-09-28T11:05:17Z</time>
      </trkpt>
      <trkpt lat="45.96824" lon="6.51513">
        <ele>1675.76</ele>
        <time>2013-09-28T11:05:29Z</time>
      </trkpt>
      <trkpt lat="45.96825" lon="6.51548">
        <ele>1677.74</ele>
        <time>2013-09-28T11:05:41Z</time>
      </trkpt>
      <trkpt lat="45.96825" lon="6.51581">
        <ele>1679.3</ele>
        <time>2013-09-28T11:05:53Z</time>
      </trkpt>
      <trkpt lat="45.96824" lon="6.51616">
        <ele>1681.5</ele>
        <time>2013-09-28T11:06:04Z</time>
      </trkpt>
      <trkpt lat="45.96836" lon="6.51645">
        <ele>1685.71</ele>
        <time>2013-09-28T11:06:16Z</time>
      </trkpt>
      <trkpt lat="45.9685" lon="6.51673">
        <ele>1689.71</ele>
        <time>2013-09-28T11:06:30Z</time>
      </trkpt>
      <trkpt lat="45.96856" lon="6.51707">
        <ele>1693.54</ele>
        <time>2013-09-28T11:06:44Z</time>
      </trkpt>
      <trkpt lat="45.96854" lon="6.51741">
        <ele>1698.28</ele>
        <time>2013-09-28T11:06:56Z</time>
      </trkpt>
      <trkpt lat="45.96852" lon="6.51775">
        <ele>1701.5</ele>
        <time>2013-09-28T11:07:07Z</time>
      </trkpt>
      <trkpt lat="45.96849" lon="6.51808">
        <ele>1701.99</ele>
        <time>2013-09-28T11:07:16Z</time>
      </trkpt>
      <trkpt lat="45.96844" lon="6.5184">
        <ele>1700.22</ele>
        <time>2013-09-28T11:07:24Z</time>
      </trkpt>
      <trkpt lat="45.96838" lon="6.51871">
        <ele>1701.9</ele>
        <time>2013-09-28T11:07:33Z</time>
      </trkpt>
      <trkpt lat="45.96833" lon="6.51906">
        <ele>1702.85</ele>
        <time>2013-09-28T11:07:43Z</time>
      </trkpt>
      <trkpt lat="45.9683" lon="6.5194">
        <ele>1705.66</ele>
        <time>2013-09-28T11:07:53Z</time>
      </trkpt>
      <trkpt lat="45.96835" lon="6.51973">
        <ele>1709.05</ele>
        <time>2013-09-28T11:08:06Z</time>
      </trkpt>
      <trkpt lat="45.96856" lon="6.51992">
        <ele>1714.16</ele>
        <time>2013-09-28T11:08:18Z</time>
      </trkpt>
      <trkpt lat="45.96876" lon="6.52007">
        <ele>1717.55</ele>
        <time>2013-09-28T11:08:29Z</time>
      </trkpt>
      <trkpt lat="45.96896" lon="6.52023">
        <ele>1723.89</ele>
        <time>2013-09-28T11:08:43Z</time>
      </trkpt>
      <trkpt lat="45.96917" lon="6.52041">
        <ele>1727.41</ele>
        <time>2013-09-28T11:08:55Z</time>
      </trkpt>
      <trkpt lat="45.96937" lon="6.52056">
        <ele>1730.33</ele>
        <time>2013-09-28T11:09:05Z</time>
      </trkpt>
      <trkpt lat="45.96958" lon="6.52072">
        <ele>1732.36</ele>
        <time>2013-09-28T11:09:16Z</time>
      </trkpt>
      <trkpt lat="45.96981" lon="6.52084">
        <ele>1739.81</ele>
        <time>2013-09-28T11:09:29Z</time>
      </trkpt>
      <trkpt lat="45.97004" lon="6.52086">
        <ele>1741.41</ele>
        <time>2013-09-28T11:09:42Z</time>
      </trkpt>
      <trkpt lat="45.97019" lon="6.52111">
        <ele>1741.77</ele>
        <time>2013-09-28T11:09:54Z</time>
      </trkpt>
      <trkpt lat="45.97024" lon="6.52143">
        <ele>1745</ele>
        <time>2013-09-28T11:10:05Z</time>
      </trkpt>
      <trkpt lat="45.97029" lon="6.52175">
        <ele>1747.63</ele>
        <time>2013-09-28T11:10:22Z</time>
      </trkpt>
      <trkpt lat="45.9704" lon="6.52206">
        <ele>1752.54</ele>
        <time>2013-09-28T11:10:37Z</time>
      </trkpt>
      <trkpt lat="45.97049" lon="6.52237">
        <ele>1753.96</ele>
        <time>2013-09-28T11:10:49Z</time>
      </trkpt>
      <trkpt lat="45.97051" lon="6.52269">
        <ele>1755.46</ele>
        <time>2013-09-28T11:11:01Z</time>
      </trkpt>
      <trkpt lat="45.97047" lon="6.52234">
        <ele>1774.3</ele>
        <time>2013-09-28T11:16:41Z</time>
      </trkpt>
      <trkpt lat="45.97038" lon="6.52202">
        <ele>1772.67</ele>
        <time>2013-09-28T11:16:48Z</time>
      </trkpt>
      <trkpt lat="45.97025" lon="6.5217">
        <ele>1766.16</ele>
        <time>2013-09-28T11:16:56Z</time>
      </trkpt>
      <trkpt lat="45.97017" lon="6.52137">
        <ele>1757.11</ele>
        <time>2013-09-28T11:17:02Z</time>
      </trkpt>
      <trkpt lat="45.97015" lon="6.52103">
        <ele>1753.46</ele>
        <time>2013-09-28T11:17:10Z</time>
      </trkpt>
      <trkpt lat="45.96999" lon="6.52076">
        <ele>1747.34</ele>
        <time>2013-09-28T11:17:17Z</time>
      </trkpt>
      <trkpt lat="45.96975" lon="6.52078">
        <ele>1741.18</ele>
        <time>2013-09-28T11:17:25Z</time>
      </trkpt>
      <trkpt lat="45.96947" lon="6.52063">
        <ele>1736.15</ele>
        <time>2013-09-28T11:17:30Z</time>
      </trkpt>
      <trkpt lat="45.96926" lon="6.52047">
        <ele>1732.62</ele>
        <time>2013-09-28T11:17:35Z</time>
      </trkpt>
      <trkpt lat="45.96903" lon="6.52025">
        <ele>1729.6</ele>
        <time>2013-09-28T11:17:41Z</time>
      </trkpt>
      <trkpt lat="45.96873" lon="6.52002">
        <ele>1728.18</ele>
        <time>2013-09-28T11:17:46Z</time>
      </trkpt>
      <trkpt lat="45.96849" lon="6.51983">
        <ele>1725.49</ele>
        <time>2013-09-28T11:17:51Z</time>
      </trkpt>
      <trkpt lat="45.96831" lon="6.51962">
        <ele>1721.06</ele>
        <time>2013-09-28T11:17:56Z</time>
      </trkpt>
      <trkpt lat="45.96826" lon="6.51914">
        <ele>1719.53</ele>
        <time>2013-09-28T11:18:01Z</time>
      </trkpt>
      <trkpt lat="45.96833" lon="6.51867">
        <ele>1716.42</ele>
        <time>2013-09-28T11:18:06Z</time>
      </trkpt>
      <trkpt lat="45.96844" lon="6.51814">
        <ele>1713.5</ele>
        <time>2013-09-28T11:18:11Z</time>
      </trkpt>
      <trkpt lat="45.96849" lon="6.51766">
        <ele>1712.93</ele>
        <time>2013-09-28T11:18:16Z</time>
      </trkpt>
      <trkpt lat="45.96852" lon="6.51732">
        <ele>1710.15</ele>
        <time>2013-09-28T11:18:21Z</time>
      </trkpt>
      <trkpt lat="45.96855" lon="6.51699">
        <ele>1709.23</ele>
        <time>2013-09-28T11:18:27Z</time>
      </trkpt>
      <trkpt lat="45.96846" lon="6.51659">
        <ele>1707.16</ele>
        <time>2013-09-28T11:18:32Z</time>
      </trkpt>
      <trkpt lat="45.96833" lon="6.5163">
        <ele>1703.67</ele>
        <time>2013-09-28T11:18:37Z</time>
      </trkpt>
      <trkpt lat="45.96822" lon="6.51598">
        <ele>1699.89</ele>
        <time>2013-09-28T11:18:42Z</time>
      </trkpt>
      <trkpt lat="45.96823" lon="6.51557">
        <ele>1694.77</ele>
        <time>2013-09-28T11:18:47Z</time>
      </trkpt>
      <trkpt lat="45.96824" lon="6.51519">
        <ele>1691.55</ele>
        <time>2013-09-28T11:18:53Z</time>
      </trkpt>
      <trkpt lat="45.96819" lon="6.51476">
        <ele>1689.87</ele>
        <time>2013-09-28T11:18:58Z</time>
      </trkpt>
      <trkpt lat="45.96809" lon="6.51441">
        <ele>1689.9</ele>
        <time>2013-09-28T11:19:06Z</time>
      </trkpt>
      <trkpt lat="45.96789" lon="6.51415">
        <ele>1686.23</ele>
        <time>2013-09-28T11:19:11Z</time>
      </trkpt>
      <trkpt lat="45.96762" lon="6.51409">
        <ele>1681.41</ele>
        <time>2013-09-28T11:19:18Z</time>
      </trkpt>
      <trkpt lat="45.96732" lon="6.51405">
        <ele>1678.66</ele>
        <time>2013-09-28T11:19:23Z</time>
      </trkpt>
      <trkpt lat="45.96708" lon="6.51398">
        <ele>1675.02</ele>
        <time>2013-09-28T11:19:28Z</time>
      </trkpt>
      <trkpt lat="45.96687" lon="6.51353">
        <ele>1668.08</ele>
        <time>2013-09-28T11:19:33Z</time>
      </trkpt>
      <trkpt lat="45.96683" lon="6.51297">
        <ele>1663.2</ele>
        <time>2013-09-28T11:19:38Z</time>
      </trkpt>
      <trkpt lat="45.96685" lon="6.51242">
        <ele>1658.88</ele>
        <time>2013-09-28T11:19:43Z</time>
      </trkpt>
      <trkpt lat="45.9669" lon="6.51202">
        <ele>1653.07</ele>
        <time>2013-09-28T11:19:48Z</time>
      </trkpt>
      <trkpt lat="45.96703" lon="6.51169">
        <ele>1650.71</ele>
        <time>2013-09-28T11:19:55Z</time>
      </trkpt>
      <trkpt lat="45.96724" lon="6.51142">
        <ele>1646.67</ele>
        <time>2013-09-28T11:20:00Z</time>
      </trkpt>
      <trkpt lat="45.96746" lon="6.51109">
        <ele>1644.24</ele>
        <time>2013-09-28T11:20:05Z</time>
      </trkpt>
      <trkpt lat="45.96755" lon="6.51077">
        <ele>1641.58</ele>
        <time>2013-09-28T11:20:10Z</time>
      </trkpt>
      <trkpt lat="45.96749" lon="6.51028">
        <ele>1639.16</ele>
        <time>2013-09-28T11:20:15Z</time>
      </trkpt>
      <trkpt lat="45.96732" lon="6.50974">
        <ele>1633.92</ele>
        <time>2013-09-28T11:20:20Z</time>
      </trkpt>
      <trkpt lat="45.96709" lon="6.50922">
        <ele>1627.72</ele>
        <time>2013-09-28T11:20:25Z</time>
      </trkpt>
      <trkpt lat="45.9669" lon="6.50872">
        <ele>1624.72</ele>
        <time>2013-09-28T11:20:30Z</time>
      </trkpt>
      <trkpt lat="45.96675" lon="6.50832">
        <ele>1620.97</ele>
        <time>2013-09-28T11:20:35Z</time>
      </trkpt>
      <trkpt lat="45.9666" lon="6.50804">
        <ele>1616.14</ele>
        <time>2013-09-28T11:20:40Z</time>
      </trkpt>
      <trkpt lat="45.96634" lon="6.50774">
        <ele>1611.92</ele>
        <time>2013-09-28T11:20:45Z</time>
      </trkpt>
      <trkpt lat="45.96607" lon="6.50748">
        <ele>1606.29</ele>
        <time>2013-09-28T11:20:50Z</time>
      </trkpt>
      <trkpt lat="45.96585" lon="6.50727">
        <ele>1601.35</ele>
        <time>2013-09-28T11:20:55Z</time>
      </trkpt>
      <trkpt lat="45.96552" lon="6.507">
        <ele>1599.67</ele>
        <time>2013-09-28T11:21:00Z</time>
      </trkpt>
      <trkpt lat="45.96523" lon="6.50685">
        <ele>1597.36</ele>
        <time>2013-09-28T11:21:05Z</time>
      </trkpt>
      <trkpt lat="45.96488" lon="6.50667">
        <ele>1593.75</ele>
        <time>2013-09-28T11:21:10Z</time>
      </trkpt>
      <trkpt lat="45.96454" lon="6.50642">
        <ele>1590.38</ele>
        <time>2013-09-28T11:21:15Z</time>
      </trkpt>
      <trkpt lat="45.96431" lon="6.50617">
        <ele>1587.49</ele>
        <time>2013-09-28T11:21:20Z</time>
      </trkpt>
      <trkpt lat="45.96398" lon="6.50589">
        <ele>1584.45</ele>
        <time>2013-09-28T11:21:25Z</time>
      </trkpt>
      <trkpt lat="45.96375" lon="6.50538">
        <ele>1581.57</ele>
        <time>2013-09-28T11:21:30Z</time>
      </trkpt>
      <trkpt lat="45.96363" lon="6.50508">
        <ele>1579.48</ele>
        <time>2013-09-28T11:21:36Z</time>
      </trkpt>
      <trkpt lat="45.96354" lon="6.50471">
        <ele>1575.94</ele>
        <time>2013-09-28T11:21:43Z</time>
      </trkpt>
      <trkpt lat="45.96346" lon="6.50417">
        <ele>1570.72</ele>
        <time>2013-09-28T11:21:48Z</time>
      </trkpt>
      <trkpt lat="45.96312" lon="6.50369">
        <ele>1566.94</ele>
        <time>2013-09-28T11:21:53Z</time>
      </trkpt>
      <trkpt lat="45.9627" lon="6.50353">
        <ele>1563.04</ele>
        <time>2013-09-28T11:21:58Z</time>
      </trkpt>
      <trkpt lat="45.96226" lon="6.50334">
        <ele>1557.44</ele>
        <time>2013-09-28T11:22:03Z</time>
      </trkpt>
      <trkpt lat="45.96179" lon="6.50296">
        <ele>1550.53</ele>
        <time>2013-09-28T11:22:08Z</time>
      </trkpt>
      <trkpt lat="45.96143" lon="6.50239">
        <ele>1547.71</ele>
        <time>2013-09-28T11:22:13Z</time>
      </trkpt>
      <trkpt lat="45.96091" lon="6.50212">
        <ele>1542.44</ele>
        <time>2013-09-28T11:22:18Z</time>
      </trkpt>
      <trkpt lat="45.96041" lon="6.50203">
        <ele>1539.28</ele>
        <time>2013-09-28T11:22:23Z</time>
      </trkpt>
      <trkpt lat="45.9599" lon="6.50174">
        <ele>1535.25</ele>
        <time>2013-09-28T11:22:28Z</time>
      </trkpt>
      <trkpt lat="45.95943" lon="6.50119">
        <ele>1525.67</ele>
        <time>2013-09-28T11:22:33Z</time>
      </trkpt>
      <trkpt lat="45.95917" lon="6.50048">
        <ele>1524.42</ele>
        <time>2013-09-28T11:22:38Z</time>
      </trkpt>
      <trkpt lat="45.95897" lon="6.49986">
        <ele>1524.08</ele>
        <time>2013-09-28T11:22:43Z</time>
      </trkpt>
      <trkpt lat="45.95862" lon="6.49948">
        <ele>1520.06</ele>
        <time>2013-09-28T11:22:48Z</time>
      </trkpt>
      <trkpt lat="45.95828" lon="6.49914">
        <ele>1517.61</ele>
        <time>2013-09-28T11:22:53Z</time>
      </trkpt>
      <trkpt lat="45.95788" lon="6.49915">
        <ele>1514.26</ele>
        <time>2013-09-28T11:22:58Z</time>
      </trkpt>
      <trkpt lat="45.9575" lon="6.49888">
        <ele>1512.04</ele>
        <time>2013-09-28T11:23:03Z</time>
      </trkpt>
      <trkpt lat="45.95717" lon="6.49868">
        <ele>1512.49</ele>
        <time>2013-09-28T11:23:08Z</time>
      </trkpt>
      <trkpt lat="45.95684" lon="6.49839">
        <ele>1508.33</ele>
        <time>2013-09-28T11:23:13Z</time>
      </trkpt>
      <trkpt lat="45.95648" lon="6.49786">
        <ele>1504.06</ele>
        <time>2013-09-28T11:23:18Z</time>
      </trkpt>
      <trkpt lat="45.95602" lon="6.49747">
        <ele>1501.15</ele>
        <time>2013-09-28T11:23:23Z</time>
      </trkpt>
      <trkpt lat="45.95582" lon="6.49691">
        <ele>1495.43</ele>
        <time>2013-09-28T11:23:28Z</time>
      </trkpt>
      <trkpt lat="45.95583" lon="6.49627">
        <ele>1493.55</ele>
        <time>2013-09-28T11:23:33Z</time>
      </trkpt>
      <trkpt lat="45.95543" lon="6.49576">
        <ele>1488.19</ele>
        <time>2013-09-28T11:23:38Z</time>
      </trkpt>
      <trkpt lat="45.9549" lon="6.49535">
        <ele>1480.33</ele>
        <time>2013-09-28T11:23:43Z</time>
      </trkpt>
      <trkpt lat="45.95444" lon="6.49501">
        <ele>1477.25</ele>
        <time>2013-09-28T11:23:48Z</time>
      </trkpt>
      <trkpt lat="45.95395" lon="6.49475">
        <ele>1473.85</ele>
        <time>2013-09-28T11:23:53Z</time>
      </trkpt>
      <trkpt lat="45.95346" lon="6.49464">
        <ele>1468.11</ele>
        <time>2013-09-28T11:23:58Z</time>
      </trkpt>
      <trkpt lat="45.95308" lon="6.49437">
        <ele>1463.95</ele>
        <time>2013-09-28T11:24:03Z</time>
      </trkpt>
      <trkpt lat="45.95269" lon="6.49438">
        <ele>1459.94</ele>
        <time>2013-09-28T11:24:08Z</time>
      </trkpt>
      <trkpt lat="45.95219" lon="6.4942">
        <ele>1452.46</ele>
        <time>2013-09-28T11:24:13Z</time>
      </trkpt>
      <trkpt lat="45.95173" lon="6.49394">
        <ele>1446.87</ele>
        <time>2013-09-28T11:24:18Z</time>
      </trkpt>
      <trkpt lat="45.95151" lon="6.4935">
        <ele>1443.63</ele>
        <time>2013-09-28T11:24:23Z</time>
      </trkpt>
      <trkpt lat="45.95121" lon="6.49291">
        <ele>1437.49</ele>
        <time>2013-09-28T11:24:28Z</time>
      </trkpt>
      <trkpt lat="45.95078" lon="6.49245">
        <ele>1430.01</ele>
        <time>2013-09-28T11:24:33Z</time>
      </trkpt>
      <trkpt lat="45.95035" lon="6.49222">
        <ele>1423.86</ele>
        <time>2013-09-28T11:24:38Z</time>
      </trkpt>
      <trkpt lat="45.94991" lon="6.49228">
        <ele>1420.91</ele>
        <time>2013-09-28T11:24:43Z</time>
      </trkpt>
      <trkpt lat="45.94968" lon="6.492">
        <ele>1416</ele>
        <time>2013-09-28T11:24:48Z</time>
      </trkpt>
      <trkpt lat="45.94968" lon="6.49151">
        <ele>1414.1</ele>
        <time>2013-09-28T11:24:53Z</time>
      </trkpt>
      <trkpt lat="45.94945" lon="6.49133">
        <ele>1411.95</ele>
        <time>2013-09-28T11:24:59Z</time>
      </trkpt>
      <trkpt lat="45.94914" lon="6.49154">
        <ele>1410.27</ele>
        <time>2013-09-28T11:25:04Z</time>
      </trkpt>
      <trkpt lat="45.9488" lon="6.49183">
        <ele>1406.56</ele>
        <time>2013-09-28T11:25:09Z</time>
      </trkpt>
      <trkpt lat="45.94844" lon="6.49188">
        <ele>1400.39</ele>
        <time>2013-09-28T11:25:14Z</time>
      </trkpt>
      <trkpt lat="45.94803" lon="6.49196">
        <ele>1399.52</ele>
        <time>2013-09-28T11:25:19Z</time>
      </trkpt>
      <trkpt lat="45.94765" lon="6.49213">
        <ele>1397.31</ele>
        <time>2013-09-28T11:25:24Z</time>
      </trkpt>
      <trkpt lat="45.94726" lon="6.49198">
        <ele>1391.45</ele>
        <time>2013-09-28T11:25:29Z</time>
      </trkpt>
      <trkpt lat="45.94688" lon="6.49177">
        <ele>1381.81</ele>
        <time>2013-09-28T11:25:34Z</time>
      </trkpt>
      <trkpt lat="45.94642" lon="6.49152">
        <ele>1375.41</ele>
        <time>2013-09-28T11:25:39Z</time>
      </trkpt>
      <trkpt lat="45.94601" lon="6.49124">
        <ele>1372</ele>
        <time>2013-09-28T11:25:44Z</time>
      </trkpt>
      <trkpt lat="45.94558" lon="6.491">
        <ele>1363.36</ele>
        <time>2013-09-28T11:25:49Z</time>
      </trkpt>
      <trkpt lat="45.94536" lon="6.49083">
        <ele>1356.48</ele>
        <time>2013-09-28T11:25:54Z</time>
      </trkpt>
      <trkpt lat="45.94532" lon="6.49117">
        <ele>1356.74</ele>
        <time>2013-09-28T11:25:59Z</time>
      </trkpt>
      <trkpt lat="45.94531" lon="6.49155">
        <ele>1355.09</ele>
        <time>2013-09-28T11:26:04Z</time>
      </trkpt>
      <trkpt lat="45.94516" lon="6.49192">
        <ele>1352.98</ele>
        <time>2013-09-28T11:26:09Z</time>
      </trkpt>
      <trkpt lat="45.94535" lon="6.49242">
        <ele>1348.78</ele>
        <time>2013-09-28T11:26:14Z</time>
      </trkpt>
      <trkpt lat="45.94571" lon="6.49282">
        <ele>1341.62</ele>
        <time>2013-09-28T11:26:19Z</time>
      </trkpt>
      <trkpt lat="45.94611" lon="6.4929">
        <ele>1336.25</ele>
        <time>2013-09-28T11:26:24Z</time>
      </trkpt>
      <trkpt lat="45.94635" lon="6.49306">
        <ele>1332.73</ele>
        <time>2013-09-28T11:26:29Z</time>
      </trkpt>
      <trkpt lat="45.9463" lon="6.49342">
        <ele>1328.97</ele>
        <time>2013-09-28T11:26:35Z</time>
      </trkpt>
      <trkpt lat="45.94596" lon="6.49365">
        <ele>1322.07</ele>
        <time>2013-09-28T11:26:40Z</time>
      </trkpt>
      <trkpt lat="45.9455" lon="6.49375">
        <ele>1315.64</ele>
        <time>2013-09-28T11:26:45Z</time>
      </trkpt>
      <trkpt lat="45.94515" lon="6.49372">
        <ele>1312.27</ele>
        <time>2013-09-28T11:26:50Z</time>
      </trkpt>
      <trkpt lat="45.94484" lon="6.49334">
        <ele>1301.54</ele>
        <time>2013-09-28T11:26:55Z</time>
      </trkpt>
      <trkpt lat="45.94463" lon="6.49321">
        <ele>1299.65</ele>
        <time>2013-09-28T11:27:01Z</time>
      </trkpt>
      <trkpt lat="45.94471" lon="6.49353">
        <ele>1296.24</ele>
        <time>2013-09-28T11:27:06Z</time>
      </trkpt>
      <trkpt lat="45.94489" lon="6.49392">
        <ele>1295.62</ele>
        <time>2013-09-28T11:27:11Z</time>
      </trkpt>
      <trkpt lat="45.94493" lon="6.49424">
        <ele>1292.87</ele>
        <time>2013-09-28T11:27:16Z</time>
      </trkpt>
      <trkpt lat="45.94471" lon="6.49434">
        <ele>1285.87</ele>
        <time>2013-09-28T11:27:21Z</time>
      </trkpt>
      <trkpt lat="45.94432" lon="6.49408">
        <ele>1278.13</ele>
        <time>2013-09-28T11:27:26Z</time>
      </trkpt>
      <trkpt lat="45.94405" lon="6.49366">
        <ele>1269.59</ele>
        <time>2013-09-28T11:27:31Z</time>
      </trkpt>
      <trkpt lat="45.94378" lon="6.49342">
        <ele>1266.55</ele>
        <time>2013-09-28T11:27:36Z</time>
      </trkpt>
      <trkpt lat="45.94342" lon="6.49324">
        <ele>1259.3</ele>
        <time>2013-09-28T11:27:41Z</time>
      </trkpt>
      <trkpt lat="45.94315" lon="6.49322">
        <ele>1254.75</ele>
        <time>2013-09-28T11:27:46Z</time>
      </trkpt>
      <trkpt lat="45.94294" lon="6.49296">
        <ele>1249.2</ele>
        <time>2013-09-28T11:27:51Z</time>
      </trkpt>
      <trkpt lat="45.94265" lon="6.49295">
        <ele>1245.73</ele>
        <time>2013-09-28T11:27:56Z</time>
      </trkpt>
      <trkpt lat="45.94234" lon="6.49292">
        <ele>1241</ele>
        <time>2013-09-28T11:28:01Z</time>
      </trkpt>
      <trkpt lat="45.94196" lon="6.49294">
        <ele>1237.76</ele>
        <time>2013-09-28T11:28:06Z</time>
      </trkpt>
      <trkpt lat="45.94167" lon="6.49284">
        <ele>1236.12</ele>
        <time>2013-09-28T11:28:11Z</time>
      </trkpt>
      <trkpt lat="45.9414" lon="6.49266">
        <ele>1236.95</ele>
        <time>2013-09-28T11:28:16Z</time>
      </trkpt>
      <trkpt lat="45.94122" lon="6.49228">
        <ele>1233.74</ele>
        <time>2013-09-28T11:28:21Z</time>
      </trkpt>
      <trkpt lat="45.941" lon="6.49233">
        <ele>1228.89</ele>
        <time>2013-09-28T11:28:28Z</time>
      </trkpt>
      <trkpt lat="45.94094" lon="6.4928">
        <ele>1230.23</ele>
        <time>2013-09-28T11:28:33Z</time>
      </trkpt>
      <trkpt lat="45.941" lon="6.49331">
        <ele>1229.97</ele>
        <time>2013-09-28T11:28:38Z</time>
      </trkpt>
      <trkpt lat="45.94128" lon="6.49376">
        <ele>1222.12</ele>
        <time>2013-09-28T11:28:43Z</time>
      </trkpt>
      <trkpt lat="45.9416" lon="6.49406">
        <ele>1216.01</ele>
        <time>2013-09-28T11:28:48Z</time>
      </trkpt>
      <trkpt lat="45.94182" lon="6.49438">
        <ele>1210.84</ele>
        <time>2013-09-28T11:28:53Z</time>
      </trkpt>
      <trkpt lat="45.94156" lon="6.49446">
        <ele>1200.47</ele>
        <time>2013-09-28T11:29:03Z</time>
      </trkpt>
      <trkpt lat="45.94118" lon="6.49431">
        <ele>1194.24</ele>
        <time>2013-09-28T11:29:08Z</time>
      </trkpt>
      <trkpt lat="45.94078" lon="6.49404">
        <ele>1187.16</ele>
        <time>2013-09-28T11:29:13Z</time>
      </trkpt>
      <trkpt lat="45.94038" lon="6.49369">
        <ele>1184.24</ele>
        <time>2013-09-28T11:29:18Z</time>
      </trkpt>
      <trkpt lat="45.9401" lon="6.4932">
        <ele>1177.98</ele>
        <time>2013-09-28T11:29:23Z</time>
      </trkpt>
      <trkpt lat="45.93984" lon="6.49276">
        <ele>1171.96</ele>
        <time>2013-09-28T11:29:28Z</time>
      </trkpt>
      <trkpt lat="45.9395" lon="6.49252">
        <ele>1168.23</ele>
        <time>2013-09-28T11:29:33Z</time>
      </trkpt>
      <trkpt lat="45.93916" lon="6.4923">
        <ele>1165.17</ele>
        <time>2013-09-28T11:29:38Z</time>
      </trkpt>
      <trkpt lat="45.9389" lon="6.49188">
        <ele>1160.57</ele>
        <time>2013-09-28T11:29:43Z</time>
      </trkpt>
      <trkpt lat="45.93884" lon="6.49136">
        <ele>1160.96</ele>
        <time>2013-09-28T11:29:48Z</time>
      </trkpt>
      <trkpt lat="45.93874" lon="6.4907">
        <ele>1156.05</ele>
        <time>2013-09-28T11:29:53Z</time>
      </trkpt>
      <trkpt lat="45.93861" lon="6.49">
        <ele>1148.2</ele>
        <time>2013-09-28T11:29:58Z</time>
      </trkpt>
      <trkpt lat="45.93826" lon="6.48942">
        <ele>1143.56</ele>
        <time>2013-09-28T11:30:03Z</time>
      </trkpt>
      <trkpt lat="45.93794" lon="6.48875">
        <ele>1135.78</ele>
        <time>2013-09-28T11:30:08Z</time>
      </trkpt>
      <trkpt lat="45.93759" lon="6.48806">
        <ele>1131.74</ele>
        <time>2013-09-28T11:30:13Z</time>
      </trkpt>
      <trkpt lat="45.93705" lon="6.48758">
        <ele>1130.52</ele>
        <time>2013-09-28T11:30:18Z</time>
      </trkpt>
      <trkpt lat="45.93647" lon="6.48707">
        <ele>1125.14</ele>
        <time>2013-09-28T11:30:23Z</time>
      </trkpt>
      <trkpt lat="45.93608" lon="6.4864">
        <ele>1116.65</ele>
        <time>2013-09-28T11:30:28Z</time>
      </trkpt>
      <trkpt lat="45.93573" lon="6.48573">
        <ele>1113.37</ele>
        <time>2013-09-28T11:30:33Z</time>
      </trkpt>
      <trkpt lat="45.93557" lon="6.48503">
        <ele>1112.06</ele>
        <time>2013-09-28T11:30:38Z</time>
      </trkpt>
      <trkpt lat="45.93549" lon="6.48441">
        <ele>1111.36</ele>
        <time>2013-09-28T11:30:43Z</time>
      </trkpt>
      <trkpt lat="45.93542" lon="6.4838">
        <ele>1111.59</ele>
        <time>2013-09-28T11:30:48Z</time>
      </trkpt>
      <trkpt lat="45.93532" lon="6.4832">
        <ele>1109.7</ele>
        <time>2013-09-28T11:30:53Z</time>
      </trkpt>
      <trkpt lat="45.9352" lon="6.48265">
        <ele>1106.09</ele>
        <time>2013-09-28T11:30:58Z</time>
      </trkpt>
      <trkpt lat="45.93507" lon="6.48221">
        <ele>1108.15</ele>
        <time>2013-09-28T11:31:03Z</time>
      </trkpt>
      <trkpt lat="45.93494" lon="6.48182">
        <ele>1108.04</ele>
        <time>2013-09-28T11:31:08Z</time>
      </trkpt>
      <trkpt lat="45.93482" lon="6.48151">
        <ele>1106.54</ele>
        <time>2013-09-28T11:31:13Z</time>
      </trkpt>
      <trkpt lat="45.93471" lon="6.4812">
        <ele>1105.8</ele>
        <time>2013-09-28T11:31:18Z</time>
      </trkpt>
      <trkpt lat="45.93462" lon="6.4809">
        <ele>1106.3</ele>
        <time>2013-09-28T11:31:23Z</time>
      </trkpt>
      <trkpt lat="45.93455" lon="6.48057">
        <ele>1108.73</ele>
        <time>2013-09-28T11:31:28Z</time>
      </trkpt>
      <trkpt lat="45.93451" lon="6.48016">
        <ele>1108.69</ele>
        <time>2013-09-28T11:31:33Z</time>
      </trkpt>
      <trkpt lat="45.93446" lon="6.47973">
        <ele>1109.28</ele>
        <time>2013-09-28T11:31:38Z</time>
      </trkpt>
      <trkpt lat="45.93441" lon="6.47928">
        <ele>1108.42</ele>
        <time>2013-09-28T11:31:43Z</time>
      </trkpt>
      <trkpt lat="45.93433" lon="6.47879">
        <ele>1108.02</ele>
        <time>2013-09-28T11:31:48Z</time>
      </trkpt>
      <trkpt lat="45.93426" lon="6.47829">
        <ele>1108.12</ele>
        <time>2013-09-28T11:31:53Z</time>
      </trkpt>
      <trkpt lat="45.93433" lon="6.47778">
        <ele>1106.13</ele>
        <time>2013-09-28T11:31:58Z</time>
      </trkpt>
      <trkpt lat="45.93449" lon="6.47721">
        <ele>1107.64</ele>
        <time>2013-09-28T11:32:03Z</time>
      </trkpt>
      <trkpt lat="45.93469" lon="6.47665">
        <ele>1109.78</ele>
        <time>2013-09-28T11:32:08Z</time>
      </trkpt>
      <trkpt lat="45.9347" lon="6.47603">
        <ele>1111.95</ele>
        <time>2013-09-28T11:32:13Z</time>
      </trkpt>
      <trkpt lat="45.93461" lon="6.47542">
        <ele>1112.7</ele>
        <time>2013-09-28T11:32:18Z</time>
      </trkpt>
      <trkpt lat="45.93452" lon="6.47482">
        <ele>1110.91</ele>
        <time>2013-09-28T11:32:23Z</time>
      </trkpt>
      <trkpt lat="45.93445" lon="6.47424">
        <ele>1108.21</ele>
        <time>2013-09-28T11:32:28Z</time>
      </trkpt>
      <trkpt lat="45.93447" lon="6.4737">
        <ele>1107.78</ele>
        <time>2013-09-28T11:32:33Z</time>
      </trkpt>
      <trkpt lat="45.93461" lon="6.47312">
        <ele>1107.75</ele>
        <time>2013-09-28T11:32:38Z</time>
      </trkpt>
      <trkpt lat="45.93477" lon="6.47244">
        <ele>1105.81</ele>
        <time>2013-09-28T11:32:43Z</time>
      </trkpt>
      <trkpt lat="45.93484" lon="6.47169">
        <ele>1103.37</ele>
        <time>2013-09-28T11:32:48Z</time>
      </trkpt>
      <trkpt lat="45.93485" lon="6.47092">
        <ele>1101.03</ele>
        <time>2013-09-28T11:32:53Z</time>
      </trkpt>
      <trkpt lat="45.93486" lon="6.4702">
        <ele>1097.11</ele>
        <time>2013-09-28T11:32:58Z</time>
      </trkpt>
      <trkpt lat="45.93493" lon="6.4695">
        <ele>1094.75</ele>
        <time>2013-09-28T11:33:03Z</time>
      </trkpt>
      <trkpt lat="45.93507" lon="6.46884">
        <ele>1094.47</ele>
        <time>2013-09-28T11:33:08Z</time>
      </trkpt>
      <trkpt lat="45.93526" lon="6.46818">
        <ele>1093.77</ele>
        <time>2013-09-28T11:33:13Z</time>
      </trkpt>
      <trkpt lat="45.9355" lon="6.46752">
        <ele>1091.11</ele>
        <time>2013-09-28T11:33:18Z</time>
      </trkpt>
      <trkpt lat="45.9356" lon="6.46683">
        <ele>1089.91</ele>
        <time>2013-09-28T11:33:23Z</time>
      </trkpt>
      <trkpt lat="45.93567" lon="6.46605">
        <ele>1086.56</ele>
        <time>2013-09-28T11:33:28Z</time>
      </trkpt>
      <trkpt lat="45.93576" lon="6.46529">
        <ele>1082.46</ele>
        <time>2013-09-28T11:33:33Z</time>
      </trkpt>
      <trkpt lat="45.93585" lon="6.46454">
        <ele>1078.06</ele>
        <time>2013-09-28T11:33:38Z</time>
      </trkpt>
      <trkpt lat="45.93596" lon="6.46384">
        <ele>1077.43</ele>
        <time>2013-09-28T11:33:43Z</time>
      </trkpt>
      <trkpt lat="45.93606" lon="6.46318">
        <ele>1076.53</ele>
        <time>2013-09-28T11:33:48Z</time>
      </trkpt>
      <trkpt lat="45.93607" lon="6.46257">
        <ele>1076.65</ele>
        <time>2013-09-28T11:33:53Z</time>
      </trkpt>
      <trkpt lat="45.93606" lon="6.46202">
        <ele>1075.3</ele>
        <time>2013-09-28T11:33:58Z</time>
      </trkpt>
      <trkpt lat="45.9361" lon="6.46144">
        <ele>1074.09</ele>
        <time>2013-09-28T11:34:03Z</time>
      </trkpt>
      <trkpt lat="45.93619" lon="6.46087">
        <ele>1074.11</ele>
        <time>2013-09-28T11:34:08Z</time>
      </trkpt>
      <trkpt lat="45.93636" lon="6.46029">
        <ele>1073.84</ele>
        <time>2013-09-28T11:34:13Z</time>
      </trkpt>
      <trkpt lat="45.93652" lon="6.45964">
        <ele>1072.56</ele>
        <time>2013-09-28T11:34:18Z</time>
      </trkpt>
      <trkpt lat="45.93668" lon="6.45904">
        <ele>1071.19</ele>
        <time>2013-09-28T11:34:23Z</time>
      </trkpt>
      <trkpt lat="45.93684" lon="6.45841">
        <ele>1069.19</ele>
        <time>2013-09-28T11:34:28Z</time>
      </trkpt>
      <trkpt lat="45.93706" lon="6.45778">
        <ele>1067.73</ele>
        <time>2013-09-28T11:34:33Z</time>
      </trkpt>
      <trkpt lat="45.93728" lon="6.45704">
        <ele>1064.6</ele>
        <time>2013-09-28T11:34:38Z</time>
      </trkpt>
      <trkpt lat="45.93746" lon="6.45624">
        <ele>1062.88</ele>
        <time>2013-09-28T11:34:43Z</time>
      </trkpt>
      <trkpt lat="45.93742" lon="6.45535">
        <ele>1059.25</ele>
        <time>2013-09-28T11:34:48Z</time>
      </trkpt>
      <trkpt lat="45.93726" lon="6.45447">
        <ele>1056.75</ele>
        <time>2013-09-28T11:34:53Z</time>
      </trkpt>
      <trkpt lat="45.93729" lon="6.45355">
        <ele>1055.99</ele>
        <time>2013-09-28T11:34:58Z</time>
      </trkpt>
      <trkpt lat="45.93737" lon="6.4526">
        <ele>1053.9</ele>
        <time>2013-09-28T11:35:03Z</time>
      </trkpt>
      <trkpt lat="45.93744" lon="6.45166">
        <ele>1048.76</ele>
        <time>2013-09-28T11:35:08Z</time>
      </trkpt>
      <trkpt lat="45.93754" lon="6.45075">
        <ele>1046.96</ele>
        <time>2013-09-28T11:35:13Z</time>
      </trkpt>
      <trkpt lat="45.9377" lon="6.44988">
        <ele>1045.63</ele>
        <time>2013-09-28T11:35:18Z</time>
      </trkpt>
      <trkpt lat="45.93796" lon="6.44907">
        <ele>1041.09</ele>
        <time>2013-09-28T11:35:23Z</time>
      </trkpt>
      <trkpt lat="45.93824" lon="6.44829">
        <ele>1037.16</ele>
        <time>2013-09-28T11:35:28Z</time>
      </trkpt>
      <trkpt lat="45.9385" lon="6.44754">
        <ele>1034.18</ele>
        <time>2013-09-28T11:35:33Z</time>
      </trkpt>
      <trkpt lat="45.9388" lon="6.44683">
        <ele>1031.22</ele>
        <time>2013-09-28T11:35:38Z</time>
      </trkpt>
      <trkpt lat="45.93911" lon="6.44616">
        <ele>1028.96</ele>
        <time>2013-09-28T11:35:43Z</time>
      </trkpt>
      <trkpt lat="45.93939" lon="6.44548">
        <ele>1026.62</ele>
        <time>2013-09-28T11:35:48Z</time>
      </trkpt>
      <trkpt lat="45.93961" lon="6.44479">
        <ele>1026.22</ele>
        <time>2013-09-28T11:35:53Z</time>
      </trkpt>
      <trkpt lat="45.93988" lon="6.44414">
        <ele>1023.18</ele>
        <time>2013-09-28T11:35:58Z</time>
      </trkpt>
      <trkpt lat="45.94007" lon="6.44341">
        <ele>1021.08</ele>
        <time>2013-09-28T11:36:03Z</time>
      </trkpt>
      <trkpt lat="45.94043" lon="6.44283">
        <ele>1016.62</ele>
        <time>2013-09-28T11:36:08Z</time>
      </trkpt>
      <trkpt lat="45.9407" lon="6.44221">
        <ele>1014.65</ele>
        <time>2013-09-28T11:36:13Z</time>
      </trkpt>
      <trkpt lat="45.94092" lon="6.44165">
        <ele>1011.09</ele>
        <time>2013-09-28T11:36:18Z</time>
      </trkpt>
      <trkpt lat="45.94117" lon="6.44116">
        <ele>1009.16</ele>
        <time>2013-09-28T11:36:23Z</time>
      </trkpt>
      <trkpt lat="45.94138" lon="6.44054">
        <ele>1011.66</ele>
        <time>2013-09-28T11:36:28Z</time>
      </trkpt>
      <trkpt lat="45.94157" lon="6.43984">
        <ele>1003.98</ele>
        <time>2013-09-28T11:36:33Z</time>
      </trkpt>
      <trkpt lat="45.94177" lon="6.43914">
        <ele>997.62</ele>
        <time>2013-09-28T11:36:38Z</time>
      </trkpt>
      <trkpt lat="45.94196" lon="6.43838">
        <ele>992.64</ele>
        <time>2013-09-28T11:36:43Z</time>
      </trkpt>
      <trkpt lat="45.94218" lon="6.4377">
        <ele>991.41</ele>
        <time>2013-09-28T11:36:48Z</time>
      </trkpt>
      <trkpt lat="45.94237" lon="6.43715">
        <ele>991.19</ele>
        <time>2013-09-28T11:36:53Z</time>
      </trkpt>
      <trkpt lat="45.94257" lon="6.43677">
        <ele>987.46</ele>
        <time>2013-09-28T11:36:58Z</time>
      </trkpt>
      <trkpt lat="45.94259" lon="6.43644">
        <ele>984.17</ele>
        <time>2013-09-28T11:37:03Z</time>
      </trkpt>
      <trkpt lat="45.94236" lon="6.43632">
        <ele>984.68</ele>
        <time>2013-09-28T11:37:11Z</time>
      </trkpt>
      <trkpt lat="45.94214" lon="6.4362">
        <ele>984.94</ele>
        <time>2013-09-28T11:37:16Z</time>
      </trkpt>
      <trkpt lat="45.9419" lon="6.43607">
        <ele>989.1</ele>
        <time>2013-09-28T11:37:24Z</time>
      </trkpt>
      <trkpt lat="45.94169" lon="6.43593">
        <ele>989.47</ele>
        <time>2013-09-28T11:37:31Z</time>
      </trkpt>
      <trkpt lat="45.94154" lon="6.43562">
        <ele>988.56</ele>
        <time>2013-09-28T11:37:37Z</time>
      </trkpt>
      <trkpt lat="45.94146" lon="6.4352">
        <ele>988.38</ele>
        <time>2013-09-28T11:37:42Z</time>
      </trkpt>
      <trkpt lat="45.94143" lon="6.43473">
        <ele>987.16</ele>
        <time>2013-09-28T11:37:47Z</time>
      </trkpt>
      <trkpt lat="45.9415" lon="6.43427">
        <ele>987.85</ele>
        <time>2013-09-28T11:37:52Z</time>
      </trkpt>
      <trkpt lat="45.94146" lon="6.43377">
        <ele>987.09</ele>
        <time>2013-09-28T11:37:57Z</time>
      </trkpt>
      <trkpt lat="45.94135" lon="6.43324">
        <ele>984.99</ele>
        <time>2013-09-28T11:38:02Z</time>
      </trkpt>
      <trkpt lat="45.94124" lon="6.43264">
        <ele>981.98</ele>
        <time>2013-09-28T11:38:07Z</time>
      </trkpt>
      <trkpt lat="45.94109" lon="6.432">
        <ele>981.36</ele>
        <time>2013-09-28T11:38:12Z</time>
      </trkpt>
      <trkpt lat="45.94098" lon="6.43146">
        <ele>981.78</ele>
        <time>2013-09-28T11:38:17Z</time>
      </trkpt>
      <trkpt lat="45.94087" lon="6.43098">
        <ele>980.12</ele>
        <time>2013-09-28T11:38:22Z</time>
      </trkpt>
      <trkpt lat="45.94077" lon="6.43049">
        <ele>980.19</ele>
        <time>2013-09-28T11:38:27Z</time>
      </trkpt>
      <trkpt lat="45.94064" lon="6.42987">
        <ele>975.18</ele>
        <time>2013-09-28T11:38:32Z</time>
      </trkpt>
      <trkpt lat="45.9405" lon="6.42923">
        <ele>970.54</ele>
        <time>2013-09-28T11:38:37Z</time>
      </trkpt>
      <trkpt lat="45.94038" lon="6.4286">
        <ele>964.14</ele>
        <time>2013-09-28T11:38:42Z</time>
      </trkpt>
      <trkpt lat="45.9404" lon="6.42825">
        <ele>962.71</ele>
        <time>2013-09-28T11:38:47Z</time>
      </trkpt>
      <trkpt lat="45.94068" lon="6.42804">
        <ele>963.3</ele>
        <time>2013-09-28T11:38:52Z</time>
      </trkpt>
      <trkpt lat="45.9406" lon="6.42758">
        <ele>960.54</ele>
        <time>2013-09-28T11:38:57Z</time>
      </trkpt>
      <trkpt lat="45.9405" lon="6.42706">
        <ele>958.13</ele>
        <time>2013-09-28T11:39:02Z</time>
      </trkpt>
      <trkpt lat="45.94026" lon="6.42656">
        <ele>955.22</ele>
        <time>2013-09-28T11:39:07Z</time>
      </trkpt>
      <trkpt lat="45.94002" lon="6.42611">
        <ele>954.7</ele>
        <time>2013-09-28T11:39:12Z</time>
      </trkpt>
      <trkpt lat="45.9398" lon="6.42566">
        <ele>953.2</ele>
        <time>2013-09-28T11:39:17Z</time>
      </trkpt>
      <trkpt lat="45.93957" lon="6.42521">
        <ele>953.47</ele>
        <time>2013-09-28T11:39:22Z</time>
      </trkpt>
      <trkpt lat="45.93935" lon="6.4248">
        <ele>954.85</ele>
        <time>2013-09-28T11:39:27Z</time>
      </trkpt>
      <trkpt lat="45.93908" lon="6.42448">
        <ele>954.35</ele>
        <time>2013-09-28T11:39:32Z</time>
      </trkpt>
      <trkpt lat="45.93875" lon="6.42427">
        <ele>955.44</ele>
        <time>2013-09-28T11:39:37Z</time>
      </trkpt>
      <trkpt lat="45.93843" lon="6.42409">
        <ele>955.04</ele>
        <time>2013-09-28T11:39:42Z</time>
      </trkpt>
      <trkpt lat="45.93817" lon="6.42381">
        <ele>953.7</ele>
        <time>2013-09-28T11:39:47Z</time>
      </trkpt>
      <trkpt lat="45.938" lon="6.42343">
        <ele>953.51</ele>
        <time>2013-09-28T11:39:52Z</time>
      </trkpt>
      <trkpt lat="45.93785" lon="6.42303">
        <ele>952.89</ele>
        <time>2013-09-28T11:39:57Z</time>
      </trkpt>
      <trkpt lat="45.93772" lon="6.4226">
        <ele>953.38</ele>
        <time>2013-09-28T11:40:02Z</time>
      </trkpt>
      <trkpt lat="45.93755" lon="6.42217">
        <ele>952.93</ele>
        <time>2013-09-28T11:40:07Z</time>
      </trkpt>
      <trkpt lat="45.93731" lon="6.42179">
        <ele>950.47</ele>
        <time>2013-09-28T11:40:12Z</time>
      </trkpt>
      <trkpt lat="45.93703" lon="6.42138">
        <ele>949.21</ele>
        <time>2013-09-28T11:40:17Z</time>
      </trkpt>
      <trkpt lat="45.93677" lon="6.42101">
        <ele>949.78</ele>
        <time>2013-09-28T11:40:22Z</time>
      </trkpt>
      <trkpt lat="45.93653" lon="6.42073">
        <ele>952.27</ele>
        <time>2013-09-28T11:40:27Z</time>
      </trkpt>
      <trkpt lat="45.93636" lon="6.42045">
        <ele>956.09</ele>
        <time>2013-09-28T11:40:32Z</time>
      </trkpt>
      <trkpt lat="45.93607" lon="6.42014">
        <ele>953.57</ele>
        <time>2013-09-28T11:40:37Z</time>
      </trkpt>
      <trkpt lat="45.93586" lon="6.41977">
        <ele>955.05</ele>
        <time>2013-09-28T11:40:42Z</time>
      </trkpt>
      <trkpt lat="45.9357" lon="6.41938">
        <ele>957.15</ele>
        <time>2013-09-28T11:40:47Z</time>
      </trkpt>
      <trkpt lat="45.93549" lon="6.41896">
        <ele>960.14</ele>
        <time>2013-09-28T11:40:52Z</time>
      </trkpt>
      <trkpt lat="45.93533" lon="6.4185">
        <ele>957.06</ele>
        <time>2013-09-28T11:40:57Z</time>
      </trkpt>
      <trkpt lat="45.93515" lon="6.41812">
        <ele>955.91</ele>
        <time>2013-09-28T11:41:02Z</time>
      </trkpt>
      <trkpt lat="45.93498" lon="6.4178">
        <ele>955.14</ele>
        <time>2013-09-28T11:41:07Z</time>
      </trkpt>
      <trkpt lat="45.93473" lon="6.41747">
        <ele>954.39</ele>
        <time>2013-09-28T11:41:12Z</time>
      </trkpt>
      <trkpt lat="45.9346" lon="6.41709">
        <ele>953.41</ele>
        <time>2013-09-28T11:41:17Z</time>
      </trkpt>
      <trkpt lat="45.93442" lon="6.41666">
        <ele>951.79</ele>
        <time>2013-09-28T11:41:22Z</time>
      </trkpt>
      <trkpt lat="45.93425" lon="6.41622">
        <ele>950.37</ele>
        <time>2013-09-28T11:41:27Z</time>
      </trkpt>
      <trkpt lat="45.93404" lon="6.41582">
        <ele>946.75</ele>
        <time>2013-09-28T11:41:32Z</time>
      </trkpt>
      <trkpt lat="45.93386" lon="6.4155">
        <ele>945.53</ele>
        <time>2013-09-28T11:41:37Z</time>
      </trkpt>
      <trkpt lat="45.93368" lon="6.4152">
        <ele>946.49</ele>
        <time>2013-09-28T11:41:43Z</time>
      </trkpt>
      <trkpt lat="45.93342" lon="6.415">
        <ele>946.19</ele>
        <time>2013-09-28T11:41:48Z</time>
      </trkpt>
      <trkpt lat="45.9332" lon="6.41482">
        <ele>947.11</ele>
        <time>2013-09-28T11:41:53Z</time>
      </trkpt>
      <trkpt lat="45.93301" lon="6.41461">
        <ele>949.38</ele>
        <time>2013-09-28T11:41:58Z</time>
      </trkpt>
      <trkpt lat="45.93281" lon="6.41436">
        <ele>949.02</ele>
        <time>2013-09-28T11:42:05Z</time>
      </trkpt>
      <trkpt lat="45.93265" lon="6.41413">
        <ele>949.94</ele>
        <time>2013-09-28T11:42:11Z</time>
      </trkpt>
      <trkpt lat="45.93246" lon="6.41388">
        <ele>950.61</ele>
        <time>2013-09-28T11:42:18Z</time>
      </trkpt>
      <trkpt lat="45.93228" lon="6.41369">
        <ele>952.08</ele>
        <time>2013-09-28T11:42:23Z</time>
      </trkpt>
      <trkpt lat="45.93207" lon="6.41347">
        <ele>955.97</ele>
        <time>2013-09-28T11:42:29Z</time>
      </trkpt>
      <trkpt lat="45.93187" lon="6.41329">
        <ele>956.64</ele>
        <time>2013-09-28T11:42:35Z</time>
      </trkpt>
      <trkpt lat="45.93166" lon="6.41313">
        <ele>957.09</ele>
        <time>2013-09-28T11:42:41Z</time>
      </trkpt>
      <trkpt lat="45.93145" lon="6.41298">
        <ele>959.42</ele>
        <time>2013-09-28T11:42:47Z</time>
      </trkpt>
      <trkpt lat="45.93129" lon="6.41272">
        <ele>966.33</ele>
        <time>2013-09-28T11:42:57Z</time>
      </trkpt>
      <trkpt lat="45.93108" lon="6.41253">
        <ele>971.08</ele>
        <time>2013-09-28T11:43:05Z</time>
      </trkpt>
      <trkpt lat="45.93087" lon="6.41241">
        <ele>973.42</ele>
        <time>2013-09-28T11:43:11Z</time>
      </trkpt>
      <trkpt lat="45.93066" lon="6.41226">
        <ele>975.84</ele>
        <time>2013-09-28T11:43:17Z</time>
      </trkpt>
      <trkpt lat="45.93044" lon="6.41209">
        <ele>978.84</ele>
        <time>2013-09-28T11:43:25Z</time>
      </trkpt>
      <trkpt lat="45.93015" lon="6.4122">
        <ele>993.89</ele>
        <time>2013-09-28T11:44:02Z</time>
      </trkpt>
      <trkpt lat="45.9299" lon="6.41221">
        <ele>999.49</ele>
        <time>2013-09-28T11:44:09Z</time>
      </trkpt>
      <trkpt lat="45.92967" lon="6.41212">
        <ele>1010.07</ele>
        <time>2013-09-28T11:44:21Z</time>
      </trkpt>
      <trkpt lat="45.92935" lon="6.41211">
        <ele>1010.91</ele>
        <time>2013-09-28T11:44:26Z</time>
      </trkpt>
      <trkpt lat="45.92844" lon="6.41215">
        <ele>1005.5</ele>
        <time>2013-09-28T11:44:31Z</time>
      </trkpt>
      <trkpt lat="45.92819" lon="6.41214">
        <ele>1007.98</ele>
        <time>2013-09-28T11:44:36Z</time>
      </trkpt>
      <trkpt lat="45.92797" lon="6.412">
        <ele>1019.5</ele>
        <time>2013-09-28T11:44:44Z</time>
      </trkpt>
      <trkpt lat="45.92742" lon="6.41193">
        <ele>1018.16</ele>
        <time>2013-09-28T11:44:49Z</time>
      </trkpt>
      <trkpt lat="45.92716" lon="6.41184">
        <ele>1015.78</ele>
        <time>2013-09-28T11:44:54Z</time>
      </trkpt>
      <trkpt lat="45.9269" lon="6.41176">
        <ele>1012.06</ele>
        <time>2013-09-28T11:45:00Z</time>
      </trkpt>
      <trkpt lat="45.92667" lon="6.41169">
        <ele>1007.8</ele>
        <time>2013-09-28T11:45:06Z</time>
      </trkpt>
      <trkpt lat="45.92645" lon="6.4116">
        <ele>1002.98</ele>
        <time>2013-09-28T11:45:12Z</time>
      </trkpt>
      <trkpt lat="45.92624" lon="6.41146">
        <ele>1001.25</ele>
        <time>2013-09-28T11:45:18Z</time>
      </trkpt>
      <trkpt lat="45.92608" lon="6.41124">
        <ele>1003.12</ele>
        <time>2013-09-28T11:45:25Z</time>
      </trkpt>
      <trkpt lat="45.92594" lon="6.41094">
        <ele>1003.81</ele>
        <time>2013-09-28T11:45:32Z</time>
      </trkpt>
      <trkpt lat="45.9258" lon="6.41064">
        <ele>1002.85</ele>
        <time>2013-09-28T11:45:39Z</time>
      </trkpt>
      <trkpt lat="45.92566" lon="6.41035">
        <ele>1002.06</ele>
        <time>2013-09-28T11:45:46Z</time>
      </trkpt>
      <trkpt lat="45.92552" lon="6.41008">
        <ele>1002.03</ele>
        <time>2013-09-28T11:45:53Z</time>
      </trkpt>
      <trkpt lat="45.92536" lon="6.40981">
        <ele>1003.47</ele>
        <time>2013-09-28T11:46:00Z</time>
      </trkpt>
      <trkpt lat="45.92519" lon="6.40956">
        <ele>1005.16</ele>
        <time>2013-09-28T11:46:07Z</time>
      </trkpt>
      <trkpt lat="45.92499" lon="6.4094">
        <ele>1006.85</ele>
        <time>2013-09-28T11:46:14Z</time>
      </trkpt>
      <trkpt lat="45.92476" lon="6.40933">
        <ele>1007.73</ele>
        <time>2013-09-28T11:46:22Z</time>
      </trkpt>
      <trkpt lat="45.92452" lon="6.40937">
        <ele>1009.91</ele>
        <time>2013-09-28T11:46:30Z</time>
      </trkpt>
      <trkpt lat="45.92435" lon="6.40961">
        <ele>1015.21</ele>
        <time>2013-09-28T11:46:41Z</time>
      </trkpt>
      <trkpt lat="45.92413" lon="6.40979">
        <ele>1017.06</ele>
        <time>2013-09-28T11:46:47Z</time>
      </trkpt>
      <trkpt lat="45.92391" lon="6.40992">
        <ele>1017.31</ele>
        <time>2013-09-28T11:46:53Z</time>
      </trkpt>
      <trkpt lat="45.92367" lon="6.41004">
        <ele>1017.59</ele>
        <time>2013-09-28T11:46:59Z</time>
      </trkpt>
      <trkpt lat="45.92345" lon="6.41012">
        <ele>1019.02</ele>
        <time>2013-09-28T11:47:04Z</time>
      </trkpt>
      <trkpt lat="45.92322" lon="6.4102">
        <ele>1020.73</ele>
        <time>2013-09-28T11:47:09Z</time>
      </trkpt>
      <trkpt lat="45.92298" lon="6.41028">
        <ele>1024.61</ele>
        <time>2013-09-28T11:47:15Z</time>
      </trkpt>
      <trkpt lat="45.92275" lon="6.41027">
        <ele>1019.6</ele>
        <time>2013-09-28T11:47:23Z</time>
      </trkpt>
      <trkpt lat="45.92258" lon="6.41005">
        <ele>1016.1</ele>
        <time>2013-09-28T11:47:29Z</time>
      </trkpt>
      <trkpt lat="45.92247" lon="6.40971">
        <ele>1013.53</ele>
        <time>2013-09-28T11:47:35Z</time>
      </trkpt>
      <trkpt lat="45.92236" lon="6.4094">
        <ele>1014.5</ele>
        <time>2013-09-28T11:49:07Z</time>
      </trkpt>
      <trkpt lat="45.92228" lon="6.40908">
        <ele>1013.65</ele>
        <time>2013-09-28T11:49:13Z</time>
      </trkpt>
      <trkpt lat="45.92219" lon="6.4087">
        <ele>1014.21</ele>
        <time>2013-09-28T11:49:18Z</time>
      </trkpt>
      <trkpt lat="45.92212" lon="6.40831">
        <ele>1014.03</ele>
        <time>2013-09-28T11:49:23Z</time>
      </trkpt>
      <trkpt lat="45.92204" lon="6.4079">
        <ele>1013.83</ele>
        <time>2013-09-28T11:49:28Z</time>
      </trkpt>
      <trkpt lat="45.92195" lon="6.40747">
        <ele>1013.65</ele>
        <time>2013-09-28T11:49:33Z</time>
      </trkpt>
      <trkpt lat="45.92189" lon="6.40701">
        <ele>1013.93</ele>
        <time>2013-09-28T11:49:38Z</time>
      </trkpt>
      <trkpt lat="45.92183" lon="6.40643">
        <ele>1010.7</ele>
        <time>2013-09-28T11:49:43Z</time>
      </trkpt>
      <trkpt lat="45.92178" lon="6.4058">
        <ele>1008.5</ele>
        <time>2013-09-28T11:49:48Z</time>
      </trkpt>
      <trkpt lat="45.9217" lon="6.40514">
        <ele>1006.01</ele>
        <time>2013-09-28T11:49:53Z</time>
      </trkpt>
      <trkpt lat="45.92156" lon="6.40445">
        <ele>1003.56</ele>
        <time>2013-09-28T11:49:58Z</time>
      </trkpt>
      <trkpt lat="45.92142" lon="6.40374">
        <ele>1001.4</ele>
        <time>2013-09-28T11:50:03Z</time>
      </trkpt>
      <trkpt lat="45.92136" lon="6.40301">
        <ele>999.26</ele>
        <time>2013-09-28T11:50:08Z</time>
      </trkpt>
      <trkpt lat="45.92133" lon="6.4023">
        <ele>996.29</ele>
        <time>2013-09-28T11:50:13Z</time>
      </trkpt>
      <trkpt lat="45.92129" lon="6.40161">
        <ele>993.98</ele>
        <time>2013-09-28T11:50:18Z</time>
      </trkpt>
      <trkpt lat="45.92139" lon="6.40096">
        <ele>993.13</ele>
        <time>2013-09-28T11:50:23Z</time>
      </trkpt>
      <trkpt lat="45.92152" lon="6.40031">
        <ele>992.54</ele>
        <time>2013-09-28T11:50:28Z</time>
      </trkpt>
      <trkpt lat="45.92148" lon="6.39962">
        <ele>990.87</ele>
        <time>2013-09-28T11:50:33Z</time>
      </trkpt>
      <trkpt lat="45.92133" lon="6.39893">
        <ele>989.3</ele>
        <time>2013-09-28T11:50:38Z</time>
      </trkpt>
      <trkpt lat="45.92118" lon="6.39823">
        <ele>987.68</ele>
        <time>2013-09-28T11:50:43Z</time>
      </trkpt>
      <trkpt lat="45.92109" lon="6.3975">
        <ele>986.93</ele>
        <time>2013-09-28T11:50:48Z</time>
      </trkpt>
      <trkpt lat="45.92115" lon="6.39676">
        <ele>986.32</ele>
        <time>2013-09-28T11:50:53Z</time>
      </trkpt>
      <trkpt lat="45.92125" lon="6.39607">
        <ele>986.44</ele>
        <time>2013-09-28T11:50:58Z</time>
      </trkpt>
      <trkpt lat="45.92138" lon="6.39535">
        <ele>982.91</ele>
        <time>2013-09-28T11:51:03Z</time>
      </trkpt>
      <trkpt lat="45.92127" lon="6.39461">
        <ele>980.09</ele>
        <time>2013-09-28T11:51:08Z</time>
      </trkpt>
      <trkpt lat="45.92118" lon="6.39382">
        <ele>976.72</ele>
        <time>2013-09-28T11:51:13Z</time>
      </trkpt>
      <trkpt lat="45.92104" lon="6.39302">
        <ele>972.11</ele>
        <time>2013-09-28T11:51:18Z</time>
      </trkpt>
      <trkpt lat="45.92082" lon="6.39226">
        <ele>969.83</ele>
        <time>2013-09-28T11:51:23Z</time>
      </trkpt>
      <trkpt lat="45.92068" lon="6.3915">
        <ele>967.05</ele>
        <time>2013-09-28T11:51:28Z</time>
      </trkpt>
      <trkpt lat="45.92055" lon="6.39071">
        <ele>963.13</ele>
        <time>2013-09-28T11:51:33Z</time>
      </trkpt>
      <trkpt lat="45.9204" lon="6.38987">
        <ele>959.64</ele>
        <time>2013-09-28T11:51:38Z</time>
      </trkpt>
      <trkpt lat="45.92033" lon="6.38899">
        <ele>956.59</ele>
        <time>2013-09-28T11:51:43Z</time>
      </trkpt>
      <trkpt lat="45.9202" lon="6.38816">
        <ele>953.3</ele>
        <time>2013-09-28T11:51:48Z</time>
      </trkpt>
      <trkpt lat="45.91992" lon="6.38738">
        <ele>950.61</ele>
        <time>2013-09-28T11:51:53Z</time>
      </trkpt>
      <trkpt lat="45.91989" lon="6.38647">
        <ele>945.69</ele>
        <time>2013-09-28T11:51:58Z</time>
      </trkpt>
      <trkpt lat="45.91969" lon="6.38558">
        <ele>940.82</ele>
        <time>2013-09-28T11:52:03Z</time>
      </trkpt>
      <trkpt lat="45.91929" lon="6.38481">
        <ele>936.6</ele>
        <time>2013-09-28T11:52:08Z</time>
      </trkpt>
      <trkpt lat="45.91888" lon="6.38408">
        <ele>933.68</ele>
        <time>2013-09-28T11:52:13Z</time>
      </trkpt>
      <trkpt lat="45.91868" lon="6.38318">
        <ele>931.14</ele>
        <time>2013-09-28T11:52:18Z</time>
      </trkpt>
      <trkpt lat="45.91849" lon="6.38229">
        <ele>928.16</ele>
        <time>2013-09-28T11:52:23Z</time>
      </trkpt>
      <trkpt lat="45.91807" lon="6.38155">
        <ele>924.56</ele>
        <time>2013-09-28T11:52:28Z</time>
      </trkpt>
      <trkpt lat="45.91778" lon="6.38072">
        <ele>922.81</ele>
        <time>2013-09-28T11:52:33Z</time>
      </trkpt>
      <trkpt lat="45.91742" lon="6.37992">
        <ele>918.65</ele>
        <time>2013-09-28T11:52:38Z</time>
      </trkpt>
      <trkpt lat="45.91702" lon="6.37917">
        <ele>914.78</ele>
        <time>2013-09-28T11:52:43Z</time>
      </trkpt>
      <trkpt lat="45.91657" lon="6.37847">
        <ele>909.33</ele>
        <time>2013-09-28T11:52:48Z</time>
      </trkpt>
      <trkpt lat="45.91607" lon="6.37788">
        <ele>905.81</ele>
        <time>2013-09-28T11:52:53Z</time>
      </trkpt>
      <trkpt lat="45.91557" lon="6.37726">
        <ele>900.83</ele>
        <time>2013-09-28T11:52:58Z</time>
      </trkpt>
      <trkpt lat="45.91515" lon="6.37657">
        <ele>895.96</ele>
        <time>2013-09-28T11:53:03Z</time>
      </trkpt>
      <trkpt lat="45.91471" lon="6.37595">
        <ele>890.85</ele>
        <time>2013-09-28T11:53:08Z</time>
      </trkpt>
      <trkpt lat="45.91428" lon="6.37531">
        <ele>884.8</ele>
        <time>2013-09-28T11:53:13Z</time>
      </trkpt>
      <trkpt lat="45.91393" lon="6.37462">
        <ele>880.64</ele>
        <time>2013-09-28T11:53:18Z</time>
      </trkpt>
      <trkpt lat="45.91353" lon="6.37396">
        <ele>879.15</ele>
        <time>2013-09-28T11:53:23Z</time>
      </trkpt>
      <trkpt lat="45.91294" lon="6.37358">
        <ele>877.44</ele>
        <time>2013-09-28T11:53:28Z</time>
      </trkpt>
      <trkpt lat="45.91232" lon="6.37326">
        <ele>873.18</ele>
        <time>2013-09-28T11:53:33Z</time>
      </trkpt>
      <trkpt lat="45.91176" lon="6.37277">
        <ele>869.63</ele>
        <time>2013-09-28T11:53:38Z</time>
      </trkpt>
      <trkpt lat="45.91123" lon="6.37222">
        <ele>865.86</ele>
        <time>2013-09-28T11:53:43Z</time>
      </trkpt>
      <trkpt lat="45.91075" lon="6.37156">
        <ele>862.74</ele>
        <time>2013-09-28T11:53:48Z</time>
      </trkpt>
      <trkpt lat="45.91036" lon="6.37076">
        <ele>857.45</ele>
        <time>2013-09-28T11:53:53Z</time>
      </trkpt>
      <trkpt lat="45.91005" lon="6.3699">
        <ele>853.55</ele>
        <time>2013-09-28T11:53:58Z</time>
      </trkpt>
      <trkpt lat="45.90983" lon="6.36896">
        <ele>848.71</ele>
        <time>2013-09-28T11:54:03Z</time>
      </trkpt>
      <trkpt lat="45.90958" lon="6.36806">
        <ele>845.9</ele>
        <time>2013-09-28T11:54:08Z</time>
      </trkpt>
      <trkpt lat="45.9092" lon="6.36725">
        <ele>841.35</ele>
        <time>2013-09-28T11:54:13Z</time>
      </trkpt>
      <trkpt lat="45.90888" lon="6.36648">
        <ele>836.54</ele>
        <time>2013-09-28T11:54:18Z</time>
      </trkpt>
      <trkpt lat="45.90857" lon="6.36573">
        <ele>831.08</ele>
        <time>2013-09-28T11:54:23Z</time>
      </trkpt>
      <trkpt lat="45.90826" lon="6.36515">
        <ele>828.61</ele>
        <time>2013-09-28T11:54:28Z</time>
      </trkpt>
      <trkpt lat="45.90788" lon="6.3647">
        <ele>829.05</ele>
        <time>2013-09-28T11:54:33Z</time>
      </trkpt>
      <trkpt lat="45.90752" lon="6.36409">
        <ele>825.85</ele>
        <time>2013-09-28T11:54:38Z</time>
      </trkpt>
      <trkpt lat="45.90731" lon="6.36338">
        <ele>824.82</ele>
        <time>2013-09-28T11:54:43Z</time>
      </trkpt>
      <trkpt lat="45.90685" lon="6.36288">
        <ele>821.86</ele>
        <time>2013-09-28T11:54:48Z</time>
      </trkpt>
      <trkpt lat="45.90638" lon="6.36239">
        <ele>820.86</ele>
        <time>2013-09-28T11:54:53Z</time>
      </trkpt>
      <trkpt lat="45.90588" lon="6.36194">
        <ele>816.57</ele>
        <time>2013-09-28T11:54:58Z</time>
      </trkpt>
      <trkpt lat="45.90542" lon="6.36146">
        <ele>811.29</ele>
        <time>2013-09-28T11:55:03Z</time>
      </trkpt>
      <trkpt lat="45.90504" lon="6.36079">
        <ele>809.08</ele>
        <time>2013-09-28T11:55:08Z</time>
      </trkpt>
      <trkpt lat="45.90476" lon="6.36018">
        <ele>808.21</ele>
        <time>2013-09-28T11:55:13Z</time>
      </trkpt>
      <trkpt lat="45.90448" lon="6.35963">
        <ele>806.93</ele>
        <time>2013-09-28T11:55:18Z</time>
      </trkpt>
      <trkpt lat="45.90426" lon="6.35901">
        <ele>802.76</ele>
        <time>2013-09-28T11:55:23Z</time>
      </trkpt>
      <trkpt lat="45.90399" lon="6.35843">
        <ele>800.44</ele>
        <time>2013-09-28T11:55:28Z</time>
      </trkpt>
      <trkpt lat="45.90373" lon="6.35788">
        <ele>796.72</ele>
        <time>2013-09-28T11:55:33Z</time>
      </trkpt>
      <trkpt lat="45.90347" lon="6.3573">
        <ele>794.64</ele>
        <time>2013-09-28T11:55:38Z</time>
      </trkpt>
      <trkpt lat="45.90319" lon="6.35667">
        <ele>790.9</ele>
        <time>2013-09-28T11:55:43Z</time>
      </trkpt>
      <trkpt lat="45.90287" lon="6.35598">
        <ele>789.53</ele>
        <time>2013-09-28T11:55:48Z</time>
      </trkpt>
      <trkpt lat="45.90251" lon="6.35525">
        <ele>785.33</ele>
        <time>2013-09-28T11:55:53Z</time>
      </trkpt>
      <trkpt lat="45.90212" lon="6.35451">
        <ele>779.72</ele>
        <time>2013-09-28T11:55:58Z</time>
      </trkpt>
      <trkpt lat="45.9017" lon="6.35374">
        <ele>774.56</ele>
        <time>2013-09-28T11:56:03Z</time>
      </trkpt>
      <trkpt lat="45.90127" lon="6.35291">
        <ele>769.57</ele>
        <time>2013-09-28T11:56:08Z</time>
      </trkpt>
      <trkpt lat="45.90082" lon="6.35206">
        <ele>763.92</ele>
        <time>2013-09-28T11:56:13Z</time>
      </trkpt>
      <trkpt lat="45.90041" lon="6.35128">
        <ele>758.91</ele>
        <time>2013-09-28T11:56:18Z</time>
      </trkpt>
      <trkpt lat="45.9" lon="6.35053">
        <ele>751.92</ele>
        <time>2013-09-28T11:56:23Z</time>
      </trkpt>
      <trkpt lat="45.89961" lon="6.34974">
        <ele>748.59</ele>
        <time>2013-09-28T11:56:28Z</time>
      </trkpt>
      <trkpt lat="45.89927" lon="6.3489">
        <ele>742.79</ele>
        <time>2013-09-28T11:56:33Z</time>
      </trkpt>
      <trkpt lat="45.89889" lon="6.34799">
        <ele>740.01</ele>
        <time>2013-09-28T11:56:38Z</time>
      </trkpt>
      <trkpt lat="45.89857" lon="6.3471">
        <ele>734.76</ele>
        <time>2013-09-28T11:56:43Z</time>
      </trkpt>
      <trkpt lat="45.89825" lon="6.34621">
        <ele>731.04</ele>
        <time>2013-09-28T11:56:48Z</time>
      </trkpt>
      <trkpt lat="45.89788" lon="6.34537">
        <ele>724.37</ele>
        <time>2013-09-28T11:56:53Z</time>
      </trkpt>
      <trkpt lat="45.89747" lon="6.34456">
        <ele>723.29</ele>
        <time>2013-09-28T11:56:58Z</time>
      </trkpt>
      <trkpt lat="45.89707" lon="6.34378">
        <ele>721.86</ele>
        <time>2013-09-28T11:57:03Z</time>
      </trkpt>
      <trkpt lat="45.89668" lon="6.34307">
        <ele>719.1</ele>
        <time>2013-09-28T11:57:08Z</time>
      </trkpt>
      <trkpt lat="45.89634" lon="6.34239">
        <ele>715.27</ele>
        <time>2013-09-28T11:57:13Z</time>
      </trkpt>
      <trkpt lat="45.89598" lon="6.34174">
        <ele>712.94</ele>
        <time>2013-09-28T11:57:18Z</time>
      </trkpt>
      <trkpt lat="45.89565" lon="6.3411">
        <ele>712.44</ele>
        <time>2013-09-28T11:57:23Z</time>
      </trkpt>
      <trkpt lat="45.89533" lon="6.34046">
        <ele>711.29</ele>
        <time>2013-09-28T11:57:28Z</time>
      </trkpt>
      <trkpt lat="45.895" lon="6.33983">
        <ele>710.42</ele>
        <time>2013-09-28T11:57:33Z</time>
      </trkpt>
      <trkpt lat="45.89471" lon="6.33926">
        <ele>709.21</ele>
        <time>2013-09-28T11:57:38Z</time>
      </trkpt>
      <trkpt lat="45.89441" lon="6.33869">
        <ele>706.75</ele>
        <time>2013-09-28T11:57:43Z</time>
      </trkpt>
      <trkpt lat="45.89413" lon="6.33811">
        <ele>705.87</ele>
        <time>2013-09-28T11:57:48Z</time>
      </trkpt>
      <trkpt lat="45.89386" lon="6.33755">
        <ele>703.33</ele>
        <time>2013-09-28T11:57:53Z</time>
      </trkpt>
      <trkpt lat="45.8936" lon="6.33702">
        <ele>701.34</ele>
        <time>2013-09-28T11:57:58Z</time>
      </trkpt>
      <trkpt lat="45.8933" lon="6.33647">
        <ele>698.44</ele>
        <time>2013-09-28T11:58:03Z</time>
      </trkpt>
      <trkpt lat="45.89302" lon="6.33593">
        <ele>698.85</ele>
        <time>2013-09-28T11:58:08Z</time>
      </trkpt>
      <trkpt lat="45.89271" lon="6.33537">
        <ele>698.92</ele>
        <time>2013-09-28T11:58:13Z</time>
      </trkpt>
      <trkpt lat="45.89243" lon="6.33484">
        <ele>698.27</ele>
        <time>2013-09-28T11:58:18Z</time>
      </trkpt>
      <trkpt lat="45.89213" lon="6.33428">
        <ele>697.07</ele>
        <time>2013-09-28T11:58:23Z</time>
      </trkpt>
      <trkpt lat="45.89188" lon="6.33375">
        <ele>694.37</ele>
        <time>2013-09-28T11:58:28Z</time>
      </trkpt>
      <trkpt lat="45.8916" lon="6.33321">
        <ele>694.8</ele>
        <time>2013-09-28T11:58:33Z</time>
      </trkpt>
      <trkpt lat="45.89133" lon="6.33279">
        <ele>695.41</ele>
        <time>2013-09-28T11:58:38Z</time>
      </trkpt>
      <trkpt lat="45.89099" lon="6.33272">
        <ele>695.58</ele>
        <time>2013-09-28T11:58:43Z</time>
      </trkpt>
      <trkpt lat="45.89076" lon="6.33283">
        <ele>697</ele>
        <time>2013-09-28T11:58:48Z</time>
      </trkpt>
      <trkpt lat="45.8904" lon="6.33268">
        <ele>696.29</ele>
        <time>2013-09-28T11:58:53Z</time>
      </trkpt>
      <trkpt lat="45.89001" lon="6.3324">
        <ele>696.31</ele>
        <time>2013-09-28T11:58:58Z</time>
      </trkpt>
      <trkpt lat="45.88964" lon="6.33211">
        <ele>695.88</ele>
        <time>2013-09-28T11:59:03Z</time>
      </trkpt>
      <trkpt lat="45.88928" lon="6.33179">
        <ele>694.76</ele>
        <time>2013-09-28T11:59:08Z</time>
      </trkpt>
      <trkpt lat="45.88892" lon="6.33149">
        <ele>693.86</ele>
        <time>2013-09-28T11:59:13Z</time>
      </trkpt>
      <trkpt lat="45.88856" lon="6.33118">
        <ele>692.59</ele>
        <time>2013-09-28T11:59:18Z</time>
      </trkpt>
      <trkpt lat="45.88818" lon="6.33087">
        <ele>690.83</ele>
        <time>2013-09-28T11:59:23Z</time>
      </trkpt>
      <trkpt lat="45.88781" lon="6.33057">
        <ele>689.43</ele>
        <time>2013-09-28T11:59:28Z</time>
      </trkpt>
      <trkpt lat="45.88747" lon="6.33027">
        <ele>687.92</ele>
        <time>2013-09-28T11:59:33Z</time>
      </trkpt>
      <trkpt lat="45.8871" lon="6.32995">
        <ele>686.56</ele>
        <time>2013-09-28T11:59:38Z</time>
      </trkpt>
      <trkpt lat="45.88675" lon="6.32964">
        <ele>686.89</ele>
        <time>2013-09-28T11:59:43Z</time>
      </trkpt>
      <trkpt lat="45.88637" lon="6.32931">
        <ele>686.24</ele>
        <time>2013-09-28T11:59:48Z</time>
      </trkpt>
      <trkpt lat="45.886" lon="6.32899">
        <ele>684.92</ele>
        <time>2013-09-28T11:59:53Z</time>
      </trkpt>
      <trkpt lat="45.88566" lon="6.3287">
        <ele>684.33</ele>
        <time>2013-09-28T11:59:58Z</time>
      </trkpt>
      <trkpt lat="45.88536" lon="6.32842">
        <ele>684.88</ele>
        <time>2013-09-28T12:00:03Z</time>
      </trkpt>
      <trkpt lat="45.88506" lon="6.32817">
        <ele>684.66</ele>
        <time>2013-09-28T12:00:08Z</time>
      </trkpt>
      <trkpt lat="45.88472" lon="6.32789">
        <ele>684.47</ele>
        <time>2013-09-28T12:00:13Z</time>
      </trkpt>
      <trkpt lat="45.88441" lon="6.32765">
        <ele>685.37</ele>
        <time>2013-09-28T12:00:18Z</time>
      </trkpt>
      <trkpt lat="45.88412" lon="6.3274">
        <ele>685.51</ele>
        <time>2013-09-28T12:00:23Z</time>
      </trkpt>
      <trkpt lat="45.88384" lon="6.32715">
        <ele>686.62</ele>
        <time>2013-09-28T12:00:28Z</time>
      </trkpt>
      <trkpt lat="45.88356" lon="6.32692">
        <ele>686.49</ele>
        <time>2013-09-28T12:00:33Z</time>
      </trkpt>
      <trkpt lat="45.88334" lon="6.32671">
        <ele>686.01</ele>
        <time>2013-09-28T12:00:38Z</time>
      </trkpt>
      <trkpt lat="45.88314" lon="6.32652">
        <ele>685.88</ele>
        <time>2013-09-28T12:00:45Z</time>
      </trkpt>
      <trkpt lat="45.88293" lon="6.3264">
        <ele>688.7</ele>
        <time>2013-09-28T12:00:57Z</time>
      </trkpt>
      <trkpt lat="45.8827" lon="6.32657">
        <ele>689.52</ele>
        <time>2013-09-28T12:01:06Z</time>
      </trkpt>
      <trkpt lat="45.88243" lon="6.32656">
        <ele>690.13</ele>
        <time>2013-09-28T12:01:11Z</time>
      </trkpt>
      <trkpt lat="45.88218" lon="6.3265">
        <ele>691.19</ele>
        <time>2013-09-28T12:01:16Z</time>
      </trkpt>
      <trkpt lat="45.88192" lon="6.32639">
        <ele>690.59</ele>
        <time>2013-09-28T12:01:21Z</time>
      </trkpt>
      <trkpt lat="45.88168" lon="6.32631">
        <ele>691.65</ele>
        <time>2013-09-28T12:01:28Z</time>
      </trkpt>
      <trkpt lat="45.88169" lon="6.32594">
        <ele>687.71</ele>
        <time>2013-09-28T12:01:37Z</time>
      </trkpt>
      <trkpt lat="45.88172" lon="6.3256">
        <ele>686.6</ele>
        <time>2013-09-28T12:01:45Z</time>
      </trkpt>
      <trkpt lat="45.88168" lon="6.32526">
        <ele>687.6</ele>
        <time>2013-09-28T12:02:08Z</time>
      </trkpt>
      <trkpt lat="45.88176" lon="6.32494">
        <ele>699.83</ele>
        <time>2013-09-28T12:02:24Z</time>
      </trkpt>
      <trkpt lat="45.88184" lon="6.32463">
        <ele>707.36</ele>
        <time>2013-09-28T12:02:51Z</time>
      </trkpt>
      <trkpt lat="45.88178" lon="6.32432">
        <ele>699.07</ele>
        <time>2013-09-28T12:03:11Z</time>
      </trkpt>
      <trkpt lat="45.88178" lon="6.32399">
        <ele>705.61</ele>
        <time>2013-09-28T12:03:46Z</time>
      </trkpt>
      <trkpt lat="45.8819" lon="6.32371">
        <ele>718.64</ele>
        <time>2013-09-28T12:04:06Z</time>
      </trkpt>
      <trkpt lat="45.882" lon="6.32341">
        <ele>722.71</ele>
        <time>2013-09-28T12:04:21Z</time>
      </trkpt>
      <trkpt lat="45.88216" lon="6.32317">
        <ele>716.75</ele>
        <time>2013-09-28T12:04:35Z</time>
      </trkpt>
      <trkpt lat="45.88232" lon="6.32292">
        <ele>722.2</ele>
        <time>2013-09-28T12:05:01Z</time>
      </trkpt>
      <trkpt lat="45.88245" lon="6.32264">
        <ele>718.68</ele>
        <time>2013-09-28T12:05:12Z</time>
      </trkpt>
      <trkpt lat="45.88263" lon="6.32244">
        <ele>714.05</ele>
        <time>2013-09-28T12:05:22Z</time>
      </trkpt>
      <trkpt lat="45.88284" lon="6.3223">
        <ele>710.05</ele>
        <time>2013-09-28T12:05:30Z</time>
      </trkpt>
      <trkpt lat="45.88301" lon="6.32197">
        <ele>708.21</ele>
        <time>2013-09-28T12:05:36Z</time>
      </trkpt>
      <trkpt lat="45.88318" lon="6.32163">
        <ele>707.18</ele>
        <time>2013-09-28T12:05:41Z</time>
      </trkpt>
      <trkpt lat="45.88341" lon="6.32129">
        <ele>705.5</ele>
        <time>2013-09-28T12:05:46Z</time>
      </trkpt>
      <trkpt lat="45.88363" lon="6.32097">
        <ele>704.77</ele>
        <time>2013-09-28T12:05:51Z</time>
      </trkpt>
      <trkpt lat="45.88387" lon="6.32059">
        <ele>709.09</ele>
        <time>2013-09-28T12:05:56Z</time>
      </trkpt>
      <trkpt lat="45.88411" lon="6.32024">
        <ele>709</ele>
        <time>2013-09-28T12:06:01Z</time>
      </trkpt>
      <trkpt lat="45.88435" lon="6.31987">
        <ele>706.78</ele>
        <time>2013-09-28T12:06:06Z</time>
      </trkpt>
      <trkpt lat="45.88456" lon="6.31947">
        <ele>704.9</ele>
        <time>2013-09-28T12:06:11Z</time>
      </trkpt>
      <trkpt lat="45.88479" lon="6.31906">
        <ele>701.45</ele>
        <time>2013-09-28T12:06:16Z</time>
      </trkpt>
      <trkpt lat="45.88497" lon="6.31861">
        <ele>700.2</ele>
        <time>2013-09-28T12:06:21Z</time>
      </trkpt>
      <trkpt lat="45.88521" lon="6.31818">
        <ele>693.6</ele>
        <time>2013-09-28T12:06:26Z</time>
      </trkpt>
      <trkpt lat="45.88538" lon="6.31783">
        <ele>688.34</ele>
        <time>2013-09-28T12:06:31Z</time>
      </trkpt>
      <trkpt lat="45.88553" lon="6.31752">
        <ele>684.89</ele>
        <time>2013-09-28T12:06:37Z</time>
      </trkpt>
      <trkpt lat="45.8856" lon="6.31721">
        <ele>680.48</ele>
        <time>2013-09-28T12:06:43Z</time>
      </trkpt>
      <trkpt lat="45.88542" lon="6.31742">
        <ele>679.04</ele>
        <time>2013-09-28T12:06:50Z</time>
      </trkpt>
      <trkpt lat="45.88516" lon="6.3175">
        <ele>687.96</ele>
        <time>2013-09-28T12:06:57Z</time>
      </trkpt>
      <trkpt lat="45.88493" lon="6.31756">
        <ele>691.7</ele>
        <time>2013-09-28T12:07:02Z</time>
      </trkpt>
      <trkpt lat="45.8847" lon="6.31762">
        <ele>692.36</ele>
        <time>2013-09-28T12:07:08Z</time>
      </trkpt>
      <trkpt lat="45.88446" lon="6.31764">
        <ele>690.29</ele>
        <time>2013-09-28T12:07:13Z</time>
      </trkpt>
      <trkpt lat="45.88441" lon="6.31796">
        <ele>682.93</ele>
        <time>2013-09-28T12:07:28Z</time>
      </trkpt>
      <trkpt lat="45.88432" lon="6.31807">
        <ele>675.5</ele>
        <time>2013-09-28T12:08:59Z</time>
      </trkpt>
    </trkseg>
  </trk>
</gpx>